[[{"header":{"parameterUnit":"m.s-1","parameterCategory":1,"la1":30.6,"la2":29.2853,"lo1":-89.7004,"lo2":-87.6739,"dy":0.0162,"dx":0.0183,"nx":112,"ny":82,"refTime":"2023-04-13T00:00:00:Z","depth":0,"parameterNumber":2,"parameterNumberName":"U-component_of_WINDS"},"data":[0.0,0.0,0.0,0.0,0.0,0.0,0.0,0.0,0.0,0.0,0.0,0.0,0.0,0.0,0.0,0.0,0.0,0.0,0.0,0.0,0.0,0.0,0.0,0.0,0.0,0.0,0.0,0.0,0.0,0.0,0.0,0.0,0.0,0.0,0.0,0.0,0.0,0.0,0.0,0.0,0.0,0.0,0.0,0.0,0.0,0.0,0.0,0.0,0.0,0.0,0.0,0.0,0.0,0.0,0.0,0.0,0.0,0.0,0.0,0.0,0.0,0.0,0.0,0.0,0.0,0.0,0.0,0.0,0.0,0.0,0.0,0.0,0.0,0.0,0.0,0.0,0.0,0.0,0.0,0.0,0.0,0.0,0.0,0.0,0.0,0.0,0.0,0.0,0.0,0.0,-4.6319,-4.8751,-5.1464,-5.3041,-5.3041,-5.2941,-5.2604,-5.2088,0.0,0.0,0.0,0.0,0.0,0.0,0.0,0.0,0.0,0.0,0.0,0.0,0.0,0.0,0.0,0.0,0.0,0.0,0.0,0.0,0.0,0.0,0.0,0.0,0.0,0.0,0.0,0.0,0.0,0.0,0.0,0.0,0.0,0.0,0.0,0.0,0.0,0.0,0.0,0.0,0.0,0.0,0.0,0.0,0.0,0.0,0.0,0.0,0.0,0.0,0.0,0.0,0.0,0.0,0.0,0.0,0.0,0.0,0.0,0.0,0.0,0.0,0.0,0.0,0.0,0.0,0.0,0.0,0.0,0.0,0.0,0.0,0.0,0.0,0.0,0.0,0.0,0.0,0.0,0.0,0.0,0.0,0.0,0.0,0.0,0.0,0.0,0.0,0.0,0.0,0.0,0.0,0.0,0.0,0.0,0.0,0.0,0.0,0.0,0.0,0.0,0.0,0.0,0.0,-4.6191,-4.8941,-5.0241,-5.0855,-5.0855,-5.0306,-5.0255,-5.0879,0.0,0.0,0.0,0.0,0.0,0.0,0.0,0.0,0.0,0.0,0.0,0.0,0.0,0.0,0.0,0.0,0.0,0.0,0.0,0.0,0.0,0.0,0.0,0.0,0.0,0.0,0.0,0.0,0.0,0.0,0.0,0.0,0.0,0.0,0.0,0.0,0.0,0.0,0.0,0.0,0.0,0.0,0.0,0.0,0.0,0.0,0.0,0.0,0.0,0.0,0.0,0.0,0.0,0.0,0.0,0.0,0.0,0.0,0.0,0.0,0.0,0.0,0.0,0.0,0.0,0.0,0.0,0.0,0.0,0.0,0.0,0.0,0.0,0.0,0.0,0.0,0.0,0.0,0.0,0.0,0.0,0.0,0.0,0.0,0.0,0.0,0.0,0.0,0.0,0.0,0.0,0.0,0.0,0.0,0.0,0.0,0.0,0.0,0.0,0.0,0.0,0.0,0.0,-4.5591,-4.6997,-4.9042,-4.9981,-5.0397,-5.0397,-5.0109,-5.0001,-5.0158,-5.1657,0.0,0.0,0.0,0.0,0.0,0.0,0.0,0.0,0.0,0.0,0.0,0.0,0.0,0.0,0.0,0.0,0.0,0.0,0.0,0.0,0.0,0.0,0.0,0.0,0.0,0.0,0.0,0.0,0.0,0.0,0.0,0.0,0.0,0.0,0.0,0.0,0.0,0.0,0.0,0.0,0.0,0.0,0.0,0.0,0.0,0.0,0.0,0.0,0.0,0.0,0.0,0.0,0.0,0.0,0.0,0.0,0.0,0.0,0.0,0.0,0.0,0.0,0.0,0.0,0.0,0.0,0.0,0.0,0.0,0.0,0.0,0.0,0.0,0.0,0.0,0.0,0.0,0.0,0.0,0.0,0.0,0.0,0.0,0.0,0.0,0.0,0.0,0.0,0.0,0.0,0.0,0.0,0.0,0.0,0.0,0.0,0.0,0.0,0.0,0.0,0.0,0.0,-4.5947,-4.751,-4.867,-4.93,-4.9647,-4.9647,-4.9409,-4.9245,-4.929,-5.0274,0.0,0.0,0.0,0.0,0.0,0.0,0.0,0.0,0.0,0.0,0.0,0.0,0.0,0.0,0.0,0.0,0.0,0.0,0.0,0.0,0.0,0.0,0.0,0.0,0.0,0.0,0.0,0.0,0.0,0.0,0.0,0.0,0.0,0.0,0.0,0.0,0.0,0.0,0.0,0.0,0.0,0.0,0.0,0.0,0.0,0.0,0.0,0.0,0.0,0.0,0.0,0.0,0.0,0.0,0.0,0.0,0.0,0.0,0.0,0.0,0.0,0.0,0.0,0.0,0.0,0.0,0.0,0.0,0.0,0.0,0.0,0.0,0.0,0.0,0.0,0.0,0.0,0.0,0.0,0.0,0.0,0.0,0.0,0.0,0.0,0.0,0.0,0.0,0.0,0.0,0.0,0.0,0.0,0.0,0.0,0.0,0.0,0.0,0.0,0.0,0.0,0.0,-4.5384,-4.6942,-4.7413,-4.7508,-4.7538,-4.7538,-4.6498,-4.6514,-4.8147,-4.7901,0.0,0.0,0.0,0.0,0.0,0.0,0.0,0.0,0.0,0.0,0.0,0.0,0.0,0.0,0.0,0.0,0.0,0.0,0.0,0.0,0.0,0.0,0.0,0.0,0.0,0.0,0.0,0.0,0.0,0.0,0.0,0.0,0.0,0.0,0.0,0.0,0.0,0.0,0.0,0.0,0.0,0.0,0.0,0.0,0.0,0.0,0.0,0.0,0.0,0.0,0.0,0.0,0.0,0.0,0.0,0.0,0.0,0.0,0.0,0.0,0.0,0.0,0.0,0.0,0.0,0.0,0.0,0.0,0.0,0.0,0.0,0.0,0.0,0.0,0.0,0.0,0.0,0.0,0.0,0.0,0.0,0.0,0.0,0.0,0.0,0.0,0.0,0.0,0.0,0.0,0.0,0.0,0.0,0.0,0.0,0.0,0.0,0.0,0.0,0.0,0.0,0.0,-4.476,-4.6199,-4.716,-4.7309,-4.7309,-4.7309,-4.6455,-4.6616,-4.8031,0.0,0.0,0.0,0.0,0.0,0.0,0.0,0.0,0.0,0.0,0.0,0.0,0.0,0.0,0.0,0.0,0.0,0.0,0.0,0.0,0.0,0.0,0.0,0.0,0.0,0.0,0.0,0.0,0.0,0.0,0.0,0.0,0.0,0.0,0.0,0.0,0.0,0.0,0.0,0.0,0.0,0.0,0.0,0.0,0.0,0.0,0.0,0.0,0.0,0.0,0.0,0.0,0.0,0.0,0.0,0.0,0.0,0.0,0.0,0.0,0.0,0.0,0.0,0.0,0.0,0.0,0.0,0.0,0.0,0.0,0.0,0.0,0.0,0.0,0.0,0.0,0.0,0.0,0.0,0.0,0.0,0.0,0.0,0.0,0.0,0.0,0.0,0.0,0.0,0.0,0.0,0.0,0.0,0.0,0.0,0.0,0.0,0.0,0.0,0.0,0.0,0.0,-4.2482,-4.4303,-4.5903,-4.7459,-4.7429,-4.7399,-4.7608,-4.6485,-4.6383,-4.8031,0.0,0.0,0.0,0.0,0.0,0.0,0.0,0.0,0.0,0.0,0.0,0.0,0.0,0.0,0.0,0.0,0.0,0.0,0.0,0.0,0.0,0.0,0.0,0.0,0.0,0.0,0.0,0.0,0.0,0.0,0.0,0.0,0.0,0.0,0.0,0.0,0.0,0.0,0.0,0.0,0.0,0.0,0.0,0.0,0.0,0.0,0.0,0.0,0.0,0.0,0.0,0.0,0.0,0.0,0.0,0.0,0.0,0.0,0.0,0.0,0.0,0.0,0.0,0.0,0.0,0.0,0.0,0.0,0.0,0.0,0.0,0.0,0.0,0.0,0.0,0.0,0.0,0.0,0.0,0.0,0.0,0.0,0.0,0.0,0.0,0.0,0.0,0.0,0.0,0.0,0.0,0.0,0.0,0.0,0.0,0.0,0.0,0.0,0.0,0.0,0.0,0.0,-4.1472,-4.3779,-4.6052,-4.8057,-4.7698,-4.7578,-4.8207,-4.6001,-4.5566,0.0,0.0,0.0,0.0,0.0,0.0,0.0,0.0,0.0,0.0,0.0,0.0,0.0,0.0,0.0,0.0,0.0,0.0,0.0,0.0,0.0,0.0,0.0,0.0,0.0,0.0,0.0,0.0,0.0,0.0,0.0,0.0,0.0,0.0,0.0,0.0,0.0,0.0,0.0,0.0,0.0,0.0,0.0,0.0,0.0,0.0,0.0,0.0,0.0,0.0,0.0,0.0,0.0,0.0,0.0,0.0,0.0,0.0,0.0,0.0,0.0,0.0,0.0,0.0,0.0,0.0,0.0,0.0,0.0,0.0,0.0,0.0,0.0,0.0,0.0,0.0,0.0,0.0,0.0,0.0,0.0,0.0,0.0,0.0,0.0,0.0,0.0,0.0,0.0,0.0,0.0,0.0,0.0,0.0,0.0,0.0,0.0,0.0,0.0,0.0,0.0,0.0,0.0,-4.0122,-4.2222,-4.4179,-4.6046,-4.6845,-4.7369,-4.7578,-4.6064,-4.5605,-4.7045,0.0,0.0,0.0,0.0,0.0,0.0,0.0,0.0,0.0,0.0,0.0,0.0,0.0,0.0,0.0,0.0,0.0,0.0,0.0,0.0,0.0,0.0,0.0,0.0,0.0,0.0,0.0,0.0,0.0,0.0,0.0,0.0,0.0,0.0,0.0,0.0,0.0,0.0,0.0,0.0,0.0,0.0,0.0,0.0,0.0,0.0,0.0,0.0,0.0,0.0,0.0,0.0,0.0,0.0,0.0,0.0,0.0,0.0,0.0,0.0,0.0,0.0,0.0,0.0,0.0,0.0,0.0,0.0,0.0,0.0,0.0,0.0,0.0,0.0,0.0,0.0,0.0,0.0,0.0,0.0,0.0,0.0,0.0,0.0,0.0,0.0,0.0,0.0,0.0,0.0,0.0,0.0,0.0,0.0,0.0,0.0,0.0,0.0,0.0,0.0,0.0,0.0,-3.9176,-4.0988,-4.2732,-4.4769,-4.547,-4.5866,-4.6127,-4.5434,-4.4995,-4.5178,0.0,0.0,0.0,0.0,0.0,0.0,0.0,0.0,0.0,0.0,0.0,0.0,0.0,0.0,0.0,0.0,0.0,0.0,0.0,0.0,0.0,0.0,0.0,0.0,0.0,0.0,0.0,0.0,0.0,0.0,0.0,0.0,0.0,0.0,0.0,0.0,0.0,0.0,0.0,0.0,0.0,0.0,0.0,0.0,0.0,0.0,0.0,0.0,0.0,0.0,0.0,0.0,0.0,0.0,0.0,0.0,0.0,0.0,0.0,0.0,0.0,0.0,0.0,0.0,0.0,0.0,0.0,0.0,0.0,0.0,0.0,0.0,0.0,0.0,0.0,0.0,0.0,0.0,0.0,0.0,0.0,0.0,0.0,0.0,0.0,0.0,0.0,0.0,0.0,0.0,0.0,0.0,0.0,0.0,0.0,0.0,0.0,0.0,0.0,0.0,0.0,0.0,-3.8398,-3.988,-4.1507,-4.3877,-4.378,-4.3725,-4.4373,-4.4309,-4.3806,-4.2879,0.0,0.0,0.0,0.0,0.0,0.0,0.0,0.0,0.0,0.0,0.0,0.0,0.0,0.0,0.0,0.0,0.0,0.0,0.0,0.0,0.0,0.0,0.0,0.0,0.0,0.0,0.0,0.0,0.0,0.0,0.0,0.0,0.0,0.0,0.0,0.0,0.0,0.0,0.0,0.0,0.0,0.0,0.0,0.0,0.0,0.0,0.0,0.0,0.0,0.0,0.0,0.0,0.0,0.0,0.0,0.0,0.0,0.0,0.0,0.0,0.9916,0.9482,0.0,0.0,0.0,0.0,0.0,0.0,0.0,0.0,0.0,0.0,0.0,0.0,0.0,0.0,0.0,0.0,0.0,0.0,0.0,0.0,0.0,0.0,0.0,0.0,0.0,0.0,0.0,0.0,0.0,0.0,0.0,0.0,0.0,0.0,0.0,0.0,0.0,0.0,0.0,0.0,-3.6539,-3.8018,-3.9559,-4.1363,-4.274,-4.3559,-4.3669,-4.3221,-4.2663,-4.2036,-4.167,0.0,0.0,0.0,0.0,0.0,0.0,0.0,0.0,0.0,0.0,0.0,0.0,0.0,0.0,0.0,0.0,0.0,0.0,0.0,0.0,0.0,0.0,0.0,0.0,0.0,0.0,0.0,0.0,0.0,0.0,0.0,0.0,0.0,0.0,0.0,0.0,0.0,0.0,0.0,0.0,0.0,0.0,0.0,0.0,0.0,0.0,0.0,0.0,0.0,0.0,0.0,0.0,0.0,0.0,0.0,0.0,0.0,0.0,0.0,0.9719,0.9384,0.0,0.0,0.0,0.0,0.0,0.0,0.0,0.0,0.0,0.0,0.0,0.0,0.0,0.0,0.0,0.0,0.0,0.0,0.0,0.0,0.0,0.0,0.0,0.0,0.0,0.0,0.0,0.0,0.0,0.0,0.0,0.0,0.0,0.0,0.0,0.0,0.0,0.0,0.0,0.0,-3.6343,-3.7373,-3.8291,-3.9736,-4.0979,-4.169,-4.169,-4.1887,-4.1504,-4.0318,-4.0697,0.0,0.0,0.0,0.0,0.0,0.0,0.0,0.0,0.0,0.0,0.0,0.0,0.0,0.0,0.0,0.0,0.0,0.0,0.0,0.0,0.0,0.0,0.0,0.0,0.0,0.0,0.0,0.0,0.0,0.0,0.0,0.0,0.0,0.0,0.0,0.0,0.0,0.0,0.0,0.0,0.0,0.0,0.0,0.0,0.0,0.0,0.0,0.0,0.0,0.0,0.0,0.0,0.0,1.1555,1.1061,1.0134,1.0392,1.0392,1.0211,0.9441,0.9051,0.8891,0.7675,0.0,0.0,0.0,0.0,0.0,0.0,0.0,0.0,0.0,0.0,0.0,0.0,0.0,0.0,0.0,0.0,0.0,0.0,0.0,0.0,0.0,0.0,-1.4629,-1.7127,-1.9391,-2.053,-1.8955,0.0,0.0,0.0,0.0,0.0,0.0,0.0,0.0,0.0,0.0,0.0,-3.5844,-3.6601,-3.7294,-3.8415,-3.9243,-3.9697,-3.9697,-4.0642,-4.0566,-3.8739,-4.0094,-4.0368,0.0,0.0,0.0,0.0,0.0,0.0,0.0,0.0,0.0,0.0,0.0,0.0,0.0,0.0,0.0,0.0,0.0,0.0,0.0,0.0,0.0,0.0,0.0,0.0,0.0,0.0,0.0,0.0,0.0,0.0,0.0,0.0,1.9239,1.9055,0.0,0.0,0.0,0.0,0.0,0.0,0.0,0.0,0.0,0.0,0.0,0.0,0.0,1.203,1.2084,1.1283,1.0762,1.0654,1.0883,1.088,1.0805,1.0953,1.1094,1.1228,1.1074,0.0,0.8984,0.3367,0.0,0.0,0.0,0.0,0.0,0.0,0.0,0.0,0.0,0.0,0.0,0.0,0.0,0.0,0.0,0.0,0.0,0.0,0.0,0.0,0.0,0.0,-1.2967,-1.6172,-1.7256,-1.7781,-1.9021,-2.2495,-2.5413,-2.5183,-2.5796,-2.6768,0.0,0.0,0.0,0.0,0.0,0.0,-3.27,-3.444,-3.5829,-3.6884,-3.86,-3.9697,-3.9697,-3.9878,-3.9677,-3.8868,-3.8155,-3.842,-3.9761,-3.8595,0.0,0.0,0.0,0.0,0.0,0.0,0.0,0.0,0.0,0.0,0.0,0.0,0.0,0.0,0.0,0.0,0.0,0.0,0.0,0.0,0.0,0.0,0.0,0.0,0.0,0.0,0.0,0.0,0.0,1.9382,1.895,1.8076,1.7871,1.7662,0.0,0.0,0.0,0.0,0.0,0.0,0.0,0.0,0.0,1.2795,1.1892,1.1607,1.1731,1.1354,1.1311,1.1449,1.1563,1.1635,1.1652,1.1652,1.1802,1.1808,1.1808,1.1386,1.068,0.7416,0.514,0.3897,0.0,0.0,0.0,0.0,0.8949,0.8474,0.5009,0.2152,-0.0,-0.0,0.0,0.0,0.0,0.0,0.0,0.0,0.0,-1.0383,-1.1931,-1.244,-1.3457,-1.6764,-1.7497,-1.7997,-1.9732,-2.2007,-2.3891,-2.4429,-2.5595,-2.6886,-2.8427,-2.8301,0.0,0.0,0.0,-3.1104,-3.2552,-3.3925,-3.5213,-3.654,-3.7718,-3.8792,-3.9594,-3.9697,-3.9597,-3.9346,-3.8567,-3.8361,-3.882,-3.8856,-3.9516,0.0,0.0,0.0,0.0,0.0,0.0,0.0,0.0,0.0,0.0,0.0,0.0,0.0,0.0,0.0,0.0,0.0,0.0,0.0,0.0,0.0,0.0,0.0,0.0,0.0,0.0,0.0,0.0,1.9111,1.8971,1.7741,1.833,1.8308,0.0,0.0,0.0,0.0,0.0,0.0,1.3021,1.2283,1.2004,1.235,1.1747,1.1571,1.188,1.2039,1.2107,1.2237,1.2268,1.223,1.2185,1.234,1.234,1.234,1.234,1.1566,1.0417,0.8739,0.4803,0.0253,0.2529,0.2022,0.0508,0.5049,0.6594,0.6004,0.1574,-0.0,-0.0,-0.0,-0.3881,-0.8863,-0.9627,0.0,0.0,0.0,0.0,-1.0679,-1.1783,-1.2379,-1.3362,-1.6212,-1.7207,-1.7966,-1.9763,-2.0889,-2.195,-2.3051,-2.4485,-2.5998,-2.7549,-2.782,0.0,-2.9816,-3.0431,-3.11,-3.2038,-3.3158,-3.4356,-3.5672,-3.647,-3.7477,-3.9025,-3.9129,-3.9258,-3.9697,-3.932,-3.8818,-3.8241,-3.8865,-3.9013,-3.8739,0.0,0.0,0.0,0.0,0.0,0.0,0.0,0.0,0.0,0.0,0.0,0.0,0.0,0.0,0.0,0.0,0.0,0.0,0.0,0.0,0.0,0.0,0.0,0.0,0.0,0.0,0.0,0.0,0.0,1.8865,2.0094,0.0,0.0,0.0,0.0,1.2807,1.2725,1.2314,1.1426,1.1381,1.165,1.2109,1.2306,1.2489,1.265,1.2596,1.2725,1.2741,1.2611,1.2662,1.2663,1.2824,1.2979,1.2979,1.2817,1.0336,0.6271,0.223,0.0282,-0.0,0.0134,0.0134,-0.0,0.0403,0.0397,0.0388,0.0129,-0.0,-0.0,-0.0,-0.2522,-0.6161,-0.9353,-1.0283,0.0,0.0,-1.0276,-1.0283,-1.0404,-1.0513,-1.1178,-1.3143,-1.4865,-1.655,-1.8233,-1.989,-2.1272,-2.1774,-2.2461,-2.334,-2.4697,0.0,-2.6767,-2.7259,-2.8937,-3.0094,-2.9793,-3.1318,-3.2643,-3.3219,-3.4604,-3.6054,-3.7477,-3.7583,-3.8243,-3.9594,-3.9672,-3.9396,-3.8843,-3.7887,-3.8063,-3.9838,-3.8342,0.0,0.0,0.0,0.0,0.0,0.0,0.0,0.0,0.0,0.0,0.0,0.0,0.0,0.0,0.0,0.0,0.0,0.0,0.0,0.0,0.0,0.0,0.0,0.0,0.0,0.0,0.0,0.0,2.0535,2.1403,0.0,1.8839,1.7631,1.5968,1.3431,1.2558,1.2101,1.2093,1.2102,1.2467,1.2784,1.2949,1.3014,1.3283,1.3141,1.313,1.3078,1.3193,1.304,1.2916,1.2916,1.3078,1.3078,1.2916,1.1905,1.0008,0.5704,0.238,-0.0,-0.0,-0.0,-0.0,-0.0,-0.0,-0.0,-0.0,-0.0,-0.0,-0.0,-0.0809,-0.3054,-0.8864,-1.0453,-1.0317,-1.0399,-1.0419,-1.046,-1.0656,-1.0677,-1.1066,-1.2938,-1.3805,-1.5005,-1.7859,-1.9024,-1.989,-2.1423,-2.2345,-2.3293,-2.4822,-2.5177,-2.5493,-2.6219,-2.69,-2.7665,-2.8615,-2.9517,-3.0879,-3.2851,-3.3508,-3.4515,-3.5945,-3.6918,-3.769,-3.8243,-3.8807,-3.9069,-3.8868,-3.7789,-3.7127,-3.7041,-3.6453,-3.7363,0.0,0.0,0.0,0.0,0.0,0.0,0.0,0.0,0.0,0.0,0.0,0.0,0.0,0.0,0.0,0.0,0.0,0.0,0.0,0.0,0.0,0.0,0.0,0.0,0.0,2.0628,2.1066,2.1874,2.2917,2.2574,2.0467,1.8649,1.6797,1.4847,1.3214,1.2443,1.2871,1.2957,1.3127,1.3422,1.3473,1.3487,1.3612,1.3612,1.348,1.3526,1.3498,1.3403,1.3231,1.3231,1.3231,1.3231,1.3231,1.301,1.2489,0.8042,0.376,-0.0,-0.0,-0.0,-0.0,-0.0,-0.0,-0.0,-0.0,-0.0,-0.0,-0.0,-0.0,-0.095,-0.5626,-0.8624,-1.0555,-1.0636,-1.0649,-1.069,-1.0894,-1.0873,-1.1073,-1.2311,-1.2889,-1.4101,-1.6947,-1.8116,-1.9108,-2.1225,-2.202,-2.2675,-2.3856,-2.4295,-2.4658,-2.5119,-2.5789,-2.661,-2.7591,-2.8445,-2.9619,-3.1463,-3.2153,-3.2964,-3.4403,-3.5945,-3.6848,-3.7215,-3.8132,-3.8492,-3.8316,-3.7588,-3.6835,-3.6107,-3.6075,-3.6586,-3.7705,0.0,0.0,0.0,0.0,0.0,0.0,0.0,0.0,0.0,0.0,0.0,0.0,0.0,0.0,0.0,0.0,0.0,0.0,0.0,0.0,0.0,0.0,0.0,2.1628,2.2074,2.2601,2.2935,2.4446,2.4539,2.1938,2.0196,1.8421,1.6514,1.4436,1.3332,1.3649,1.3671,1.376,1.3899,1.3755,1.384,1.3777,1.3827,1.3755,1.3748,1.3878,1.377,1.377,1.377,1.377,1.377,1.3597,1.3417,1.3072,0.842,0.3942,-0.0,-0.0,-0.0,-0.0,-0.0,-0.0,-0.0,-0.0,-0.0,-0.0,-0.0,-0.0,-0.0,-0.0,-0.4792,-1.0432,-1.0853,-1.0975,-1.0955,-1.0962,-1.0962,-1.0914,-1.0772,-1.2033,-1.3718,-1.5394,-1.7205,-1.898,-2.1109,-2.1323,-2.1216,-2.151,-2.2922,-2.3925,-2.394,-2.5485,0.0,-2.6853,-2.804,-2.8918,-2.8918,-3.0168,-3.146,-3.2871,-3.4425,-3.5608,-3.6483,-3.7314,-3.7615,-3.7186,-3.7136,-3.7136,-3.7161,-3.7077,-3.6937,-3.6645,0.0,0.0,0.0,0.0,0.0,0.0,0.0,0.0,0.0,0.0,0.0,0.0,0.0,0.0,0.0,0.0,0.0,0.0,0.0,0.0,0.0,2.2797,2.2544,2.2974,2.3249,2.3884,2.5041,2.584,2.5754,2.3964,2.1563,1.9321,1.7278,1.4921,1.3661,1.3994,1.3916,1.396,1.4108,1.4115,1.4041,1.4235,1.4035,1.3938,1.3938,1.3954,1.3874,1.3874,1.3874,1.3874,1.3874,1.3693,1.3455,1.3244,1.2005,0.6874,-0.0,-0.0,-0.0,-0.0,-0.0,-0.0,-0.0,-0.0,-0.0,-0.0,-0.0,-0.0,-0.0,-0.0,-0.14,-0.4028,-0.9336,-1.1013,-1.1165,-1.1127,-1.1199,-1.109,-1.105,-1.1361,-1.2044,-1.3613,-1.5394,-1.7336,-1.9615,-2.0825,-2.1456,-2.1537,-2.1747,-2.2002,-2.2428,-2.2958,-2.3855,-2.5252,-2.6663,-2.7946,-2.9189,-3.0464,-3.1446,-3.1898,-3.3059,-3.3501,-3.3224,-3.372,-3.4398,-3.526,-3.4896,-3.5279,-3.6584,-3.6633,-3.6794,0.0,0.0,0.0,0.0,0.0,0.0,0.0,0.0,0.0,0.0,0.0,0.0,0.0,0.0,0.0,0.0,0.0,0.0,0.0,0.0,0.0,0.0,2.3608,2.3753,2.4523,2.466,2.5185,2.634,2.6977,2.702,2.618,2.2833,2.0259,1.9059,1.5832,1.4131,1.4131,1.4109,1.4299,1.4299,1.4299,1.4299,1.4299,1.4299,1.4122,1.4122,1.4122,1.4115,1.3938,1.3938,1.3938,1.3938,1.3932,1.2698,1.0865,1.264,0.8113,-0.0,0.0,0.0,0.0,0.0,-0.0,-0.0,-0.0,-0.0,-0.0,-0.0,-0.0,-0.0583,-0.3896,-0.3705,-0.3661,-0.9462,-1.1161,-1.1307,-1.1389,-1.1287,-1.1151,-1.109,-1.0962,-1.122,-1.2955,-1.4819,-1.6813,-1.8928,-2.0548,0.0,-2.171,-2.159,-2.155,-2.1777,-2.2004,-2.2617,-2.37,-2.5773,-2.7577,-2.8576,-3.0363,-3.1523,-3.1523,-3.2452,0.0,0.0,0.0,-3.3261,-3.4459,-3.4173,0.0,0.0,0.0,-3.6408,-3.6508,-3.7775,0.0,0.0,-4.1113,-4.1959,0.0,0.0,0.0,0.0,0.0,0.0,0.0,0.0,0.0,0.0,0.0,0.0,0.0,0.0,0.0,0.0,2.4523,2.4833,2.5927,2.6128,2.643,2.7318,2.7887,2.8136,2.8136,2.4001,2.118,2.1117,1.6872,1.4299,1.4299,1.4299,0.0,0.0,0.0,1.4299,1.4299,1.4299,1.4299,1.4299,1.4299,1.4299,1.4299,1.4299,1.4299,1.4299,1.4115,1.1643,0.8083,1.0756,0.7127,-0.0,-0.0,-0.0,-0.0,-0.0,-0.0,-0.0,-0.0,0.0,0.0,-0.0,-0.0,-0.1459,-0.9211,-0.912,-0.7144,-1.0593,-1.1443,-1.1423,-1.1423,-1.1314,-1.1172,-1.1009,-1.0867,-1.1157,-1.2684,-1.4781,-1.6981,-1.8684,-2.0454,-2.1737,-2.1991,-2.1951,-2.1817,-2.163,-2.2044,-2.2392,-2.2458,-2.5186,-2.7247,-2.7555,-2.9828,0.0,-3.1582,-3.2377,-3.2455,-3.1428,-3.2314,-3.3198,-3.3988,-3.4331,-3.5163,-3.6343,-3.6533,-3.6307,-3.583,-3.6307,-3.7355,-3.8909,-4.1179,-4.2257,0.0,0.0,0.0,0.0,0.0,0.0,0.0,0.0,0.0,0.0,0.0,0.0,0.0,0.0,0.0,2.5319,2.544,2.5674,2.6822,2.7193,2.7509,2.7636,2.8017,2.8136,2.8136,2.4001,2.118,2.1117,1.6872,1.4299,1.4299,1.4483,1.4483,1.4483,1.4483,1.4483,1.4483,1.4483,1.4483,1.4299,1.4299,0.0,1.4299,1.4299,1.4299,1.4299,1.4299,1.3649,1.2292,0.5525,0.1565,-0.0,-0.0,-0.0,-0.0,-0.0,-0.0,-0.0,-0.0,-0.0,-0.0,-0.0,-0.0,-0.1459,-0.9211,-1.1115,0.0,-1.1365,-1.1626,-1.1606,-1.1606,-1.1565,-1.1463,-1.1185,-1.1097,-1.1145,-1.1164,-1.3998,-1.6583,-1.7202,-1.9941,-2.2271,-2.2325,-2.175,-2.1416,-2.1844,-2.1991,-2.2245,-2.2712,-2.4271,-2.6052,-2.79,-2.9204,-3.0493,-3.191,-3.1565,-3.0948,-3.0056,-3.0843,-3.1486,-3.161,-3.4142,-3.5622,-3.5925,-3.7072,-3.7638,-3.7538,-3.7638,-3.8063,-3.8916,-3.8932,-3.9622,0.0,0.0,0.0,0.0,0.0,0.0,0.0,0.0,0.0,0.0,0.0,2.3035,2.348,0.0,2.4622,2.6017,2.6344,2.6758,2.7647,2.7997,2.818,2.8003,2.8149,2.8136,2.8136,2.4001,2.1734,2.3016,1.7789,1.5027,1.6318,1.5211,1.462,1.4544,1.474,1.474,1.4557,1.4448,1.4483,1.4483,1.4299,1.4299,1.4299,1.4299,1.4299,1.4122,1.1821,1.2062,1.3585,0.3953,-0.0,-0.0,-0.0,-0.0,-0.0,-0.0,-0.0,-0.0,-0.0,-0.0,-0.0,-0.0,-0.0,-0.1058,-0.7154,-1.0275,-1.177,-1.1803,-1.1755,-1.1728,-1.1653,-1.1572,-1.1463,-1.1314,-1.1219,-1.1124,-1.0975,-1.4018,-1.6746,-1.6858,-1.9852,-2.2418,-2.2418,-2.1937,-2.1643,-2.1937,-2.1991,-2.2151,-2.2579,-2.4089,-2.5529,-2.6588,-2.8426,-2.9847,-3.087,-3.0873,-3.0605,-2.9922,-3.0118,-3.0622,-3.1249,-3.2831,-3.4311,-3.5758,-3.6493,-3.7368,-3.8466,-3.8466,-3.8793,-3.927,-3.8994,-3.9297,0.0,0.0,0.0,0.0,0.0,0.0,0.0,2.5898,2.4795,2.4525,2.3656,2.3032,2.352,2.4186,2.5072,2.668,2.7208,2.7663,2.8217,2.8528,2.8622,2.8457,2.8466,2.8136,2.7746,2.3821,2.2097,2.3589,1.8008,1.5483,1.7624,1.595,1.4874,1.4778,1.4798,1.4798,1.4792,1.4706,1.4599,1.4483,1.4483,1.4299,1.4299,1.4299,1.4299,1.3945,0.825,0.7926,1.0835,0.3233,-0.0,-0.0,-0.0,-0.0,-0.0,-0.0,-0.0,-0.0,-0.0,-0.0,-0.0,-0.0,-0.0,-0.0781,-0.5021,-0.9081,-1.2108,-1.1925,-1.1857,-1.1803,-1.1687,-1.1552,-1.143,-1.1396,-1.1294,-1.1199,-1.1172,-1.4294,-1.7052,-1.7052,-1.9983,-2.2498,-2.2498,-2.2258,-2.2071,-2.2071,-2.2071,-2.2178,-2.2472,-2.3905,-2.501,-2.5158,-2.7516,-2.9422,-3.0112,-3.0768,-3.0937,-3.0488,-3.0137,-3.0446,-3.1436,-3.1725,-3.2965,-3.5248,-3.5821,-3.6933,-3.8642,-3.8944,-3.9272,-3.9697,-3.9697,-3.9697,2.988,2.8696,2.7994,2.8121,2.8534,2.8881,0.0,2.7675,2.6262,2.5768,2.4974,2.4475,2.4796,2.5553,2.6334,2.7181,2.779,2.8283,2.8519,2.9088,2.9316,2.9389,2.9163,2.8123,2.5868,2.327,2.0999,1.9238,1.6619,1.5209,1.5452,1.5466,1.5307,1.5181,1.5187,1.5181,1.4986,1.4926,1.4821,1.4666,1.4483,1.4483,1.4483,1.4299,1.4299,1.3761,0.4653,0.1077,0.1436,0.0359,-0.0,-0.0,-0.0,-0.0,-0.0,-0.0,-0.0,-0.0,-0.0,-0.0,-0.0,-0.0,-0.0,-0.0782,-0.5049,-0.9116,-1.2442,-1.221,-1.1938,-1.183,-1.1809,-1.1701,-1.1558,-1.1423,-1.1382,-1.1328,-1.1192,-1.4294,-1.7052,-1.7052,-2.0126,-2.2819,-2.2819,-2.2565,-2.2378,-2.2378,-2.2378,-2.2472,-2.2779,-2.3106,-2.3774,-2.5338,-2.6871,-2.8841,-3.168,-3.1949,-3.1836,-3.1406,-3.1328,-3.125,-3.0974,-3.2262,-3.3056,-3.3369,-3.6027,-3.7394,-3.7673,-3.9013,-3.9622,-3.9697,-3.9697,-3.9697,3.0057,2.949,2.9253,2.9709,2.957,2.947,3.0068,2.8253,2.6649,2.6935,2.6299,2.5744,2.6221,2.6887,2.7313,2.7812,2.8153,2.8564,2.8804,2.9179,2.9429,2.9543,2.9469,2.8514,2.591,2.3575,2.182,2.0922,1.7335,1.5897,1.7501,1.6307,1.5502,1.5502,1.5561,1.5375,1.5375,1.5181,1.5059,1.5004,1.4814,1.4631,1.4483,1.4483,1.2887,0.9683,0.2868,-0.0,-0.0,-0.0,-0.0,-0.0,-0.0,-0.0,-0.0,-0.0,-0.0,-0.0,-0.0,-0.0,-0.0,-0.0,-0.0,-0.0784,-0.4957,-0.9126,-1.2386,-1.2237,-1.2088,-1.1945,-1.1857,-1.1728,-1.1606,-1.1538,-1.1525,-1.1504,-1.1443,-1.4403,-1.7116,-1.7116,-2.0257,-2.2859,-2.2859,-2.2752,-2.2672,-2.2672,-2.2525,-2.2525,-2.2819,-2.2859,-2.3854,-2.6424,-2.7198,-2.8893,-3.1944,-3.2383,-3.2363,-3.1914,-3.1897,-3.186,-3.1683,-3.1989,-3.2559,-3.3382,-3.5557,-3.7115,-3.7971,-3.9494,-4.0208,-4.0183,-3.9851,-3.9898,2.9885,3.0147,3.0661,3.1177,3.1361,3.1262,3.0841,2.9357,2.7987,2.7737,2.7216,2.685,2.7368,2.7671,2.7893,2.8184,2.8514,2.8749,2.8947,2.9378,2.9572,2.964,2.9844,2.8856,2.6354,2.409,2.203,2.0801,1.7456,1.6289,1.8344,1.67,1.5671,1.5671,1.5655,1.5629,1.5622,1.5425,1.5154,1.5181,1.4798,1.458,1.4536,1.4558,1.1821,0.6838,0.2156,-0.0,-0.0,-0.0,-0.0,-0.0,-0.0,-0.0,-0.0,-0.0,-0.0,-0.0,-0.0,-0.0,-0.0,-0.0,-0.0,-0.0784,-0.5,-0.9241,-1.2414,-1.24,-1.221,-1.2033,-1.1925,-1.1755,-1.1619,-1.1619,-1.1619,-1.1619,-1.1619,-1.4583,-1.7248,-1.7248,-2.0328,-2.2859,-2.2859,-2.2859,-2.2859,-2.2859,-2.2672,-2.2619,-2.2832,-2.2859,-2.4111,-2.741,-2.7767,-2.9084,-3.2273,-3.2793,-3.2793,-3.2363,-3.2391,-3.2334,-3.2196,-3.182,-3.217,-3.3272,-3.488,-3.6432,-3.7829,-3.934,-4.0275,-4.0746,-4.0282,-4.03,2.9031,3.0191,3.1609,3.2072,3.4051,3.4892,3.1396,3.1395,3.1102,2.7636,2.7309,2.7744,2.7608,2.7888,2.811,2.8136,2.8696,2.8947,2.8947,2.9448,2.993,2.9893,2.9927,2.9068,2.6795,2.4281,2.0811,1.6254,1.5864,1.6076,1.6282,1.6083,1.6083,1.5877,1.5857,1.5645,1.544,1.544,1.536,1.5181,1.4798,1.4785,1.4745,1.4376,1.1643,0.6838,0.2156,-0.0,-0.0,-0.0,-0.0,-0.0,-0.0,-0.0,-0.0,-0.0,-0.0,-0.0,-0.0,-0.0,-0.0,-0.0,-0.0,-0.0785,-0.5006,-0.9251,-1.2434,-1.2515,-1.2284,-1.206,-1.2054,-1.1837,-1.1619,-1.1619,-1.1619,-1.1619,-1.1619,-1.4583,-1.7248,-1.7248,-2.0328,-2.2859,-2.2859,-2.2859,-2.2859,-2.2859,-2.2859,-2.2846,-2.2859,-2.2859,-2.4331,-2.7751,-2.8147,-2.9587,-3.3126,-3.3398,-3.3223,-3.2793,-3.2779,-3.2607,-3.2196,-3.2135,-3.217,-3.2286,-3.3747,-3.5222,-3.6767,-3.8166,-3.977,-4.1312,-4.1304,-4.1271,3.1244,3.2483,3.3879,3.4858,3.5451,3.5097,3.2901,3.1964,3.0794,2.8222,2.7529,2.7456,2.7096,2.742,2.7564,2.7564,2.8332,2.9131,2.9548,2.9832,2.9853,2.9658,2.9547,2.8493,2.5627,2.5375,2.3993,2.1019,1.9179,1.8352,1.8757,1.7106,1.6083,1.6083,1.6083,1.5877,1.5671,1.5683,1.5384,1.5368,1.497,1.4778,1.4771,1.4394,1.3413,1.146,0.3404,-0.0,-0.0,-0.0,-0.0,-0.0,-0.0,-0.0,-0.0,-0.0,-0.0,-0.0,-0.0,-0.0,-0.0,-0.0,-0.0,-0.0801,-0.5038,-0.9154,-1.2561,-1.2549,-1.2366,-1.2189,-1.2088,-1.1911,-1.1735,-1.164,-1.1619,-1.1619,-1.1619,-1.4583,-1.7248,-1.7248,-2.0328,-2.2859,-2.2859,-2.2859,-2.2859,-2.2859,-2.2859,-2.2859,-2.2859,-2.2859,-2.4331,-2.7768,-2.8163,-2.9605,-3.3146,-3.3418,-3.3359,-3.3223,-3.3184,-3.3191,-3.3015,-3.2695,-3.2578,-3.2578,-3.4083,-3.525,-3.5776,-3.7199,-3.8745,-4.0256,-3.9904,-4.055,3.3141,3.4379,3.5749,3.7047,3.7334,3.6846,3.514,3.3515,3.1806,2.9677,2.8136,2.7122,2.6852,2.6892,2.6853,2.6981,2.7735,2.8644,2.9409,2.9515,2.9442,2.9644,2.9561,2.871,2.6812,2.6431,2.518,2.1877,2.035,1.9159,1.8543,1.6907,1.6083,1.6083,1.6083,1.6083,1.5877,1.5684,1.5375,1.5174,1.4801,1.4689,1.4483,1.4306,1.4299,1.3938,0.5909,0.1616,-0.0,-0.0,-0.0,-0.0,-0.0,-0.0,-0.0,-0.0,-0.0,-0.0,-0.0,-0.0,-0.0,-0.0,-0.0,-0.0802,-0.5101,-0.9228,-1.2554,-1.2549,-1.2433,-1.2338,-1.2244,-1.1993,-1.188,-1.164,-1.1619,-1.1907,-1.2466,-1.5,-1.7388,-1.8089,-2.0756,-2.2899,-2.3006,-2.3033,-2.2993,-2.2886,-2.2859,-2.2859,-2.2859,-2.2859,-2.406,-2.6972,-2.7238,-2.8689,-3.2218,-3.2492,-3.2765,-3.3418,-3.3583,-3.3603,-3.3603,-3.3418,-3.3253,-3.3253,-3.4286,-3.4972,-3.5452,-3.672,-3.806,-3.9453,-3.967,-4.0522,3.4431,3.5853,3.7197,3.833,3.9542,3.9929,3.7696,3.5825,3.4087,3.1806,2.8892,2.6665,2.6716,2.6379,2.6099,2.6298,2.6996,2.7737,2.8934,2.8885,2.8976,2.9913,2.9699,2.9606,2.9859,2.7735,2.4178,1.9348,1.9285,1.8544,1.646,1.6083,1.6083,1.6083,1.6083,1.6083,1.5877,1.5684,1.5375,1.4792,1.4765,1.4651,1.4299,1.4299,1.4299,1.3945,0.9156,0.4314,-0.0,-0.0,-0.0,-0.0,-0.0,-0.0,-0.0,-0.0,-0.0,-0.0,-0.0,-0.0,-0.0,-0.0,-0.0314,-0.142,-0.5497,-0.9472,-1.2474,-1.269,-1.2501,-1.234,-1.234,-1.2237,-1.2107,-1.1798,-1.1791,-1.2352,-1.403,-1.5867,-1.7851,-1.982,-2.1634,-2.2993,-2.3273,-2.3327,-2.322,-2.2913,-2.2859,-2.2859,-2.2859,-2.2859,-2.3529,-2.5248,-2.5517,-2.6956,-3.0513,-3.0771,-3.1561,-3.3292,-3.3788,-3.41,-3.412,-3.4179,-3.4179,-3.412,-3.412,-3.4659,-3.5783,-3.6582,-3.7635,-3.8803,-4.0317,-4.1047,3.6248,3.782,3.9229,3.9893,4.053,3.9949,3.6146,3.4789,3.3564,3.0585,2.7564,2.5689,2.6372,2.6067,2.5707,2.6088,2.7769,2.9165,2.992,3.0165,3.0267,3.0227,3.0452,3.041,3.0267,2.8088,2.5487,2.2397,2.0609,2.0254,2.1849,1.8344,1.6282,1.6083,1.6083,1.6083,1.5877,1.5677,1.5375,1.4986,1.474,1.4634,1.4659,1.4306,1.4299,1.3945,0.9156,0.4314,-0.0,-0.0,-0.0,-0.0,-0.0,-0.0,-0.0,-0.0,-0.0,-0.0,-0.0,-0.0,-0.0,-0.0,-0.4562,-0.9646,-0.7303,-0.9562,-1.2664,-1.2651,-1.2501,-1.2501,-1.234,-1.2233,-1.2223,-1.1999,-1.2045,-1.2568,-1.4541,-1.6346,-1.831,-2.0329,-2.2228,-2.3487,-2.3354,-2.3327,-2.322,-2.2913,-2.2859,-2.2859,-2.2859,-2.2859,-2.3529,-2.5248,-2.5517,-2.6956,-3.0513,-3.0771,-3.1726,-3.3788,-3.408,-3.4266,-3.4472,-3.4517,-3.4576,-3.4492,-3.4599,-3.4735,-3.5006,-3.526,-3.6038,-3.7534,-3.7916,-3.9444,3.8081,3.9272,4.0266,4.0646,4.0977,4.0356,3.733,3.5237,3.3225,3.1644,2.772,2.4929,2.5876,2.5453,2.5048,2.5551,2.7351,2.9074,3.001,3.0421,3.0779,3.0966,3.1294,3.0929,2.9492,2.8303,2.6543,2.3891,2.1136,1.9825,2.0443,1.768,1.6083,1.6083,1.6083,1.6076,1.5671,1.5486,1.5187,1.4986,1.4841,1.4557,1.4483,1.4299,1.4299,1.3945,0.9156,0.4314,-0.0,-0.0,-0.0,-0.0,-0.0,-0.0,-0.0,-0.0,-0.0,-0.0,-0.0,-0.0,-0.0,-0.0,-0.601,-1.2923,-1.0217,-1.1038,-1.2814,-1.2684,-1.2656,-1.2501,-1.2347,-1.2347,-1.23,-1.2291,-1.2216,-1.2749,-1.458,-1.6471,-1.8799,-2.1558,-2.3132,-2.3861,-2.3567,-2.3634,-2.3607,-2.33,-2.3153,-2.3073,-2.3073,-2.2953,-2.3256,-2.4181,-2.4317,-2.5831,-2.9567,-2.9778,-3.1024,-3.4182,-3.4405,-3.4599,-3.4972,-3.4945,-3.5027,-3.4949,-3.506,-3.4887,-3.4755,-3.5059,-3.5613,-3.6386,-3.7109,-3.8845,3.9619,4.0206,4.0656,4.117,4.1172,4.0744,3.9099,3.5846,3.3161,3.2846,2.7896,2.4079,2.5344,2.4776,2.436,2.5161,2.6598,2.8289,2.9797,3.038,3.0864,3.166,3.1988,3.105,2.8403,2.8387,2.727,2.4048,2.1253,1.8805,1.6815,1.6361,1.6083,1.6083,1.6083,1.6042,1.5559,1.5445,1.5181,1.4792,1.4719,1.4604,1.4299,1.4299,1.4299,1.3945,0.9156,0.4314,-0.0,-0.0,-0.0,-0.0,-0.0,-0.0,-0.0,-0.0,-0.0,-0.0,-0.0,-0.0,-0.0,-0.0,-0.523,-1.1855,-1.2759,-1.2999,-1.2833,-1.2807,-1.2663,-1.2501,-1.2501,-1.2501,-1.2501,-1.2347,-1.234,-1.2776,-1.4646,-1.6852,-1.949,-2.3158,-2.4088,-2.4168,-2.3875,-2.4035,-2.4102,-2.3808,-2.3514,-2.3327,-2.3327,-2.306,-2.2859,-2.2859,-2.2859,-2.4445,-2.839,-2.8442,-3.0091,-3.4556,-3.4832,-3.5006,-3.5483,-3.5426,-3.5491,-3.5491,-3.5491,-3.5297,-3.4929,-3.5665,-3.584,-3.5646,-3.6953,-3.8603,4.0196,4.0715,4.117,4.1152,4.1172,4.0317,3.6737,3.4234,3.2025,2.9691,2.5669,2.3082,2.4561,2.4037,2.4046,2.5527,2.7172,2.8691,3.0428,3.1028,3.1587,3.209,3.2485,3.1693,2.906,2.8974,2.6873,2.2059,2.0952,2.0176,1.9589,1.7377,1.6282,1.6083,1.6083,1.5845,1.554,1.5626,1.5375,1.5174,1.4874,1.4764,1.4666,1.4483,1.4299,1.3945,0.9156,0.4314,-0.0,-0.0,-0.0,-0.0,-0.0,-0.0,-0.0,-0.0,-0.0,-0.0,-0.0,-0.0,-0.0,-0.0,-0.1011,-0.3701,-1.1053,-1.3057,-1.28,-1.2852,-1.2663,-1.2501,-1.2501,-1.2501,-1.2501,-1.2663,-1.2501,-1.2972,-1.5179,-1.8491,-2.1614,-2.4009,-2.4529,-2.4476,-2.4182,-2.4168,-2.4102,-2.3808,-2.3514,-2.3327,-2.3327,-2.306,-2.2859,-2.2859,-2.2859,-2.4445,-2.839,-2.8675,-3.0522,-3.5027,-3.534,-3.5508,-3.5894,-3.5879,-3.586,-3.586,-3.586,-3.584,-3.5821,-3.586,-3.6191,-3.6405,-3.6757,-3.7854,3.9472,4.0221,4.0958,3.9736,4.0142,3.9504,3.421,3.2361,3.084,2.798,2.4573,2.2451,2.3777,2.3537,2.3529,2.4684,2.6234,2.7883,2.9637,3.0447,3.1435,3.2164,3.2695,3.1462,2.737,2.8231,2.6358,1.9557,2.0101,2.015,1.839,1.7106,1.6282,1.6076,1.5877,1.5736,1.5455,1.5343,1.5181,1.4986,1.4705,1.4597,1.4483,1.4299,1.4299,1.3945,0.9156,0.4314,-0.0,-0.0,-0.0,-0.0,-0.0,-0.0,-0.0,-0.0,-0.0,-0.0,-0.0,-0.0,-0.0,-0.0,-0.1516,-0.4212,-0.8575,-1.1406,-1.3068,-1.3071,-1.2824,-1.2817,-1.2817,-1.2817,-1.2817,-1.2824,-1.2817,-1.3619,-1.6698,-1.8825,-2.1061,-2.4018,-2.4636,-2.4596,-2.4449,-2.4422,-2.4382,-2.4249,-2.3968,-2.3781,-2.3781,-2.3527,-2.322,-2.2899,-2.314,-2.447,-2.7473,-2.7657,-2.9496,-3.3973,-3.4089,-3.4509,-3.5996,-3.6016,-3.6016,-3.6016,-3.6016,-3.6016,-3.6016,-3.621,-3.6405,-3.6757,-3.6934,-3.7924,3.8981,3.9523,4.0123,3.8309,3.8467,3.7765,3.2187,3.0462,2.9324,2.651,2.3583,2.1837,2.299,2.2897,2.293,2.3714,2.5114,2.6752,2.8565,2.9638,3.092,3.2261,3.2802,3.1014,2.5711,2.7666,2.6203,1.8488,1.9752,1.9783,1.6717,1.6357,1.6282,1.5877,1.575,1.5683,1.548,1.5227,1.5181,1.4792,1.4673,1.4564,1.4306,1.4299,1.4299,1.4122,1.0243,0.5393,-0.0,-0.0,-0.0,-0.0,-0.0,-0.0,-0.0,-0.0,-0.0,-0.0,-0.0,-0.0,-0.0,-0.0,-0.3709,-0.8109,-0.8093,-1.0581,-1.313,-1.2992,-1.3019,-1.3019,-1.3019,-1.3019,-1.2855,-1.2855,-1.3019,-1.4155,-1.7946,-1.8855,-2.0025,-2.3857,-2.4636,-2.4636,-2.4636,-2.4636,-2.4636,-2.4636,-2.4396,-2.4209,-2.4209,-2.4008,-2.3661,-2.3113,-2.3487,-2.462,-2.6593,-2.6608,-2.8456,-3.2965,-3.2784,-3.3694,-3.586,-3.6016,-3.6016,-3.6016,-3.6055,-3.6191,-3.6191,-3.6581,-3.6935,-3.6976,-3.7344,-3.8166,4.0918,3.9542,3.8117,3.7924,3.6327,3.4016,3.1098,2.9005,2.7035,2.4447,2.2413,2.1262,2.1683,2.1778,2.2285,2.3902,2.453,2.5684,2.8253,2.9298,3.0432,3.2028,3.2549,3.0858,2.5629,2.7784,2.6902,2.1255,2.0878,1.9781,1.6472,1.6374,1.6282,1.6083,1.5945,1.5849,1.5653,1.5403,1.5375,1.5174,1.4826,1.4722,1.4666,1.4483,1.4299,1.4306,1.3898,0.8469,-0.0,-0.0,-0.0,-0.0,-0.0,-0.0,-0.0,-0.0,-0.0,-0.0,-0.0,-0.0,-0.0,-0.0,-0.5738,-1.2726,-1.2772,-1.2899,-1.3052,-1.3164,-1.2979,-1.2808,-1.2979,-1.2808,-1.2636,-1.2643,-1.2979,-1.4167,-1.7964,-1.8817,-1.9933,-2.3819,-2.4636,-2.4636,-2.4636,-2.4636,-2.4636,-2.4636,-2.4396,-2.4209,-2.4209,-2.4182,-2.4035,-2.3714,-2.3741,-2.4703,-2.6766,-2.6914,-2.8694,-3.2985,-3.3128,-3.404,-3.586,-3.6016,-3.6016,-3.6016,-3.6405,-3.6581,-3.6581,-3.7109,-3.7391,-3.7769,-3.7885,-3.7982,3.8919,3.9411,3.9243,3.6644,3.5703,3.4009,2.8167,2.6869,2.5961,2.2708,2.1543,2.1109,2.1249,2.1262,2.1683,2.2694,2.3148,2.4066,2.6471,2.733,2.8594,3.0734,3.1594,2.9984,2.5481,2.6182,2.4497,1.9072,1.8522,1.7846,1.6545,1.6408,1.6289,1.6076,1.5845,1.5554,1.557,1.5375,1.5181,1.4979,1.4752,1.4645,1.4483,1.4299,1.2704,1.0049,1.3016,0.8832,-0.0,-0.0,-0.0,-0.0,-0.0,-0.0,-0.0,-0.0,-0.0,-0.0,-0.0,-0.0,-0.0842,-0.6246,-0.8627,-0.9805,-1.2586,-1.3397,-1.3231,-1.3231,-1.3231,-1.315,-1.3283,-1.3186,-1.3116,-1.3144,-1.3231,-1.4088,-1.6676,-1.8348,-1.99,-2.2485,-2.3979,-2.4811,-2.4636,-2.4636,-2.4636,-2.4636,-2.4543,-2.4462,-2.4462,-2.4462,-2.4422,-2.4302,-2.4289,-2.4553,-2.5324,-2.5408,-2.7346,-3.1588,-3.1837,-3.3303,-3.664,-3.6757,-3.6757,-3.6757,-3.6953,-3.7075,-3.7016,-3.7397,-3.7728,-3.7962,-3.8185,-3.835,3.7819,3.8444,3.8603,3.5477,3.4117,3.2027,2.6026,2.5026,2.4619,2.1683,2.1109,2.1109,2.1109,2.1109,2.1249,2.1823,2.223,2.3001,2.498,2.5844,2.7056,2.9554,3.0255,2.9267,2.5861,2.5326,2.2907,1.7291,1.7626,1.7552,1.6513,1.6515,1.6289,1.5877,1.5671,1.5589,1.5382,1.5187,1.4993,1.4792,1.4812,1.4517,1.4299,1.4299,1.2005,0.7926,0.9379,0.6296,-0.0,-0.0,-0.0,-0.0,-0.0,-0.0,-0.0,-0.0,-0.0,-0.0,-0.0,-0.0,-0.1516,-1.0504,-1.1339,-0.9421,-1.2407,-1.3403,-1.3403,-1.3403,-1.3403,-1.3308,-1.3366,-1.3418,-1.3366,-1.3302,-1.3397,-1.3915,-1.5806,-1.7845,-1.9885,-2.1499,-2.354,-2.5012,-2.4796,-2.4716,-2.4703,-2.4877,-2.4743,-2.4676,-2.4756,-2.469,-2.4676,-2.4756,-2.477,-2.469,-2.4476,-2.473,-2.6333,-2.9976,-3.0239,-3.2151,-3.6263,-3.6402,-3.6619,-3.7332,-3.7351,-3.7543,-3.7429,-3.7962,-3.8166,-3.8166,-3.8389,-3.8574,3.8434,3.664,3.4819,3.4764,3.0771,2.6457,2.5003,2.3911,2.2849,2.1402,2.1109,2.1109,2.1109,2.1109,2.1249,2.1543,2.2084,2.2873,2.4436,2.5397,2.6514,2.8103,2.8739,2.8476,2.7103,2.5985,2.2888,1.7188,1.9369,1.9505,1.6529,1.6289,1.6083,1.5877,1.5671,1.5589,1.5382,1.5187,1.5181,1.4979,1.4778,1.4666,1.4483,1.4299,1.255,0.9195,0.2874,0.018,-0.0,-0.0,-0.0,-0.0,-0.0,-0.0,-0.0,-0.0,-0.0,-0.0,-0.0,-0.0,-0.1516,-1.0504,-1.3519,-1.3742,-1.3403,-1.3403,-1.3403,-1.3403,-1.3403,-1.3397,-1.3052,-1.3217,-1.339,-1.3231,-1.3231,-1.3915,-1.5632,-1.7539,-1.9463,-2.1249,-2.3541,-2.5107,-2.5144,-2.5066,-2.5175,-2.5424,-2.501,-2.4743,-2.5037,-2.4823,-2.4743,-2.5037,-2.5077,-2.5077,-2.5077,-2.531,-2.6333,-2.8221,-2.8496,-3.0098,-3.4031,-3.4195,-3.5139,-3.7207,-3.774,-3.7943,-3.7962,-3.837,-3.8574,-3.8574,-3.8574,-3.8574,3.6152,3.6246,3.5425,3.2398,3.0271,2.8021,2.4232,2.3037,2.2421,2.137,2.1109,2.1109,2.1109,2.1109,2.1344,2.2014,2.2354,2.2859,2.4106,2.5041,2.6298,2.7934,2.6686,2.6353,2.7758,2.2697,1.9376,1.9158,1.8298,1.7322,1.6295,1.6282,1.6083,1.6083,1.5683,1.5568,1.557,1.5375,1.5181,1.4979,1.4951,1.4843,1.4483,1.4299,1.2005,0.7922,0.913,0.6079,-0.0,-0.0,-0.0,-0.0,-0.0,-0.0,-0.0,-0.0,-0.0,-0.0,-0.0,-0.2096,-0.5061,-0.7945,-1.0942,-1.3478,-1.3363,-1.3552,-1.3576,-1.3569,-1.3403,-1.3403,-1.3231,-1.3397,-1.3403,-1.3397,-1.3397,-1.3569,-1.4088,-1.5934,-1.7419,-1.7854,-2.0911,-2.3416,-2.3259,-2.447,-2.5451,-2.5504,-2.5358,-2.5264,-2.5371,-2.5291,-2.5277,-2.5371,-2.5558,-2.5598,-2.5398,-2.5456,-2.6446,-2.8716,-2.8877,-3.0022,-3.2967,-3.4373,-3.534,-3.607,-3.7594,-3.837,-3.837,-3.8555,-3.8574,-3.8574,-3.8574,-3.8574,3.3913,3.4811,3.4643,3.1908,3.0361,2.8435,2.4703,2.3468,2.2807,2.1397,2.1109,2.1109,2.1109,2.1109,2.1305,2.1823,2.2147,2.2696,2.3923,2.4795,2.6074,2.7974,2.7263,2.6487,2.6253,2.2341,1.9394,1.8968,1.7329,1.6289,1.6282,1.6083,1.6083,1.6083,1.5716,1.5609,1.5382,1.5375,1.5181,1.4986,1.4998,1.4819,1.4437,1.4401,1.2704,0.9866,0.9121,0.6621,0.0,0.0718,-0.0,-0.0,-0.0,-0.0,-0.0,-0.0,-0.0,-0.0,-0.0,-0.1766,-0.4827,-0.8327,-1.1288,-1.3471,-1.3673,-1.368,-1.3688,-1.3464,-1.3403,-1.3403,-1.3403,-1.3403,-1.3403,-1.3403,-1.3403,-1.3403,-1.3397,-1.4954,-1.6388,-1.6242,-1.9646,-2.2614,-2.2461,-2.4252,-2.5803,-2.5865,-2.5651,-2.5558,-2.5665,-2.5585,-2.5558,-2.5665,-2.5852,-2.5932,-2.5852,-2.5838,-2.6384,-2.796,-2.799,-2.8935,-3.1163,-3.3296,-3.4776,-3.5522,-3.7594,-3.8574,-3.8574,-3.8574,-3.8574,-3.8574,-3.8574,-3.8574,0.0,3.2552,3.2673,3.2503,3.048,2.7908,2.5651,2.4671,0.0,2.147,2.1109,2.1109,2.1109,2.1109,2.1122,2.1176,2.166,2.2369,2.3572,2.4701,2.6026,2.8038,2.9267,2.8156,2.3521,2.3651,2.1835,1.6871,1.6488,1.6282,1.6083,1.6083,1.6076,1.5877,1.5632,1.5542,1.5187,1.5181,1.5181,1.4986,1.4798,1.4584,1.4525,1.4363,1.4299,1.3761,0.4829,0.3052,0.6296,0.1795,-0.0,-0.0,-0.0,-0.0,-0.0,-0.0,-0.0,-0.0,-0.0,-0.0,-0.1428,-0.9997,-1.3237,-1.3804,-1.4152,-1.3831,-1.3397,-1.3385,-1.3403,-1.3403,-1.3403,-1.3403,-1.3403,-1.3403,-1.3403,-1.3397,-1.3231,-1.4607,-1.598,-1.5806,-1.9298,-2.2288,-2.2464,-2.4269,-2.5859,-2.6386,-2.5919,-2.5678,-2.5959,-2.5745,-2.5678,-2.5959,-2.5985,-2.6092,-2.6373,-2.6386,-2.6386,-2.6386,-2.6386,-2.7286,-2.9108,-3.1148,-3.3171,-3.5358,-3.7575,-3.8594,-3.8594,-3.8574,-3.8574,-3.8594,-3.8574,-3.8574,2.9669,0.0,3.0917,2.9386,2.7895,2.6407,0.0,2.3107,2.2052,2.1303,2.1109,2.1109,2.1109,2.1109,2.1296,2.1753,2.2071,2.2656,2.3694,2.5762,2.7567,2.8744,2.6748,2.5441,2.5959,2.1291,1.841,1.8956,1.7312,1.6083,1.5877,1.5877,1.5877,1.5671,1.5435,1.533,1.5375,1.5181,1.5181,1.4986,1.4986,1.4758,1.4502,1.4544,1.4483,1.4122,1.1971,0.7331,0.1616,0.0539,-0.0,-0.0,-0.0,-0.0,-0.0,-0.0,-0.0,-0.0,-0.0,-0.0,-0.0359,-0.2486,-0.7937,-1.3733,-1.4089,-1.3865,-1.3755,-1.3784,-1.3576,-1.3569,-1.3403,-1.3403,-1.3403,-1.3403,-1.3403,-1.3403,-1.3397,-1.3742,-1.4088,-1.4081,-1.6154,-1.8585,-2.022,-2.2337,-2.4427,-2.6201,-2.6266,-2.6213,-2.6279,-2.6226,-2.6213,-2.6279,-2.6293,-2.6319,-2.6386,-2.6386,-2.6386,-2.6386,-2.6386,-2.6571,-2.71,-2.9093,-3.1288,-3.3687,-3.7226,-3.9129,-3.9129,-3.8759,-3.8759,-3.8983,-3.8759,-3.8574,2.7592,2.9043,3.0285,2.9179,2.8009,2.6712,2.4955,2.336,2.209,2.1061,2.1015,2.1109,2.1109,2.1216,2.1443,2.1726,2.2432,2.3346,2.4843,2.6558,2.7622,2.7509,2.6087,2.4619,2.3565,2.0072,1.7909,1.7909,1.6558,1.5791,1.5857,1.5671,1.575,1.5475,1.5357,1.5375,1.5375,1.5181,1.4993,1.4986,1.4903,1.4611,1.4483,1.4483,1.4299,1.4299,1.4299,1.1433,0.6258,0.1793,-0.0,-0.0,-0.0,-0.0,-0.0,-0.0,-0.0,-0.0,-0.0,-0.0,-0.0,-0.0,-0.6276,-1.3483,-1.2384,-1.2867,-1.3988,-1.3817,-1.3789,-1.3742,-1.3569,-1.3569,-1.3569,-1.3569,-1.3569,-1.3569,-1.3569,-1.3569,-1.3569,-1.3403,-1.5285,-1.7104,-1.8188,-2.0996,-2.355,-2.4781,-2.5687,-2.6386,-2.6386,-2.6386,-2.6386,-2.6386,-2.6386,-2.6386,-2.6386,-2.6386,-2.6386,-2.6386,-2.6386,-2.6386,-2.6386,-2.8375,-3.1028,-3.4521,-3.7811,-3.9539,-3.9539,-3.9355,-3.9336,-3.9539,-3.9129,-3.8964,2.5793,2.7584,2.9427,2.9354,2.8217,2.6871,2.5476,2.382,2.2277,2.0848,2.0842,2.1042,2.1042,2.1363,2.1617,2.1617,2.2699,2.4188,2.6192,2.6905,2.6834,2.5739,2.5479,2.3872,1.9697,1.9162,1.8183,1.5808,1.554,1.5602,1.5513,1.5539,1.5509,1.5389,1.5375,1.5375,1.5181,1.4993,1.4946,1.4852,1.4723,1.4483,1.4483,1.4299,1.4299,1.4299,1.4299,1.4299,1.3584,0.5552,0.1257,-0.0,-0.0,-0.0,-0.0,-0.0,-0.0,-0.0,-0.0,-0.0,-0.0,-0.0,-0.5214,-1.1384,-0.9922,-1.1671,-1.4299,-1.3938,-1.3933,-1.3881,-1.3707,-1.3638,-1.3576,-1.3576,-1.3645,-1.3707,-1.3707,-1.3638,-1.377,-1.3519,-1.5021,-1.6502,-1.6676,-2.0089,-2.2817,-2.3052,-2.4977,-2.64,-2.64,-2.6386,-2.6386,-2.6386,-2.64,-2.64,-2.64,-2.6558,-2.6558,-2.6558,-2.64,-2.6386,-2.64,-2.8547,-3.137,-3.5176,-3.8122,-3.9544,-3.9544,-3.9816,-3.9988,-3.9957,-3.9544,-3.9592,2.4478,2.5141,2.5605,2.548,2.4614,2.3715,2.3211,2.1838,2.0537,2.0294,2.0535,2.0735,2.0735,2.139,2.1924,2.1924,2.334,2.493,2.6477,2.5715,2.4944,2.5045,2.2212,1.9816,1.8989,1.7342,1.6102,1.5493,1.5499,1.5612,1.5506,1.5513,1.5471,1.5382,1.5375,1.5181,1.4986,1.4986,1.493,1.462,1.4524,1.4483,1.4299,1.4299,1.4299,1.4299,1.4299,1.4299,1.4129,1.28,0.738,-0.0,-0.0,-0.0,-0.0,-0.0,-0.0,-0.0,-0.0,-0.0,-0.0,-0.0,-0.0898,-0.3053,-0.7926,-1.1671,-1.4299,-1.4299,-1.4055,-1.3981,-1.3624,-1.3613,-1.3742,-1.3576,-1.3619,-1.3799,-1.3799,-1.3763,-1.3727,-1.3707,-1.4096,-1.4773,-1.6502,-1.9221,-2.1622,-2.3305,-2.5319,-2.6743,-2.6743,-2.6558,-2.6386,-2.6386,-2.6571,-2.6743,-2.6743,-2.6942,-2.7114,-2.7114,-2.6743,-2.6558,-2.6743,-2.9295,-3.0978,-3.1199,-3.5502,-3.773,-3.773,-3.9198,-4.0027,-4.0376,-3.9952,-3.979,2.2567,2.229,2.1933,2.1925,2.2513,2.3047,2.2916,2.159,2.0468,2.0468,2.0708,2.1002,2.1323,2.2111,2.3073,2.4182,2.383,2.3847,2.5076,2.3419,2.1705,2.0965,1.9527,1.8051,1.6895,1.596,1.5499,1.5316,1.5423,1.5375,1.5375,1.5375,1.5375,1.5375,1.5181,1.4993,1.4798,1.4862,1.475,1.4483,1.4483,1.4299,1.4299,1.4299,1.4299,1.4122,1.1465,1.1855,1.4236,1.4303,0.8648,-0.0,-0.0,-0.0,-0.0,-0.0,-0.0,-0.0,-0.0,-0.0,-0.0,-0.0,-0.0,-0.0539,-0.3414,-0.7163,-1.0895,-1.3584,-1.4299,-1.4122,-1.3938,-1.3966,-1.4027,-1.3851,-1.3921,-1.3938,-1.3938,-1.4082,-1.3973,-1.3879,-1.3894,-1.4242,-1.513,-1.7121,-1.9425,-2.173,-2.3856,-2.5638,-2.6838,-2.6928,-2.6928,-2.6928,-2.6942,-2.7013,-2.7091,-2.7158,-2.7321,-2.7321,-2.7094,-2.6867,-2.7118,-2.9578,-3.0855,-3.0691,-3.5175,-3.7632,-3.7696,-3.9698,-4.0744,-4.0938,-4.0356,-4.0337,2.0885,2.021,1.9585,1.9859,2.1162,2.2297,2.2556,2.1568,2.0711,2.0848,2.1175,2.1475,2.1937,2.2862,2.3958,2.5242,2.3915,2.2924,2.3155,2.095,1.9043,1.778,1.7413,1.6583,1.5087,1.512,1.5201,1.5086,1.5113,1.5147,1.5181,1.5181,1.5181,1.5181,1.5181,1.4986,1.4792,1.4597,1.4659,1.4483,1.4299,1.4299,1.4299,1.4299,1.4319,1.4169,1.0436,0.9559,1.1014,1.1014,0.6659,-0.0,-0.0,-0.0,-0.0,-0.0,-0.0,-0.0,-0.0,-0.0,-0.0,-0.0,-0.0,-0.0,-0.0,-0.3404,-0.8052,-1.2887,-1.4319,-1.4312,-1.4122,-1.4122,-1.4187,-1.4062,-1.4115,-1.4122,-1.4122,-1.4299,-1.4299,-1.3938,-1.4115,-1.4115,-1.3932,-1.5699,-1.8051,-2.0377,-2.2457,-2.4818,-2.7095,-2.7336,-2.7336,-2.7336,-2.735,-2.7351,-2.7486,-2.7551,-2.7551,-2.7551,-2.7485,-2.7554,-2.7343,-2.9284,-3.0268,-3.0268,-3.4815,-3.7145,-3.712,-3.991,-4.1172,-4.1172,-4.0763,-4.0938,1.9788,1.9849,1.9883,2.0144,2.0119,2.0177,2.0754,2.0794,2.0821,2.1376,2.1947,2.2262,2.2033,2.312,2.3807,2.2912,2.3341,2.3075,2.1615,1.9425,1.8151,1.8017,1.6242,1.4922,1.4753,1.4774,1.4787,1.4774,1.4903,1.5038,1.4979,1.5181,1.5181,1.5181,1.4993,1.4986,1.4792,1.4597,1.4483,1.4299,1.4299,1.4299,1.4299,1.4299,1.4373,1.4309,1.3951,0.9011,0.1077,0.1077,0.0539,-0.0,-0.0,-0.0,-0.0,-0.0,-0.0,-0.0,-0.0,-0.0,-0.0,-0.0,-0.0,-0.0,-0.0,-0.3412,-0.8094,-1.2949,-1.438,-1.4353,-1.4129,-1.4102,-1.4272,-1.4115,-1.4122,-1.4299,-1.4299,-1.4299,-1.4299,-1.4299,-1.4299,-1.4299,-1.4115,-1.6095,-1.8461,-2.0705,-2.2783,-2.5083,-2.7446,-2.7446,-2.7252,-2.7252,-2.7446,-2.7848,-2.8123,-2.8136,-2.8136,-2.8136,-2.807,-2.8043,-2.7746,-2.8136,-2.8332,-2.8332,-3.2631,-3.4916,-3.4968,-3.9118,-4.1172,-4.1172,-4.1172,-4.1172,1.9207,1.9407,1.9631,1.9891,1.9969,2.024,2.1095,2.1519,2.1869,2.238,2.2911,2.3392,2.3592,2.4724,2.5079,2.3257,2.2572,2.1402,1.9433,1.7112,1.5779,1.5779,1.504,1.4597,1.4597,1.4685,1.474,1.474,1.4794,1.4745,1.4785,1.4798,1.4798,1.4798,1.4798,1.4812,1.4638,1.4592,1.4483,1.4299,1.4299,1.4299,1.4122,1.1109,1.1525,1.3957,0.7926,0.3414,-0.0,-0.0,-0.0,-0.0,-0.0,-0.0,-0.0,-0.0,-0.0,-0.0,-0.0,-0.0,-0.0,-0.0,-0.0,-0.0,-0.0,-0.1256,-0.3762,-0.8417,-1.2011,-1.4346,-1.4306,-1.4299,-1.4299,-1.4299,-1.4299,-1.4299,-1.4299,-1.4299,-1.4299,-1.4299,-1.4299,-1.4299,-1.4299,-1.5027,-1.6816,-2.0521,-2.1755,-2.3641,-2.7564,-2.7941,-2.7928,-2.7928,-2.7941,-2.8123,-2.8136,-2.8136,-2.8136,-2.8136,-2.8136,-2.8136,-2.7954,-2.8136,-2.8136,-2.8136,-3.2417,-3.4719,-3.4761,-3.9099,-4.1172,-4.1172,-4.1172,-4.1172,1.8971,1.91,1.9452,1.9681,1.9902,2.0522,2.146,2.2153,2.273,2.3327,2.3811,2.4378,2.4853,2.5586,2.5345,2.2665,2.1698,2.0181,1.7055,1.5323,1.4299,1.4299,1.4387,1.4441,1.4441,1.4536,1.4597,1.4597,1.4652,1.4564,1.4705,1.4692,1.4712,1.4718,1.4711,1.4524,1.4489,1.4483,1.4306,1.4299,1.4299,1.4299,1.4122,0.9335,0.8106,0.9379,0.2874,-0.0,-0.0,-0.0,-0.0,-0.0,-0.0,-0.0,-0.0,-0.0,-0.0,-0.0,-0.0,-0.0,-0.0,-0.0,-0.0,-0.0,-0.0,-0.0,-0.1074,-0.5725,-1.057,-1.436,-1.4326,-1.4306,-1.4299,-1.4299,-1.4299,-1.4299,-1.4299,-1.4299,-1.4299,-1.4299,-1.4299,-1.4299,-1.4299,-1.4299,-1.5873,-2.0568,-2.12,-2.2987,-2.7577,-2.8136,-2.8136,-2.8136,-2.8136,-2.8136,-2.8136,-2.8136,-2.8136,-2.8136,-2.8136,-2.8136,-2.8136,-2.8136,-2.8136,-2.8136,-3.1821,-3.3948,-3.4761,-3.8328,-4.053,-4.1172,-4.1172,-4.1172,1.8971,1.91,1.9377,1.9399,1.9811,2.0482,2.17,2.2474,2.3279,2.4397,2.4806,2.5166,2.5527,2.5797,2.4535,2.0291,2.0366,1.9478,1.5027,1.4299,1.4299,1.4299,1.4299,1.4299,1.4299,1.4299,1.4299,1.4299,1.4468,1.4496,1.4496,1.4664,1.4711,1.4687,1.4483,1.4483,1.4483,1.4299,1.4299,1.4299,1.4299,1.4299,1.4122,0.9335,0.4493,-0.0,-0.0,-0.0,-0.0,-0.0,-0.0,-0.0,-0.0,-0.0,-0.0,-0.0,-0.0,-0.0,-0.0,-0.0,-0.0,-0.0,-0.0,-0.0,-0.0,-0.0,-0.0897,-0.5739,-1.0595,-1.4216,-1.436,-1.4326,-1.4299,-1.4299,-1.4299,-1.4299,-1.4299,-1.4299,-1.4299,-1.4299,-1.4299,-1.4299,-1.4299,-1.4299,-1.5888,-2.0482,-2.1201,-2.2824,-2.7604,-2.8136,-2.8136,-2.8136,-2.8136,-2.8136,-2.8136,-2.8136,-2.8136,-2.8136,-2.8136,-2.8136,-2.8136,-2.8136,-2.8136,-2.8136,-3.0268,-3.2546,-3.4623,-3.6911,-3.9099,-4.1172,-4.1172,-4.1172,1.8748,1.8842,1.9063,1.9391,2.0019,2.0746,2.1839,2.2445,2.3378,2.5213,2.5587,2.5737,2.6032,2.52,2.3512,2.0306,1.925,1.7789,1.4666,1.4299,1.4299,1.4299,1.4299,1.4299,1.4299,1.4299,1.4299,1.4299,1.4353,1.436,1.4306,1.4462,1.4482,1.4483,1.4306,1.4299,1.4299,1.4299,1.4299,1.4299,1.4299,1.4299,1.4122,0.9335,0.4493,-0.0,-0.0,-0.0,-0.0,-0.0,-0.0,-0.0,-0.0,-0.0,-0.0,-0.0,-0.0,-0.0,-0.0,-0.0,-0.0,-0.0,-0.0,-0.0,-0.0,-0.0,-0.0359,-0.179,-0.5544,-1.0026,-1.3445,-1.4326,-1.4299,-1.4299,-1.4299,-1.4299,-1.4299,-1.4299,-1.4299,-1.4299,-1.4299,-1.4299,-1.4299,-1.4299,-1.5873,-2.0568,-2.1211,-2.2911,-2.7617,-2.8136,-2.8136,-2.8136,-2.8136,-2.8136,-2.8136,-2.8136,-2.8136,-2.8136,-2.8136,-2.8136,-2.8136,-2.8136,-2.8136,-2.8136,-3.0268,-3.1766,-3.2428,-3.6043,-3.8291,-3.8925,-4.053,-4.1172,1.8712,1.8901,1.9166,1.9668,2.0424,2.1327,2.2443,2.3311,2.4378,2.5905,2.6312,2.639,2.6648,2.5168,2.3036,2.0627,1.8864,1.7049,1.4666,1.4299,1.4299,1.4299,1.4299,1.4299,1.4299,1.4299,1.4299,1.4299,1.4299,1.4299,1.4299,1.4299,1.4299,1.4299,1.4299,1.4299,1.4299,1.4299,1.4299,1.4299,1.4299,1.4299,1.4122,0.9335,0.4493,-0.0,-0.0,-0.0,-0.0,-0.0,-0.0,-0.0,-0.0,-0.0,-0.0,-0.0,-0.0,-0.0,-0.0,-0.0,-0.0,-0.0,-0.0,-0.0,-0.0,-0.0,-0.0718,-0.4659,-0.6442,-0.8222,-1.3084,-1.4326,-1.4299,-1.4299,-1.4299,-1.4299,-1.4299,-1.4299,-1.4299,-1.4299,-1.4299,-1.4299,-1.4299,-1.4992,-1.6896,-2.0702,-2.2772,-2.502,-2.7799,-2.8136,-2.8136,-2.8136,-2.8136,-2.8136,-2.8136,-2.8136,-2.8136,-2.8136,-2.8136,-2.8136,-2.8136,-2.8136,-2.8136,-2.8136,-2.9481,-3.0562,-3.1386,-3.4034,-3.6149,-3.7924,-3.9324,-4.0353,1.8816,1.9112,1.959,2.0086,2.1024,2.2136,2.3497,2.4699,2.5741,2.6479,2.6672,2.6671,2.6968,2.4927,2.2588,2.0862,1.8725,1.6687,1.4666,1.4299,1.4299,1.4299,1.4299,1.4299,1.4299,1.4299,1.4299,1.4299,1.4299,1.4299,1.4299,1.4299,1.4299,1.4299,1.4299,1.4299,1.4299,1.4299,1.4299,1.4299,1.4299,1.4299,1.4122,0.9688,0.485,-0.0,-0.0,-0.0,-0.0,-0.0,-0.0,-0.0,-0.0,-0.0,-0.0,-0.0,-0.0,-0.0,-0.0,-0.0,-0.0,-0.0,-0.0,-0.0,-0.0,-0.0,-0.1974,-1.1536,-1.1141,-0.8761,-1.3084,-1.4326,-1.4299,-1.4299,-1.4299,-1.4299,-1.4299,-1.4299,-1.4299,-1.4299,-1.4299,-1.4299,-1.4299,-1.6202,-1.8627,-2.1221,-2.5361,-2.8136,-2.8136,-2.8136,-2.8136,-2.8136,-2.8136,-2.8136,-2.8136,-2.8136,-2.8136,-2.8136,-2.8136,-2.8136,-2.8136,-2.8136,-2.8136,-2.8136,-2.8136,-2.9118,-3.1076,-3.1227,-3.3499,-3.7649,-3.7873,-3.904,1.8921,1.9139,1.9598,2.0388,2.1819,2.3196,2.4195,2.498,2.5604,2.6095,2.5155,2.4328,2.4783,2.161,1.8758,1.8444,1.6502,1.485,1.4299,1.4299,1.4299,1.4299,1.4299,1.4299,1.4299,1.4299,1.4299,1.4299,1.4299,1.4299,1.4299,1.4299,1.4299,1.4299,1.4299,1.4299,1.4299,1.4299,1.4299,1.4299,1.4299,1.4299,1.4299,1.3236,0.8048,-0.0,-0.0,-0.0,-0.0,-0.0,-0.0,-0.0,-0.0,-0.0,-0.0,-0.0,-0.0,-0.0,-0.0,-0.0,-0.0,-0.0,-0.0,-0.0,-0.0,-0.0,-0.1974,-1.1536,-1.3515,-1.2936,-1.3998,-1.4326,-1.4299,-1.4299,-1.4299,-1.4299,-1.4299,-1.4299,-1.4299,-1.4299,-1.4299,-1.4299,-1.4299,-1.6202,-1.9141,-2.3298,-2.6406,-2.8136,-2.8136,-2.8136,-2.8136,-2.8136,-2.8136,-2.8136,-2.8136,-2.8136,-2.8136,-2.8136,-2.8136,-2.8136,-2.8136,-2.8136,-2.8136,-2.8136,-2.8136,-2.8473,-2.8964,-3.0578,-3.2827,-3.5502,-3.7046,-3.904,1.8986,1.9435,2.0073,2.1643,2.2688,2.3806,2.4636,2.4272,2.397,2.4315,2.3915,2.3312,2.2378,1.9637,1.7454,1.7563,1.5764,1.4251,1.4277,1.4211,1.4299,1.4299,1.4299,1.4299,1.4299,1.4299,1.4299,1.4299,1.4299,1.4299,1.4299,1.4299,1.4299,1.4299,1.4299,1.4299,1.4299,1.4299,1.4299,1.4299,1.4299,1.4299,1.4299,1.1999,0.6806,-0.0,-0.0,-0.0,-0.0,-0.0,-0.0,-0.0,-0.0,-0.0,-0.0,-0.0,-0.0,-0.0,-0.0,-0.0,-0.0,-0.0,-0.0,-0.0,-0.0,-0.0,-0.1436,-0.8794,-1.2586,-1.4216,-1.434,-1.4312,-1.4299,-1.4299,-1.4299,-1.4299,-1.4299,-1.4299,-1.4299,-1.4299,-1.4299,-1.4299,-1.4299,-1.7071,-2.1048,-2.5714,-2.7448,-2.8136,-2.8136,-2.8136,-2.8136,-2.8136,-2.8136,-2.8136,-2.8136,-2.8136,-2.8136,-2.8136,-2.8136,-2.8136,-2.8136,-2.8136,-2.8136,-2.8136,-2.8136,-2.8136,-2.8136,-2.9286,-3.091,-3.3186,-3.5298,-3.7578,1.9176,1.9942,2.0916,2.2768,2.3585,2.3979,2.4797,2.3472,2.1948,2.1882,2.2088,2.1793,1.9881,1.8075,1.6864,1.6864,1.544,1.4109,1.4029,1.4228,1.4238,1.4108,1.4272,1.4258,1.4251,1.4278,1.4292,1.4265,1.4265,1.4272,1.4299,1.4299,1.4299,1.4299,1.4299,1.4299,1.4299,1.4299,1.4299,1.4299,1.4299,1.3945,1.2881,0.9706,0.5214,-0.0,-0.0,-0.0,-0.0,-0.0,-0.0,-0.0,-0.0,-0.0,-0.0,-0.0,-0.0,-0.0,-0.0,-0.0,-0.0,-0.0,-0.0,-0.0,-0.0,-0.1077,-0.3049,-0.6258,-1.057,-1.438,-1.4319,-1.4299,-1.4299,-1.4299,-1.4299,-1.4299,-1.4299,-1.4299,-1.4299,-1.4299,-1.4299,-1.4476,-1.4822,-1.8462,-2.26,-2.6927,-2.7968,-2.8136,-2.8136,-2.8136,-2.8136,-2.8136,-2.8136,-2.8136,-2.8136,-2.8136,-2.8136,-2.8136,-2.8136,-2.8136,-2.8136,-2.8136,-2.8136,-2.8136,-2.8136,-2.8136,-2.8136,-2.8136,-2.9286,-3.1392,-3.3676,-3.5782,1.9219,2.0393,2.1603,2.2669,2.343,2.3819,2.4301,2.3138,2.1394,1.9584,1.8222,1.7308,1.7061,1.537,1.4209,1.4216,1.402,1.394,1.3899,1.3824,1.4,1.4088,1.4177,1.4089,1.4048,1.4197,1.4245,1.4116,1.4102,1.4156,1.4292,1.4122,1.4122,1.4299,1.4299,1.4299,1.4299,1.4299,1.4299,1.4299,1.4299,1.2177,0.8269,1.1743,0.8469,-0.0,-0.0,-0.0,-0.0,-0.0,-0.0,-0.0,-0.0,-0.0,-0.0,-0.0,-0.0,-0.0,-0.0,-0.0,-0.0,-0.0,-0.0,-0.0,-0.0,-0.5747,-1.1704,-0.8052,-1.056,-1.4346,-1.4312,-1.4299,-1.4299,-1.4299,-1.4299,-1.4299,-1.4299,-1.4299,-1.4299,-1.4299,-1.4299,-1.4999,-1.6896,-1.9488,-2.2084,-2.4691,-2.6927,-2.8136,-2.8136,-2.8136,-2.8136,-2.8136,-2.8136,-2.8136,-2.8136,-2.8136,-2.8136,-2.8136,-2.8136,-2.8136,-2.8136,-2.8136,-2.8136,-2.8136,-2.8136,-2.8136,-2.8136,-2.8136,-2.9286,-3.1392,-3.3676,-3.5782,1.9562,2.0524,2.166,2.2809,2.3287,2.3378,2.2764,2.1273,1.9426,1.7241,1.5399,1.4312,1.4482,1.3915,1.3569,1.3742,1.3818,1.3707,1.3707,1.3715,1.3831,1.3797,1.3933,1.398,1.3844,1.3912,1.396,1.3946,1.3939,1.4,1.4129,1.4062,1.4122,1.4299,1.4299,1.4299,1.4299,1.4299,1.4299,1.4299,1.4299,1.1821,0.7201,1.2119,0.9016,-0.0,-0.0,-0.0,-0.0,-0.0,-0.0,-0.0,-0.0,-0.0,-0.0,-0.0,-0.0,-0.0,-0.0,-0.0,-0.0,-0.0,-0.0,-0.0,-0.0,-0.6646,-1.3898,-1.1671,-1.2734,-1.434,-1.4306,-1.4299,-1.4299,-1.4299,-1.4299,-1.4299,-1.4299,-1.4299,-1.4299,-1.4299,-1.4299,-1.4992,-1.7413,-1.9662,-2.1911,-2.4337,-2.6758,-2.8136,-2.8136,-2.8136,-2.8136,-2.8136,-2.8136,-2.8136,-2.8136,-2.8136,-2.8136,-2.8136,-2.8136,-2.8136,-2.8136,-2.8136,-2.823,-2.8404,-2.823,-2.8136,-2.8136,-2.8136,-2.8628,-2.9607,-3.3391,-3.5601,1.9693,2.0453,2.1159,2.2572,2.3073,2.2847,2.1498,1.9837,1.7931,1.5616,1.3781,1.2644,1.2923,1.3124,1.3397,1.3403,1.3569,1.3556,1.3501,1.3559,1.3648,1.3597,1.3702,1.3673,1.3702,1.3715,1.3749,1.3783,1.379,1.3838,1.3953,1.4068,1.3981,1.4224,1.4197,1.4197,1.4224,1.4278,1.4306,1.4135,1.4326,1.2349,0.8943,1.0083,0.6825,-0.0,-0.0,-0.0,-0.0,-0.0,-0.0,-0.0,-0.0,-0.0,-0.0,-0.0,-0.0,-0.0,-0.0,-0.0,-0.0,-0.0,-0.0,-0.0,-0.0,-0.5923,-1.2788,-1.3866,-1.4373,-1.4333,-1.4306,-1.4299,-1.4299,-1.4299,-1.4299,-1.4299,-1.4299,-1.4299,-1.4299,-1.4299,-1.4299,-1.4822,-1.6553,-1.8802,-2.1048,-2.347,-2.5896,-2.7448,-2.8136,-2.8136,-2.8136,-2.8136,-2.8136,-2.8136,-2.8136,-2.8136,-2.8136,-2.8136,-2.8136,-2.8136,-2.8136,-2.8217,-2.8377,-2.8604,-2.8457,-2.8377,-2.8364,-2.8297,-2.8297,-2.8534,-3.313,-3.5394,1.9233,1.985,2.0501,2.1397,2.2352,2.2454,2.0864,1.9304,1.7487,1.559,1.3781,1.2508,1.2542,1.2849,1.3058,1.3058,1.3058,1.2992,1.2976,1.3124,1.3251,1.3403,1.3546,1.3648,1.3634,1.3756,1.3777,1.3648,1.3641,1.3702,1.3838,1.3729,1.377,1.3827,1.3912,1.3912,1.4194,1.4204,1.4142,1.4004,1.4209,1.4108,1.3552,0.4809,0.0535,-0.0,-0.0,-0.0,-0.0,-0.0,-0.0,-0.0,-0.0,-0.0,-0.0,-0.0,-0.0,-0.0,-0.0,-0.0,-0.0,-0.0,-0.0,-0.0,-0.0,-0.3582,-0.8409,-1.2942,-1.4353,-1.4299,-1.4299,-1.4299,-1.4299,-1.4299,-1.4299,-1.4299,-1.4299,-1.4299,-1.4299,-1.4299,-1.4299,-1.4299,-1.4476,-1.6378,-1.8802,-2.1048,-2.3298,-2.5726,-2.7968,-2.8136,-2.8136,-2.8136,-2.8136,-2.8136,-2.8136,-2.8136,-2.8136,-2.8136,-2.8136,-2.8136,-2.8136,-2.843,-2.8591,-2.8604,-2.8858,-2.8991,-2.8991,-2.8711,-2.8724,-2.8978,-3.3364,-3.5361,1.8672,1.9219,1.9932,2.0956,2.167,2.134,1.8794,1.7969,1.6863,1.3469,1.2487,1.221,1.2273,1.2514,1.2827,1.2986,1.2986,1.3027,1.2996,1.3017,1.3112,1.3204,1.3281,1.3275,1.3464,1.3437,1.3431,1.3478,1.3485,1.3546,1.3695,1.3654,1.3709,1.372,1.3858,1.3858,1.3899,1.3994,1.4095,1.4028,1.4224,1.4217,1.3988,0.4419,-0.0,-0.0,-0.0,-0.0,-0.0,-0.0,-0.0,-0.0,-0.0,-0.0,-0.0,-0.0,-0.0,-0.0,-0.0,-0.0,-0.0,-0.0,-0.0,-0.0,-0.0,-0.1254,-0.4112,-1.2033,-1.4367,-1.4326,-1.4306,-1.4299,-1.4299,-1.4299,-1.4299,-1.4299,-1.4299,-1.4299,-1.4299,-1.4299,-1.4299,-1.4299,-1.4299,-1.6202,-1.8627,-2.0875,-2.3126,-2.5556,-2.7968,-2.8136,-2.8136,-2.8136,-2.8136,-2.8136,-2.8136,-2.8136,-2.823,-2.843,-2.8257,-2.823,-2.843,-2.835,-2.8484,-2.8871,-2.8991,-2.9045,-2.9045,-2.8938,-2.8938,-2.9032,-3.3831,-3.614,1.8189,1.8672,1.9359,2.0521,2.0962,2.04,1.7485,1.6947,1.6112,1.2365,1.1714,1.2039,1.1978,1.221,1.2581,1.2628,1.2663,1.2731,1.2779,1.2903,1.2965,1.3064,1.2943,1.3132,1.3193,1.3227,1.3268,1.3322,1.337,1.3444,1.3546,1.3553,1.3593,1.3688,1.3743,1.3743,1.3695,1.3831,1.3217,1.1507,1.3346,1.2661,0.9288,0.2975,-0.0,-0.0,-0.0,-0.0,-0.0,-0.0,-0.0,-0.0,-0.0,-0.0,-0.0,-0.0,-0.0,-0.0,-0.0,-0.0,-0.0,-0.0,-0.0,-0.0,-0.0,-0.0,-0.161,-0.9678,-1.3096,-1.434,-1.4306,-1.4299,-1.4299,-1.4299,-1.4299,-1.4299,-1.4299,-1.4299,-1.4299,-1.4299,-1.4299,-1.4299,-1.4299,-1.5513,-1.7588,-2.0702,-2.2611,-2.4679,-2.7799,-2.8136,-2.8136,-2.8136,-2.8136,-2.8136,-2.8136,-2.8136,-2.823,-2.8444,-2.835,-2.839,-2.8604,-2.8591,-2.8778,-2.9179,-2.9285,-2.9339,-2.9325,-2.9232,-2.9232,-2.9339,-3.4205,-3.7284,0.0,0.0,0.0,1.9774,2.0066,1.9483,1.7002,1.6355,1.5372,1.208,1.1613,1.177,1.177,1.1921,1.2108,1.2066,1.2159,1.232,1.234,1.2501,1.2663,1.2663,1.2856,1.3057,1.3006,1.3152,1.315,1.318,1.3308,1.339,1.3397,1.3397,1.339,1.339,1.3532,1.3539,1.3397,1.3715,1.1544,0.6816,1.1612,0.9008,-0.0,-0.0,-0.0,-0.0,-0.0,-0.0,-0.0,-0.0,-0.0,-0.0,-0.0,-0.0,-0.0,-0.0,-0.0,-0.0,-0.0,-0.0,-0.0,-0.0,-0.0,-0.0,-0.0,-0.0179,-0.1252,-0.5717,-1.0555,-1.4346,-1.4306,-1.4299,-1.4299,-1.4299,-1.4299,-1.4299,-1.4299,-1.4299,-1.4299,-1.4299,-1.4299,-1.4299,-1.4299,-1.4299,-1.5866,-2.0529,-2.1221,-2.2944,-2.7617,-2.8136,-2.8136,-2.8136,-2.8136,-2.8136,-2.8136,-2.8136,-2.815,-2.8163,-2.8444,-2.8604,-2.8617,-2.9165,-2.9472,-2.9486,-2.9766,-2.9913,-2.9913,-2.9633,-2.9646,-3.0079,-3.4423,-3.9271,1.7689,0.0,0.0,0.0,0.0,0.0,1.4251,1.3725,1.3336,1.1446,1.1248,1.1469,1.1619,1.1763,1.1674,1.169,1.201,1.2168,1.2286,1.234,1.2501,1.2663,1.2651,1.2793,1.2908,1.2979,1.2854,1.3098,1.3159,1.32,1.3234,1.3234,1.3186,1.3085,1.3125,1.3173,1.3234,1.3376,1.1311,0.6646,0.4762,0.2555,-0.0,-0.0,-0.0,-0.0,-0.0,-0.0,-0.0,-0.0,-0.0,-0.0,-0.0,-0.0,-0.0,-0.0,-0.0,-0.0,-0.0,-0.0,-0.0,-0.0,-0.0,-0.0,-0.0,-0.2334,-0.5383,-0.6796,-1.057,-1.4373,-1.4312,-1.4299,-1.4299,-1.4299,-1.4299,-1.4299,-1.4299,-1.4299,-1.4299,-1.4299,-1.4299,-1.4299,-1.4299,-1.4299,-1.5866,-2.0529,-2.1221,-2.2944,-2.7617,-2.8136,-2.8136,-2.8136,-2.8136,-2.8136,-2.8136,-2.8136,-2.8243,-2.847,-2.8564,-2.8698,-2.8911,-2.9072,-2.9259,-2.9486,-2.9566,-2.9713,-2.9913,-2.9833,-2.9833,-3.0093,-3.4498,-3.8494,0.0,0.0,0.0,1.5806,0.0,0.0,1.3092,1.2696,1.2223,1.101,1.0849,1.1107,1.1335,1.1415,1.1476,1.1476,1.177,1.2039,1.2237,1.2192,1.2347,1.2656,1.2501,1.2569,1.2752,1.2766,1.2759,1.2834,1.2929,1.301,1.3078,1.3085,1.3044,1.2963,1.2963,1.303,1.3173,1.3398,1.1174,0.6596,0.2179,-0.0,-0.0,-0.0,-0.0,-0.0,-0.0,-0.0,-0.0,-0.0,-0.0,-0.0,-0.0,-0.0,-0.0,-0.0,-0.0,-0.0,-0.0,-0.0,-0.0,-0.0,-0.0,-0.0,-0.0,-0.3414,-0.7014,-0.7156,-1.056,-1.4353,-1.4312,-1.4299,-1.4299,-1.4299,-1.4299,-1.4299,-1.4299,-1.4299,-1.4299,-1.4299,-1.4299,-1.4299,-1.4299,-1.4299,-1.5866,-2.0529,-2.1221,-2.2944,-2.7617,-2.8136,-2.8136,-2.8136,-2.8136,-2.8136,-2.8136,-2.8136,-2.827,-2.8591,-2.8724,-2.8925,-2.9219,-2.9339,-2.9486,-2.9659,-2.9659,-2.9753,-2.9913,-2.9913,-3.0437,-3.1479,-3.5114,-3.8322,0.0,0.0,0.0,0.0,1.3884,0.0,1.2627,1.2184,1.1678,1.0788,1.0665,1.0723,1.1074,1.1268,1.1409,1.1292,1.1606,1.1914,1.2065,1.2285,1.234,1.2501,1.2501,1.2501,1.2501,1.2663,1.2663,1.2663,1.2828,1.2972,1.2908,1.2929,1.2929,1.2908,1.2908,1.2976,1.3119,1.3322,1.1412,0.7346,0.2314,-0.0,-0.0,-0.0,-0.0,-0.0,-0.0,-0.0,-0.0,-0.0,-0.0,-0.0,-0.0,-0.0,-0.0,-0.0,-0.0,-0.0,-0.0,-0.0,-0.0,-0.0,-0.0,-0.018,-0.1257,-0.4493,-0.7915,-0.7874,-1.1072,-1.4299,-1.4299,-1.4299,-1.4299,-1.4299,-1.4299,-1.4299,-1.4299,-1.4299,-1.4299,-1.4299,-1.4299,-1.4299,-1.4299,-1.4299,-1.5866,-2.0529,-2.1221,-2.2944,-2.7617,-2.8136,-2.8136,-2.8136,-2.8136,-2.8136,-2.8136,-2.8177,-2.831,-2.8591,-2.8911,-2.9205,-2.9472,-2.9766,-2.9913,-2.9913,-2.9913,-2.9913,-2.9913,-2.9953,-3.1014,-3.3102,-3.5732,-3.8544,0.0,0.0,0.0,1.2754,1.2255,0.0,1.0399,1.0165,1.025,1.0127,1.031,1.0507,1.0785,1.0968,1.1,1.1054,1.1368,1.177,1.2065,1.2285,1.234,1.2501,1.2501,1.2501,1.2501,1.2501,1.2501,1.2501,1.2697,1.2731,1.2589,1.2705,1.2718,1.2596,1.2589,1.2664,1.2813,1.2854,1.2628,1.1968,0.3907,-0.0,-0.0,-0.0,-0.0,-0.0,-0.0,-0.0,-0.0,-0.0,-0.0,-0.0,-0.0,-0.0,-0.0,-0.0,-0.0,-0.0,-0.0,-0.0,-0.0,-0.0,-0.0,-0.1436,-0.9195,-1.2102,-1.2979,-1.2918,-1.3604,-1.4299,-1.4299,-1.4299,-1.4299,-1.4299,-1.4299,-1.4299,-1.4299,-1.4299,-1.4299,-1.4299,-1.4299,-1.4299,-1.4299,-1.4299,-1.5866,-2.0529,-2.1221,-2.2944,-2.7617,-2.8136,-2.8136,-2.8136,-2.8136,-2.8136,-2.8136,-2.8377,-2.8537,-2.8604,-2.9098,-2.9419,-2.9486,-2.9766,-2.9913,-2.9913,-2.9913,-2.9913,-2.9913,-3.0154,-3.0637,-3.1166,-3.5629,-3.8274,0.0,1.4552,1.3567,1.1232,1.071,0.0,0.0,0.9652,0.9686,0.9985,0.9992,1.0059,1.0432,1.0561,1.0731,1.0933,1.1181,1.1558,1.1803,1.2065,1.234,1.2501,1.2501,1.2539,1.24,1.2332,1.2347,1.2347,1.2501,1.2501,1.2501,1.2576,1.2583,1.2501,1.2501,1.2576,1.2725,1.2745,1.2854,1.3051,0.6445,0.2096,-0.0,-0.0,-0.0,-0.0,-0.0,-0.0,-0.0,-0.0,-0.0,-0.0,-0.0,-0.0,-0.0,-0.0,-0.0,-0.0,-0.0,-0.0,-0.0,-0.0,-0.0,-0.1795,-1.1384,-1.4289,-1.4242,-1.4367,-1.4326,-1.4299,-1.4299,-1.4299,-1.4299,-1.4299,-1.4299,-1.4299,-1.4299,-1.4299,-1.4299,-1.4299,-1.4299,-1.4299,-1.4299,-1.4299,-1.5513,-1.8976,-2.0529,-2.2428,-2.6066,-2.7448,-2.8136,-2.8136,-2.8136,-2.8136,-2.8136,-2.843,-2.8671,-2.8818,-2.9232,-2.9553,-2.9686,-2.9847,-2.9913,-2.9913,-3.0207,-3.0287,-3.014,-3.0581,-3.0635,-3.055,-3.4202,-3.6849,1.451,1.3067,1.1695,1.0207,0.9822,0.9815,0.0,0.0,0.0,0.9903,0.9795,0.9761,1.0127,1.0215,1.0365,1.0758,1.107,1.1409,1.1524,1.1891,1.2244,1.2313,1.24,1.2449,1.2265,1.2303,1.2159,1.2326,1.2433,1.2406,1.244,1.2454,1.2461,1.2461,1.2433,1.2501,1.2684,1.2657,1.2745,1.2789,0.8613,0.4307,-0.0,-0.0,-0.0,-0.0,-0.0,-0.0,-0.0,-0.0,-0.0,-0.0,-0.0,-0.0,-0.0,-0.0,-0.0,-0.0,-0.0,-0.0,-0.0,-0.0,-0.0,-0.1616,-1.0276,-1.3534,-1.4216,-1.4353,-1.4319,-1.4299,-1.4299,-1.4299,-1.4299,-1.4299,-1.4299,-1.4299,-1.4299,-1.4299,-1.4299,-1.4299,-1.4299,-1.4299,-1.4299,-1.4299,-1.5168,-1.7413,-1.9315,-2.1394,-2.3652,-2.6066,-2.7448,-2.7448,-2.8021,-2.8203,-2.815,-2.8524,-2.8845,-2.9032,-2.9432,-2.9753,-2.9993,-3.006,-3.0087,-3.0087,-3.0555,-3.0675,-3.0448,-3.0969,-3.0982,-3.0528,-3.3139,-3.594,1.5481,1.402,1.2345,1.0454,1.0209,1.0263,0.9774,0.0,0.9917,0.97,0.0,0.9815,0.9863,0.0,0.0,1.0324,1.0744,1.0967,1.1246,1.1488,1.1748,1.19,1.204,1.2142,1.2072,1.2016,1.1942,1.228,1.2182,1.221,1.2381,1.2284,1.2318,1.2318,1.2182,1.2244,1.2522,1.24,1.2433,1.2454,0.8315,0.4075,-0.0,-0.0,-0.0,-0.0,-0.0,-0.0,-0.0,-0.0,-0.0,-0.0,-0.0,-0.0,-0.0,-0.0,-0.0,-0.0,-0.0,-0.0,-0.0,-0.0,-0.0,-0.1076,-0.6264,-1.0942,-1.4209,-1.4326,-1.4306,-1.4299,-1.4299,-1.4299,-1.4299,-1.4299,-1.4299,-1.4299,-1.4299,-1.4299,-1.4299,-1.4299,-1.4299,-1.4299,-1.4299,-1.4299,-1.5168,-1.7413,-1.8104,-1.8976,-2.1221,-2.3641,-2.5032,-2.5032,-2.717,-2.8444,-2.8163,-2.8911,-2.9285,-2.9058,-2.9806,-3.0274,-3.0314,-3.0555,-3.0688,-3.0688,-3.0755,-3.0782,-3.0742,-3.1062,-3.1196,-3.1129,-3.3973,-3.6513,1.57,1.4075,1.248,1.0587,1.0209,1.0168,0.9924,0.9829,0.9781,0.9741,0.0,0.0,0.0,0.0,0.0,0.0,1.0453,1.0591,1.0822,1.0913,1.1226,1.1603,1.1612,1.1706,1.1742,1.1754,1.1748,1.1896,1.1935,1.1928,1.201,1.2054,1.2155,1.2155,1.2182,1.225,1.2379,1.24,1.2461,1.2556,1.067,0.642,-0.0,-0.0,-0.0,-0.0,-0.0,-0.0,-0.0,-0.0,-0.0,-0.0,-0.0,-0.0,-0.0,-0.0,-0.0,-0.0,-0.0,-0.0,-0.0,-0.0,-0.0,-0.0359,-0.2325,-0.8238,-1.4216,-1.434,-1.4312,-1.4299,-1.4299,-1.4299,-1.4299,-1.4299,-1.4299,-1.4299,-1.4299,-1.4299,-1.4299,-1.4299,-1.4299,-1.4299,-1.4299,-1.4299,-1.4646,-1.569,-1.6896,-1.8104,-1.9141,-2.1221,-2.2665,-2.2805,-2.5008,-2.65,-2.6537,-2.8452,-2.9499,-2.9539,-3.0221,-3.0608,-3.0608,-3.0889,-3.0969,-3.0795,-3.1129,-3.1209,-3.1049,-3.1343,-3.149,-3.149,-3.2703,-3.5338,1.5805,1.4094,1.2463,1.0792,1.0195,1.0093,1.0005,0.9856,0.9761,0.9863,0.9747,0.0,0.0,0.0,0.0,0.0,0.0,1.029,1.0404,1.0489,1.075,1.1047,1.1198,1.1319,1.1372,1.1423,1.1413,1.1482,1.1559,1.1681,1.1763,1.1823,1.1959,1.1999,1.2067,1.2149,1.223,1.2332,1.242,1.2488,1.2414,0.9266,0.3288,0.1098,-0.0,-0.0,-0.0,-0.0,-0.0,-0.0,-0.0,-0.0,-0.0,-0.0,-0.0,-0.0,-0.0,-0.0,-0.0,-0.0,-0.0,-0.0,-0.0,-0.0,-0.0,-0.4829,-1.0942,-1.3642,-1.434,-1.4312,-1.4312,-1.4306,-1.4299,-1.4299,-1.4299,-1.4299,-1.4299,-1.4299,-1.4299,-1.4299,-1.4299,-1.4299,-1.4299,-1.4299,-1.4299,-1.4299,-1.569,-1.6896,-1.6896,-1.8802,-2.024,-2.0394,-2.3326,-2.5231,-2.5348,-2.7966,-2.9887,-3.0247,-3.0675,-3.0942,-3.1036,-3.1236,-3.1249,-3.1036,-3.145,-3.1557,-3.1343,-3.157,-3.1664,-3.1664,-3.1664,-3.3873,1.5836,1.418,1.2491,1.0693,1.0276,1.0195,0.9897,0.9937,1.0039,1.0039,1.0154,1.0256,1.0263,0.0,0.0,0.0,0.0,0.0,0.0,1.0369,1.0419,1.0578,1.0746,1.0974,1.1127,1.0973,1.1077,1.1348,1.1253,1.1307,1.1606,1.1626,1.1694,1.1837,1.1708,1.1775,1.2067,1.2074,1.2162,1.2179,1.236,1.2298,1.1842,0.3768,-0.0,-0.0,-0.0,-0.0,-0.0,-0.0,-0.0,-0.0,-0.0,-0.0,-0.0,-0.0,-0.0,-0.0,-0.0,-0.0,-0.0,-0.0,-0.0,-0.0,-0.0,-0.0179,-0.2325,-1.1671,-1.438,-1.4346,-1.4346,-1.4326,-1.4299,-1.4299,-1.4299,-1.4299,-1.4299,-1.4299,-1.4299,-1.4299,-1.4299,-1.4299,-1.4299,-1.4299,-1.4299,-1.4299,-1.4299,-1.4476,-1.4476,-1.6378,-1.7938,-1.7938,-2.2494,-2.5524,-2.5102,-2.8386,-3.0581,-3.1142,-3.1196,-3.1343,-3.1623,-3.165,-3.165,-3.1637,-3.1664,-3.1664,-3.165,-3.1664,-3.1664,-3.1664,-3.1664,-3.2947,1.7702,1.6074,1.4465,1.2619,1.1232,1.0229,1.0019,1.0012,1.0046,1.0046,1.0175,1.0283,1.0283,0.0,0.0,0.0,0.0,0.0,0.0,1.0081,1.0012,1.0114,1.0392,1.0692,1.0664,1.0822,1.0839,1.0941,1.09,1.0962,1.1165,1.1362,1.1491,1.1538,1.1681,1.1809,1.1904,1.2108,1.225,1.2172,0.9661,0.9896,1.2168,0.38,-0.0,-0.0,-0.0,-0.0,-0.0,-0.0,-0.0,-0.0,-0.0,-0.0,-0.0,-0.0,-0.0,-0.0,-0.0,-0.0,-0.0,-0.0,-0.0,-0.0,-0.0,-0.0,-0.0716,-0.3936,-0.7153,-1.0199,-1.3445,-1.434,-1.4326,-1.4306,-1.4299,-1.4299,-1.4299,-1.4299,-1.4299,-1.4299,-1.4299,-1.4299,-1.4299,-1.4299,-1.4299,-1.4299,-1.4299,-1.4299,-1.4299,-1.5077,-1.5712,-1.5816,-2.0318,-2.34,-2.3295,-2.7768,-3.0808,-3.1196,-3.141,-3.157,-3.1664,-3.1664,-3.1664,-3.1664,-3.1664,-3.1664,-3.1664,-3.1664,-3.1664,-3.1664,-3.1664,-3.2947,1.8488,1.7356,1.6146,1.3704,1.2195,1.1068,1.0287,1.0168,1.0209,1.0209,1.0331,1.0439,1.0439,1.0392,0.0,0.0,0.0,0.0,0.0,0.9822,0.9822,0.995,1.0223,1.0431,1.0419,1.0568,1.0616,1.0568,1.0609,1.0704,1.086,1.1104,1.1253,1.1307,1.1545,1.1674,1.1674,1.1979,1.2169,1.2099,0.8193,0.6863,0.7855,0.2532,-0.0,-0.0,-0.0,-0.0,-0.0,-0.0,-0.0,-0.0,-0.0,-0.0,-0.0,-0.0,-0.0,-0.0,-0.0,-0.0,-0.0,-0.0,-0.0,-0.0,-0.0,-0.0,-0.0,-0.0,-0.2159,-0.537,-0.8481,-1.1704,-1.4346,-1.4326,-1.4306,-1.4299,-1.4299,-1.4299,-1.4299,-1.4299,-1.4299,-1.4299,-1.4299,-1.4299,-1.4299,-1.4299,-1.4299,-1.4319,-1.4367,-1.4455,-1.457,-1.4726,-1.9209,-2.3101,-2.5352,-2.8691,-3.0969,-3.1356,-3.1557,-3.1664,-3.1664,-3.1664,-3.181,-3.2131,-3.1824,-3.1824,-3.2131,-3.1824,-3.1664,-3.1664,-3.1664,-3.2583]},{"header":{"parameterUnit":"m.s-1","parameterCategory":1,"la1":30.6,"la2":29.2853,"lo1":-89.7004,"lo2":-87.6739,"dy":0.0162,"dx":0.0183,"nx":112,"ny":82,"refTime":"2023-04-13T00:00:00:Z","depth":0,"parameterNumber":3,"parameterNumberName":"V-component_of_WINDS"},"data":[0.0,0.0,0.0,0.0,0.0,0.0,0.0,0.0,0.0,0.0,0.0,0.0,0.0,0.0,0.0,0.0,0.0,0.0,0.0,0.0,0.0,0.0,0.0,0.0,0.0,0.0,0.0,0.0,0.0,0.0,0.0,0.0,0.0,0.0,0.0,0.0,0.0,0.0,0.0,0.0,0.0,0.0,0.0,0.0,0.0,0.0,0.0,0.0,0.0,0.0,0.0,0.0,0.0,0.0,0.0,0.0,0.0,0.0,0.0,0.0,0.0,0.0,0.0,0.0,0.0,0.0,0.0,0.0,0.0,0.0,0.0,0.0,0.0,0.0,0.0,0.0,0.0,0.0,0.0,0.0,0.0,0.0,0.0,0.0,0.0,0.0,0.0,0.0,0.0,0.0,-2.9366,-2.9293,-3.0618,-3.1556,-3.1556,-3.1496,-3.0371,-2.7842,0.0,0.0,0.0,0.0,0.0,0.0,0.0,0.0,0.0,0.0,0.0,0.0,0.0,0.0,0.0,0.0,0.0,0.0,0.0,0.0,0.0,0.0,0.0,0.0,0.0,0.0,0.0,0.0,0.0,0.0,0.0,0.0,0.0,0.0,0.0,0.0,0.0,0.0,0.0,0.0,0.0,0.0,0.0,0.0,0.0,0.0,0.0,0.0,0.0,0.0,0.0,0.0,0.0,0.0,0.0,0.0,0.0,0.0,0.0,0.0,0.0,0.0,0.0,0.0,0.0,0.0,0.0,0.0,0.0,0.0,0.0,0.0,0.0,0.0,0.0,0.0,0.0,0.0,0.0,0.0,0.0,0.0,0.0,0.0,0.0,0.0,0.0,0.0,0.0,0.0,0.0,0.0,0.0,0.0,0.0,0.0,0.0,0.0,0.0,0.0,0.0,0.0,0.0,0.0,-3.1895,-3.3479,-3.4208,-3.4626,-3.4626,-3.4252,-3.2636,-2.9375,0.0,0.0,0.0,0.0,0.0,0.0,0.0,0.0,0.0,0.0,0.0,0.0,0.0,0.0,0.0,0.0,0.0,0.0,0.0,0.0,0.0,0.0,0.0,0.0,0.0,0.0,0.0,0.0,0.0,0.0,0.0,0.0,0.0,0.0,0.0,0.0,0.0,0.0,0.0,0.0,0.0,0.0,0.0,0.0,0.0,0.0,0.0,0.0,0.0,0.0,0.0,0.0,0.0,0.0,0.0,0.0,0.0,0.0,0.0,0.0,0.0,0.0,0.0,0.0,0.0,0.0,0.0,0.0,0.0,0.0,0.0,0.0,0.0,0.0,0.0,0.0,0.0,0.0,0.0,0.0,0.0,0.0,0.0,0.0,0.0,0.0,0.0,0.0,0.0,0.0,0.0,0.0,0.0,0.0,0.0,0.0,0.0,0.0,0.0,0.0,0.0,0.0,0.0,-3.2072,-3.3061,-3.4499,-3.4997,-3.5288,-3.5288,-3.5087,-3.3726,-3.0888,-2.7902,0.0,0.0,0.0,0.0,0.0,0.0,0.0,0.0,0.0,0.0,0.0,0.0,0.0,0.0,0.0,0.0,0.0,0.0,0.0,0.0,0.0,0.0,0.0,0.0,0.0,0.0,0.0,0.0,0.0,0.0,0.0,0.0,0.0,0.0,0.0,0.0,0.0,0.0,0.0,0.0,0.0,0.0,0.0,0.0,0.0,0.0,0.0,0.0,0.0,0.0,0.0,0.0,0.0,0.0,0.0,0.0,0.0,0.0,0.0,0.0,0.0,0.0,0.0,0.0,0.0,0.0,0.0,0.0,0.0,0.0,0.0,0.0,0.0,0.0,0.0,0.0,0.0,0.0,0.0,0.0,0.0,0.0,0.0,0.0,0.0,0.0,0.0,0.0,0.0,0.0,0.0,0.0,0.0,0.0,0.0,0.0,0.0,0.0,0.0,0.0,0.0,0.0,-3.431,-3.436,-3.5686,-3.6148,-3.6402,-3.6402,-3.5733,-3.4482,-3.247,-2.9172,0.0,0.0,0.0,0.0,0.0,0.0,0.0,0.0,0.0,0.0,0.0,0.0,0.0,0.0,0.0,0.0,0.0,0.0,0.0,0.0,0.0,0.0,0.0,0.0,0.0,0.0,0.0,0.0,0.0,0.0,0.0,0.0,0.0,0.0,0.0,0.0,0.0,0.0,0.0,0.0,0.0,0.0,0.0,0.0,0.0,0.0,0.0,0.0,0.0,0.0,0.0,0.0,0.0,0.0,0.0,0.0,0.0,0.0,0.0,0.0,0.0,0.0,0.0,0.0,0.0,0.0,0.0,0.0,0.0,0.0,0.0,0.0,0.0,0.0,0.0,0.0,0.0,0.0,0.0,0.0,0.0,0.0,0.0,0.0,0.0,0.0,0.0,0.0,0.0,0.0,0.0,0.0,0.0,0.0,0.0,0.0,0.0,0.0,0.0,0.0,0.0,0.0,-3.5939,-3.6675,-3.9084,-3.9337,-3.9362,-3.9362,-3.6986,-3.5051,-3.387,-2.9932,0.0,0.0,0.0,0.0,0.0,0.0,0.0,0.0,0.0,0.0,0.0,0.0,0.0,0.0,0.0,0.0,0.0,0.0,0.0,0.0,0.0,0.0,0.0,0.0,0.0,0.0,0.0,0.0,0.0,0.0,0.0,0.0,0.0,0.0,0.0,0.0,0.0,0.0,0.0,0.0,0.0,0.0,0.0,0.0,0.0,0.0,0.0,0.0,0.0,0.0,0.0,0.0,0.0,0.0,0.0,0.0,0.0,0.0,0.0,0.0,0.0,0.0,0.0,0.0,0.0,0.0,0.0,0.0,0.0,0.0,0.0,0.0,0.0,0.0,0.0,0.0,0.0,0.0,0.0,0.0,0.0,0.0,0.0,0.0,0.0,0.0,0.0,0.0,0.0,0.0,0.0,0.0,0.0,0.0,0.0,0.0,0.0,0.0,0.0,0.0,0.0,0.0,-3.6897,-3.7915,-3.9572,-3.9697,-3.9697,-3.9697,-3.8465,-3.6584,-3.4102,0.0,0.0,0.0,0.0,0.0,0.0,0.0,0.0,0.0,0.0,0.0,0.0,0.0,0.0,0.0,0.0,0.0,0.0,0.0,0.0,0.0,0.0,0.0,0.0,0.0,0.0,0.0,0.0,0.0,0.0,0.0,0.0,0.0,0.0,0.0,0.0,0.0,0.0,0.0,0.0,0.0,0.0,0.0,0.0,0.0,0.0,0.0,0.0,0.0,0.0,0.0,0.0,0.0,0.0,0.0,0.0,0.0,0.0,0.0,0.0,0.0,0.0,0.0,0.0,0.0,0.0,0.0,0.0,0.0,0.0,0.0,0.0,0.0,0.0,0.0,0.0,0.0,0.0,0.0,0.0,0.0,0.0,0.0,0.0,0.0,0.0,0.0,0.0,0.0,0.0,0.0,0.0,0.0,0.0,0.0,0.0,0.0,0.0,0.0,0.0,0.0,0.0,-3.6929,-3.7505,-3.8517,-3.9823,-3.9798,-3.9772,-3.9948,-3.849,-3.6565,-3.4102,0.0,0.0,0.0,0.0,0.0,0.0,0.0,0.0,0.0,0.0,0.0,0.0,0.0,0.0,0.0,0.0,0.0,0.0,0.0,0.0,0.0,0.0,0.0,0.0,0.0,0.0,0.0,0.0,0.0,0.0,0.0,0.0,0.0,0.0,0.0,0.0,0.0,0.0,0.0,0.0,0.0,0.0,0.0,0.0,0.0,0.0,0.0,0.0,0.0,0.0,0.0,0.0,0.0,0.0,0.0,0.0,0.0,0.0,0.0,0.0,0.0,0.0,0.0,0.0,0.0,0.0,0.0,0.0,0.0,0.0,0.0,0.0,0.0,0.0,0.0,0.0,0.0,0.0,0.0,0.0,0.0,0.0,0.0,0.0,0.0,0.0,0.0,0.0,0.0,0.0,0.0,0.0,0.0,0.0,0.0,0.0,0.0,0.0,0.0,0.0,0.0,0.0,-3.8002,-3.8056,-3.8642,-4.0325,-4.0023,-3.9923,-4.045,-3.692,-3.4492,0.0,0.0,0.0,0.0,0.0,0.0,0.0,0.0,0.0,0.0,0.0,0.0,0.0,0.0,0.0,0.0,0.0,0.0,0.0,0.0,0.0,0.0,0.0,0.0,0.0,0.0,0.0,0.0,0.0,0.0,0.0,0.0,0.0,0.0,0.0,0.0,0.0,0.0,0.0,0.0,0.0,0.0,0.0,0.0,0.0,0.0,0.0,0.0,0.0,0.0,0.0,0.0,0.0,0.0,0.0,0.0,0.0,0.0,0.0,0.0,0.0,0.0,0.0,0.0,0.0,0.0,0.0,0.0,0.0,0.0,0.0,0.0,0.0,0.0,0.0,0.0,0.0,0.0,0.0,0.0,0.0,0.0,0.0,0.0,0.0,0.0,0.0,0.0,0.0,0.0,0.0,0.0,0.0,0.0,0.0,0.0,0.0,0.0,0.0,0.0,0.0,0.0,0.0,-3.9256,-3.8859,-3.9258,-4.1097,-4.0364,-3.9747,-3.9923,-3.8141,-3.6602,-3.5451,0.0,0.0,0.0,0.0,0.0,0.0,0.0,0.0,0.0,0.0,0.0,0.0,0.0,0.0,0.0,0.0,0.0,0.0,0.0,0.0,0.0,0.0,0.0,0.0,0.0,0.0,0.0,0.0,0.0,0.0,0.0,0.0,0.0,0.0,0.0,0.0,0.0,0.0,0.0,0.0,0.0,0.0,0.0,0.0,0.0,0.0,0.0,0.0,0.0,0.0,0.0,0.0,0.0,0.0,0.0,0.0,0.0,0.0,0.0,0.0,0.0,0.0,0.0,0.0,0.0,0.0,0.0,0.0,0.0,0.0,0.0,0.0,0.0,0.0,0.0,0.0,0.0,0.0,0.0,0.0,0.0,0.0,0.0,0.0,0.0,0.0,0.0,0.0,0.0,0.0,0.0,0.0,0.0,0.0,0.0,0.0,0.0,0.0,0.0,0.0,0.0,0.0,-4.0745,-4.0103,-4.0374,-4.2484,-4.1849,-4.1298,-4.1533,-4.002,-3.826,-3.6259,0.0,0.0,0.0,0.0,0.0,0.0,0.0,0.0,0.0,0.0,0.0,0.0,0.0,0.0,0.0,0.0,0.0,0.0,0.0,0.0,0.0,0.0,0.0,0.0,0.0,0.0,0.0,0.0,0.0,0.0,0.0,0.0,0.0,0.0,0.0,0.0,0.0,0.0,0.0,0.0,0.0,0.0,0.0,0.0,0.0,0.0,0.0,0.0,0.0,0.0,0.0,0.0,0.0,0.0,0.0,0.0,0.0,0.0,0.0,0.0,0.0,0.0,0.0,0.0,0.0,0.0,0.0,0.0,0.0,0.0,0.0,0.0,0.0,0.0,0.0,0.0,0.0,0.0,0.0,0.0,0.0,0.0,0.0,0.0,0.0,0.0,0.0,0.0,0.0,0.0,0.0,0.0,0.0,0.0,0.0,0.0,0.0,0.0,0.0,0.0,0.0,0.0,-4.2273,-4.1477,-4.1688,-4.4069,-4.378,-4.3725,-4.418,-4.2231,-3.979,-3.6947,0.0,0.0,0.0,0.0,0.0,0.0,0.0,0.0,0.0,0.0,0.0,0.0,0.0,0.0,0.0,0.0,0.0,0.0,0.0,0.0,0.0,0.0,0.0,0.0,0.0,0.0,0.0,0.0,0.0,0.0,0.0,0.0,0.0,0.0,0.0,0.0,0.0,0.0,0.0,0.0,0.0,0.0,0.0,0.0,0.0,0.0,0.0,0.0,0.0,0.0,0.0,0.0,0.0,0.0,0.0,0.0,0.0,0.0,0.0,0.0,-4.6653,-4.5587,0.0,0.0,0.0,0.0,0.0,0.0,0.0,0.0,0.0,0.0,0.0,0.0,0.0,0.0,0.0,0.0,0.0,0.0,0.0,0.0,0.0,0.0,0.0,0.0,0.0,0.0,0.0,0.0,0.0,0.0,0.0,0.0,0.0,0.0,0.0,0.0,0.0,0.0,0.0,0.0,-4.2971,-4.2038,-4.2052,-4.4162,-4.3873,-4.3559,-4.3669,-4.2846,-4.1742,-4.0594,-3.8017,0.0,0.0,0.0,0.0,0.0,0.0,0.0,0.0,0.0,0.0,0.0,0.0,0.0,0.0,0.0,0.0,0.0,0.0,0.0,0.0,0.0,0.0,0.0,0.0,0.0,0.0,0.0,0.0,0.0,0.0,0.0,0.0,0.0,0.0,0.0,0.0,0.0,0.0,0.0,0.0,0.0,0.0,0.0,0.0,0.0,0.0,0.0,0.0,0.0,0.0,0.0,0.0,0.0,0.0,0.0,0.0,0.0,0.0,0.0,-4.7771,-4.6643,0.0,0.0,0.0,0.0,0.0,0.0,0.0,0.0,0.0,0.0,0.0,0.0,0.0,0.0,0.0,0.0,0.0,0.0,0.0,0.0,0.0,0.0,0.0,0.0,0.0,0.0,0.0,0.0,0.0,0.0,0.0,0.0,0.0,0.0,0.0,0.0,0.0,0.0,0.0,0.0,-4.3698,-4.3183,-4.347,-4.5112,-4.5312,-4.5298,-4.5298,-4.4527,-4.3545,-4.2301,-4.0343,0.0,0.0,0.0,0.0,0.0,0.0,0.0,0.0,0.0,0.0,0.0,0.0,0.0,0.0,0.0,0.0,0.0,0.0,0.0,0.0,0.0,0.0,0.0,0.0,0.0,0.0,0.0,0.0,0.0,0.0,0.0,0.0,0.0,0.0,0.0,0.0,0.0,0.0,0.0,0.0,0.0,0.0,0.0,0.0,0.0,0.0,0.0,0.0,0.0,0.0,0.0,0.0,0.0,-5.6167,-5.6904,-5.7473,-5.7466,-5.7466,-5.7181,-5.1565,-5.0682,-5.3128,-5.2133,0.0,0.0,0.0,0.0,0.0,0.0,0.0,0.0,0.0,0.0,0.0,0.0,0.0,0.0,0.0,0.0,0.0,0.0,0.0,0.0,0.0,0.0,-5.4597,-5.5585,-5.4007,-5.2118,-5.1381,0.0,0.0,0.0,0.0,0.0,0.0,0.0,0.0,0.0,0.0,0.0,-4.466,-4.4599,-4.5041,-4.6395,-4.6976,-4.7309,-4.7309,-4.6344,-4.5053,-4.3595,-4.2621,-4.1439,0.0,0.0,0.0,0.0,0.0,0.0,0.0,0.0,0.0,0.0,0.0,0.0,0.0,0.0,0.0,0.0,0.0,0.0,0.0,0.0,0.0,0.0,0.0,0.0,0.0,0.0,0.0,0.0,0.0,0.0,0.0,0.0,-4.56,-4.5719,0.0,0.0,0.0,0.0,0.0,0.0,0.0,0.0,0.0,0.0,0.0,0.0,0.0,-5.4828,-5.5656,-5.7378,-5.6683,-5.356,-5.8011,-6.1704,-6.4571,-6.4586,-6.4561,-6.4499,-6.3614,0.0,-6.0113,-5.7088,0.0,0.0,0.0,0.0,0.0,0.0,0.0,0.0,0.0,0.0,0.0,0.0,0.0,0.0,0.0,0.0,0.0,0.0,0.0,0.0,0.0,0.0,-5.4012,-5.4161,-5.3907,-5.353,-5.2978,-5.1428,-4.9875,-4.9159,-4.7511,-4.6835,0.0,0.0,0.0,0.0,0.0,0.0,-4.6056,-4.5703,-4.6066,-4.7423,-4.7455,-4.7309,-4.7309,-4.7106,-4.6661,-4.5913,-4.4674,-4.3617,-4.2825,-4.1028,0.0,0.0,0.0,0.0,0.0,0.0,0.0,0.0,0.0,0.0,0.0,0.0,0.0,0.0,0.0,0.0,0.0,0.0,0.0,0.0,0.0,0.0,0.0,0.0,0.0,0.0,0.0,0.0,0.0,-4.5114,-4.6902,-4.6785,-4.8117,-4.8526,0.0,0.0,0.0,0.0,0.0,0.0,0.0,0.0,0.0,-5.5978,-5.8451,-6.0418,-6.1787,-6.2016,-6.1031,-5.8897,-6.0188,-6.3553,-6.8706,-6.8706,-6.8681,-6.8719,-6.8719,-6.8038,-6.6491,-6.1508,-5.7309,-5.4039,0.0,0.0,0.0,0.0,-5.8143,-5.9359,-5.8732,-5.8007,-5.7578,-5.8789,0.0,0.0,0.0,0.0,0.0,0.0,0.0,-5.6713,-5.6129,-5.6698,-5.7148,-5.6144,-5.592,-5.5802,-5.5337,-5.346,-5.1528,-5.0365,-4.943,-4.9008,-4.9486,-4.9018,0.0,0.0,0.0,-4.7896,-4.6924,-4.7342,-4.7806,-4.7836,-4.806,-4.7904,-4.7396,-4.7309,-4.7189,-4.689,-4.5963,-4.5114,-4.4461,-4.2965,-4.1824,0.0,0.0,0.0,0.0,0.0,0.0,0.0,0.0,0.0,0.0,0.0,0.0,0.0,0.0,0.0,0.0,0.0,0.0,0.0,0.0,0.0,0.0,0.0,0.0,0.0,0.0,0.0,0.0,-4.7006,-4.8785,-4.8414,-5.0362,-5.0993,0.0,0.0,0.0,0.0,0.0,0.0,-5.4762,-5.6572,-5.8348,-6.0032,-6.2618,-6.4795,-6.6526,-6.6576,-6.6127,-6.5229,-6.3115,-6.5191,-7.0914,-7.0887,-7.0887,-7.0887,-7.0887,-7.1017,-7.0761,-6.5277,-6.1022,-5.789,-5.7913,-5.7894,-5.8201,-6.0767,-6.1444,-6.0955,-6.0096,-5.9648,-5.9492,-5.9765,-5.9209,-5.8433,-5.8312,0.0,0.0,0.0,0.0,-5.8327,-5.7915,-5.8869,-5.9655,-5.8458,-5.8091,-5.7861,-5.7396,-5.5871,-5.399,-5.208,-5.1334,-5.1024,-5.1004,-5.0188,0.0,-4.9622,-4.966,-4.929,-4.8404,-4.9159,-4.9523,-4.8874,-4.9062,-4.8841,-4.7764,-4.7679,-4.7624,-4.7309,-4.686,-4.6262,-4.5574,-4.4317,-4.3139,-4.1908,0.0,0.0,0.0,0.0,0.0,0.0,0.0,0.0,0.0,0.0,0.0,0.0,0.0,0.0,0.0,0.0,0.0,0.0,0.0,0.0,0.0,0.0,0.0,0.0,0.0,0.0,0.0,0.0,0.0,-5.183,-5.5207,0.0,0.0,0.0,0.0,-5.7177,-5.7995,-5.8563,-5.8782,-5.9945,-6.1365,-6.3027,-6.4819,-6.6573,-6.8252,-7.1437,-7.2168,-7.0459,-6.7226,-6.7494,-7.0909,-7.092,-7.0892,-7.0892,-7.0882,-7.1286,-7.1679,-6.8127,-6.4609,-6.1445,-6.1445,-6.1445,-6.1445,-6.1639,-6.0702,-5.9335,-5.9258,-5.8711,-5.8398,-6.0781,-6.0807,-5.9879,-5.9899,-5.9072,0.0,0.0,-5.828,-5.8319,-5.8258,-5.8873,-5.9585,-5.9903,-5.962,-5.9174,-5.8719,-5.8178,-5.6895,-5.3892,-5.1656,-5.0921,-5.2962,0.0,-5.1419,-5.2087,-5.2204,-5.1862,-5.1088,-5.0857,-5.0994,-5.1645,-5.0822,-4.9852,-4.8841,-4.8759,-4.8293,-4.7396,-4.7279,-4.695,-4.6292,-4.4952,-4.398,-4.3286,-4.1478,0.0,0.0,0.0,0.0,0.0,0.0,0.0,0.0,0.0,0.0,0.0,0.0,0.0,0.0,0.0,0.0,0.0,0.0,0.0,0.0,0.0,0.0,0.0,0.0,0.0,0.0,0.0,0.0,-5.6418,-5.8804,0.0,-6.0207,-6.049,-6.1193,-6.2519,-6.2421,-6.2989,-6.4461,-6.5294,-6.6458,-6.8147,-6.9865,-7.1084,-7.167,-7.1776,-7.2611,-7.4168,-7.2957,-7.3024,-7.4197,-7.4197,-7.4168,-7.4168,-7.4197,-7.3099,-7.1214,-7.0512,-6.8161,-6.5039,-6.5039,-6.5039,-6.4922,-6.3789,-6.3242,-6.3008,-6.2617,-6.2265,-6.207,-6.2422,-6.183,-6.0822,-6.021,-5.9281,-5.8511,-5.8973,-5.9088,-5.9319,-6.0435,-6.055,-6.0441,-6.0867,-6.0395,-5.9625,-5.8874,-5.8549,-5.8178,-5.7298,-5.5305,-5.3892,-5.4153,-5.3384,-5.3148,-5.4358,-5.4548,-5.4296,-5.3535,-5.3802,-5.3484,-5.2065,-5.1598,-5.093,-4.9931,-4.9215,-4.8677,-4.8293,-4.7286,-4.6561,-4.6322,-4.5035,-4.3856,-4.2799,-4.2119,-4.1314,0.0,0.0,0.0,0.0,0.0,0.0,0.0,0.0,0.0,0.0,0.0,0.0,0.0,0.0,0.0,0.0,0.0,0.0,0.0,0.0,0.0,0.0,0.0,0.0,0.0,-5.3044,-5.5971,-5.8505,-6.2118,-6.4193,-6.3461,-6.4507,-6.5538,-6.6287,-6.6433,-6.7138,-6.8608,-6.9068,-7.0825,-7.4226,-7.5447,-7.5524,-7.435,-7.435,-7.5485,-7.7699,-7.6553,-7.6015,-7.6005,-7.6005,-7.6005,-7.6005,-7.6005,-7.4735,-7.2685,-7.3428,-7.1737,-6.8633,-6.8633,-6.8242,-6.7617,-6.6445,-6.5742,-6.5234,-6.4531,-6.4492,-6.4609,-6.3711,-6.2969,-6.218,-6.1226,-6.0403,-5.9858,-6.0319,-6.0396,-6.0627,-6.1781,-6.1666,-6.1233,-6.1196,-6.0637,-5.9885,-5.9102,-5.8796,-5.8809,-5.9117,-5.774,-5.6477,-5.6201,-5.5544,-5.5384,-5.6418,-5.6588,-5.6422,-5.5949,-5.5827,-5.5124,-5.3414,-5.2727,-5.1993,-5.1005,-4.9931,-4.9122,-4.85,-4.6879,-4.5873,-4.5663,-4.4796,-4.3898,-4.303,-4.2238,-4.1536,-4.0789,0.0,0.0,0.0,0.0,0.0,0.0,0.0,0.0,0.0,0.0,0.0,0.0,0.0,0.0,0.0,0.0,0.0,0.0,0.0,0.0,0.0,0.0,0.0,-5.353,-5.5329,-5.7011,-5.8224,-6.5384,-6.8345,-6.3712,-6.7105,-6.9353,-6.8787,-7.0171,-7.1065,-7.1044,-7.1159,-7.4243,-8.0885,-8.1107,-7.9507,-7.6186,-7.943,-8.1107,-8.1069,-7.7716,-7.6148,-7.6148,-7.6148,-7.6148,-7.6148,-7.6139,-7.6092,-7.6072,-7.6884,-7.5209,-7.2148,-7.2031,-7.0976,-6.9492,-6.9492,-6.7851,-6.5547,-6.4726,-6.4961,-6.5508,-6.4648,-6.4297,-6.4023,-6.3164,-6.2629,-6.2336,-6.2344,-6.2243,-6.2127,-6.2166,-6.2166,-6.1897,-6.1089,-6.0494,-6.0015,-5.9526,-5.9028,-5.8851,-5.92,-5.8584,-5.829,-5.9098,-5.8565,-5.8119,-5.8156,-5.8264,0.0,-5.8249,-5.686,-5.5848,-5.5848,-5.4424,-5.3144,-5.2098,-5.1038,-4.9691,-4.7978,-4.6285,-4.5027,-4.4317,-4.4257,-4.4257,-4.4287,-4.2093,-4.0487,-3.9642,0.0,0.0,0.0,0.0,0.0,0.0,0.0,0.0,0.0,0.0,0.0,0.0,0.0,0.0,0.0,0.0,0.0,0.0,0.0,0.0,0.0,-5.3383,-5.6151,-5.6862,-5.8646,-6.1418,-6.5661,-6.9575,-7.2225,-7.3209,-7.3382,-7.4044,-7.5589,-7.5015,-7.4619,-7.4597,-7.6955,-7.9169,-8.1047,-8.1085,-8.0662,-7.9715,-8.0623,-8.1116,-8.1116,-8.0161,-7.97,-7.97,-7.97,-7.97,-7.97,-7.9691,-7.8305,-7.6082,-7.6881,-7.6645,-7.5508,-7.3008,-7.1719,-7.1289,-7.1289,-6.9687,-6.7461,-6.7226,-6.6875,-6.6484,-6.625,-6.6172,-6.5937,-6.4961,-6.4164,-6.3583,-6.3418,-6.3267,-6.332,-6.3921,-6.3512,-6.2897,-6.2666,-6.2054,-6.1249,-6.0159,-5.9526,-5.9478,-6.037,-5.9632,-5.8951,-5.9171,-5.8553,-5.8457,-5.9591,-5.9807,-5.9792,-5.9852,-5.8508,-5.7298,-5.6675,-5.5243,-5.4193,-5.3883,-5.2395,-5.0855,-4.9256,-4.7056,-4.5441,-4.4527,-4.4067,-4.3761,-4.3599,-4.2892,-4.2702,0.0,0.0,0.0,0.0,0.0,0.0,0.0,0.0,0.0,0.0,0.0,0.0,0.0,0.0,0.0,0.0,0.0,0.0,0.0,0.0,0.0,0.0,-5.6644,-5.9917,-6.1081,-6.2204,-6.4348,-6.8174,-7.2153,-7.5257,-7.7123,-7.6468,-7.6948,-7.9385,-7.8696,-7.8146,-7.8146,-8.0015,-8.1093,-8.1093,-8.1093,-8.1093,-8.1093,-8.1093,-8.1124,-8.1124,-8.1124,-8.1085,-8.1116,-8.1116,-8.1116,-8.1116,-8.1077,-8.0172,-7.8549,-7.761,-7.7192,-7.6992,0.0,0.0,0.0,0.0,-7.1055,-6.9609,-6.8164,-6.7305,-6.6914,-6.6914,-6.6914,-6.6755,-6.6057,-6.5246,-6.4466,-6.4268,-6.4114,-6.4128,-6.4589,-6.4012,-6.3243,-6.2897,-6.2166,-6.1286,-6.0304,-5.9994,-6.0115,-6.0957,-6.01,0.0,-5.9648,-5.9318,-5.9208,-5.9832,-6.0456,-6.0896,-6.0944,-5.9629,-5.8471,-5.7946,-5.5921,-5.46,-5.46,-5.2957,0.0,0.0,0.0,-4.5991,-4.4706,-4.4335,0.0,0.0,0.0,-4.3389,-4.3509,-4.3455,0.0,0.0,-4.0756,-4.1233,0.0,0.0,0.0,0.0,0.0,0.0,0.0,0.0,0.0,0.0,0.0,0.0,0.0,0.0,0.0,0.0,-5.9943,-6.3857,-6.54,-6.5908,-6.6671,-6.8041,-7.3605,-7.7304,-7.7304,-7.7297,-7.836,-8.0923,-8.1115,-8.1093,-8.1093,-8.1093,0.0,0.0,0.0,-8.1093,-8.1093,-8.1093,-8.1093,-8.1093,-8.1093,-8.1093,-8.1093,-8.1093,-8.1093,-8.1093,-8.1085,-8.1556,-8.2064,-7.9037,-7.7564,-7.7187,-7.7187,-7.5078,-7.1992,-7.1992,-7.1992,-7.1562,-6.8515,0.0,0.0,-6.6914,-6.6914,-6.6859,-6.6592,-6.5935,-6.5235,-6.5041,-6.4897,-6.4782,-6.4782,-6.4166,-6.3358,-6.2435,-6.1627,-6.094,-6.0321,-6.0405,-6.0717,-6.1114,-6.0256,-5.9722,-6.0419,-6.0309,-5.9942,-5.9428,-6.0566,-6.152,-6.1704,-6.043,-5.9443,-5.943,-5.6694,0.0,-5.4702,-5.3094,-5.1437,-5.0052,-4.8362,-4.6757,-4.5309,-4.5148,-4.4603,-4.3698,-4.3539,-4.3269,-4.2701,-4.3269,-4.3353,-4.3023,-4.2829,-4.2814,0.0,0.0,0.0,0.0,0.0,0.0,0.0,0.0,0.0,0.0,0.0,0.0,0.0,0.0,0.0,-5.8932,-6.3365,-6.6882,-6.723,-6.9477,-7.1198,-7.1526,-7.4934,-7.7304,-7.7304,-7.7297,-7.836,-8.0923,-8.1115,-8.1093,-8.1093,-8.11,-8.11,-8.11,-8.11,-8.11,-8.11,-8.11,-8.11,-8.1093,-8.1093,0.0,-8.1093,-8.1093,-8.1093,-8.1093,-8.1093,-8.1561,-8.225,-8.1571,-7.9672,-7.7187,-7.7187,-7.5078,-7.1992,-7.1992,-7.1992,-7.1914,-7.125,-6.9219,-6.6914,-6.6914,-6.6914,-6.6859,-6.6592,-6.642,0.0,-6.614,-6.5936,-6.582,-6.582,-6.559,-6.5013,-6.3435,-6.2935,-6.2411,-6.0978,-6.0632,-6.0827,-6.1507,-6.1373,-6.119,-6.1337,-5.9758,-5.8841,-6.0015,-6.0419,-6.1117,-6.2401,-6.1224,-6.0275,-6.0175,-5.7939,-5.6162,-5.5549,-5.4125,-5.2539,-5.1024,-4.9359,-4.8253,-4.7985,-4.6992,-4.6423,-4.6189,-4.5374,-4.4855,-4.4736,-4.4855,-4.5161,-4.5565,-4.4984,-4.4588,0.0,0.0,0.0,0.0,0.0,0.0,0.0,0.0,0.0,0.0,0.0,-5.4597,-5.7753,0.0,-6.1715,-6.3595,-6.6032,-6.8808,-7.2024,-7.3897,-7.4872,-7.4897,-7.6301,-7.7304,-7.7304,-7.7297,-7.837,-8.0931,-8.1079,-8.108,-8.1109,-8.1085,-8.1869,-8.3548,-8.3593,-8.3593,-8.3625,-8.1939,-8.11,-8.11,-8.1093,-8.1093,-8.1093,-8.1093,-8.1093,-8.1124,-8.153,-8.1929,-8.2284,-8.2288,-8.0273,-7.7187,-7.7187,-7.6133,-7.4375,-7.2656,-7.1992,-7.1992,-7.1992,-7.0898,-6.9453,-6.9453,-6.9453,-6.925,-6.8062,-6.7741,-6.7616,-6.6936,-6.6667,-6.6513,-6.609,-6.5628,-6.5013,-6.4166,-6.3628,-6.3089,-6.2243,-6.1949,-6.1956,-6.2371,-6.2017,-6.1594,-6.1594,-6.0272,-5.9465,-6.0272,-6.0419,-6.086,-6.2034,-6.1547,-6.088,-6.0425,-5.8281,-5.6729,-5.6268,-5.4567,-5.301,-5.1826,-5.0624,-4.9726,-4.9288,-4.8673,-4.7882,-4.6811,-4.6291,-4.594,-4.5639,-4.5639,-4.6028,-4.68,-4.6471,-4.6215,0.0,0.0,0.0,0.0,0.0,0.0,0.0,-4.8964,-5.0838,-5.3816,-5.6413,-5.9611,-6.4185,-6.4689,-6.5314,-6.8168,-6.8632,-7.0678,-7.6484,-7.7327,-7.7584,-7.8185,-7.7683,-7.7304,-7.7279,-7.7312,-7.835,-8.0929,-8.1231,-8.1551,-8.2034,-8.2058,-8.3292,-8.6005,-8.612,-8.612,-8.6082,-8.3401,-8.1753,-8.11,-8.11,-8.1093,-8.1093,-8.1093,-8.1093,-8.1154,-8.1929,-8.2314,-8.2297,-8.228,-8.0273,-7.7187,-7.7187,-7.7187,-7.6875,-7.4062,-7.2578,-7.2109,-7.2773,-7.2578,-7.1992,-7.1992,-7.1992,-7.1636,-6.9624,-6.8975,-6.8667,-6.7628,-6.7244,-6.6936,-6.6282,-6.5513,-6.482,-6.4628,-6.4051,-6.3512,-6.3358,-6.3169,-6.3088,-6.3088,-6.2426,-6.1814,-6.1814,-6.1153,-6.0639,-6.0639,-6.0639,-6.0933,-6.1741,-6.187,-6.1516,-6.0738,-5.8673,-5.7126,-5.6633,-5.494,-5.3585,-5.2807,-5.2198,-5.1429,-5.0554,-5.0281,-4.9336,-4.7635,-4.7107,-4.664,-4.6256,-4.6207,-4.6595,-4.7309,-4.7309,-4.7309,-4.6454,-4.6599,-4.7524,-4.8219,-4.8928,-5.0532,0.0,-5.643,-5.7961,-6.1076,-6.4221,-6.679,-6.8128,-6.9265,-7.0433,-7.1742,-7.1927,-7.3202,-7.6789,-7.7285,-7.841,-8.1296,-7.905,-7.7268,-7.731,-7.7316,-7.8368,-8.0908,-8.1686,-8.3072,-8.545,-8.5527,-8.5714,-8.6094,-8.6132,-8.6094,-8.6088,-8.5742,-8.4055,-8.1106,-8.11,-8.11,-8.11,-8.1093,-8.1093,-8.1146,-8.1938,-8.2297,-8.2292,-8.2304,-8.0273,-7.7187,-7.7187,-7.7187,-7.7148,-7.6758,-7.4648,-7.2422,-7.5547,-7.4609,-7.1992,-7.1992,-7.1992,-7.1675,-7.0013,-6.9246,-6.8806,-6.8371,-6.7705,-6.709,-6.6974,-6.6359,-6.5551,-6.4782,-6.4551,-6.4243,-6.3474,-6.3169,-6.3088,-6.3088,-6.2873,-6.2695,-6.2695,-6.1998,-6.1484,-6.1484,-6.1484,-6.1741,-6.2585,-6.2631,-6.2339,-6.1551,-6.0,-5.8164,-5.5995,-5.5617,-5.5141,-5.4397,-5.4262,-5.3855,-5.3112,-5.1881,-5.1146,-5.0896,-4.8467,-4.7221,-4.7149,-4.7117,-4.7219,-4.7309,-4.7309,-4.7309,-5.0024,-4.9816,-4.991,-5.0186,-5.1217,-5.2622,-5.4524,-5.6667,-5.9158,-6.2319,-6.5504,-6.8401,-7.06,-7.1436,-7.2569,-7.4885,-7.5299,-7.6397,-7.968,-8.0167,-8.1406,-8.4599,-8.3797,-8.2227,-8.0339,-8.1543,-8.2879,-8.3915,-8.6164,-8.791,-8.8998,-8.9066,-8.9051,-8.9051,-8.7137,-8.6099,-8.6099,-8.6094,-8.5401,-8.4022,-8.4016,-8.2978,-8.11,-8.11,-8.1368,-8.1812,-8.2137,-8.2304,-8.2304,-8.2304,-8.1445,-7.9961,-7.7969,-7.7187,-7.7187,-7.7187,-7.6289,-7.5234,-7.668,-7.4922,-7.1992,-7.1992,-7.1992,-7.1831,-7.0881,-7.0505,-7.0244,-6.9398,-6.8552,-6.7744,-6.7244,-6.6513,-6.582,-6.5436,-6.5359,-6.5243,-6.4897,-6.4305,-6.3879,-6.3879,-6.3282,-6.2805,-6.2805,-6.2511,-6.2291,-6.2291,-6.1887,-6.1887,-6.2695,-6.2805,-6.2141,-6.0411,-5.9681,-5.8269,-5.589,-5.6089,-5.6055,-5.5277,-5.497,-5.4631,-5.4327,-5.3238,-5.2615,-5.2653,-5.1495,-4.9703,-4.7311,-4.7276,-4.7286,-4.7257,-4.7282,-4.7549,-5.0989,-5.0925,-5.1028,-5.1127,-5.2976,-5.4975,-5.5927,-5.8561,-6.1768,-6.495,-6.7787,-7.0405,-7.2715,-7.352,-7.4604,-7.6913,-7.7291,-7.8453,-8.1745,-8.296,-8.4092,-8.5475,-8.4866,-8.3804,-8.233,-8.5418,-8.7544,-8.7483,-8.9803,-9.1213,-9.1181,-9.1218,-9.1202,-9.1202,-8.8786,-8.7521,-8.7483,-8.7478,-8.705,-8.6094,-8.612,-8.485,-8.2439,-8.1523,-8.153,-8.2294,-8.2315,-8.2304,-8.2304,-8.2304,-8.2304,-8.1953,-7.8555,-7.7187,-7.7187,-7.7187,-7.7187,-7.7187,-7.7187,-7.4922,-7.1992,-7.1992,-7.1992,-7.191,-7.1505,-7.1396,-7.131,-7.0321,-6.9244,-6.8244,-6.7628,-6.6667,-6.5897,-6.5897,-6.5897,-6.5897,-6.5897,-6.5105,-6.437,-6.437,-6.3505,-6.2805,-6.2805,-6.2805,-6.2805,-6.2805,-6.2291,-6.2144,-6.2732,-6.2805,-6.2,-5.9799,-5.9547,-5.8654,-5.6467,-5.6799,-5.6799,-5.6055,-5.5542,-5.5168,-5.4932,-5.402,-5.3539,-5.3506,-5.3455,-5.1789,-4.8419,-4.8364,-4.7997,-4.7289,-4.7583,-4.8027,-4.8316,-4.9028,-5.0585,-5.1078,-5.4494,-5.8648,-6.1952,-6.5089,-6.8247,-7.1526,-7.353,-7.4702,-7.4835,-7.6106,-7.7231,-7.7304,-7.7265,-7.8463,-8.1745,-8.4922,-8.5705,-8.2692,-7.9515,-7.8793,-8.1859,-8.7555,-9.105,-9.1021,-9.1129,-9.1171,-9.1175,-9.121,-9.121,-9.1206,-9.1091,-9.1048,-9.1044,-9.1044,-8.9393,-8.6094,-8.612,-8.6043,-8.5812,-8.2586,-8.1556,-8.2294,-8.2315,-8.2304,-8.2304,-8.2304,-8.2304,-8.1953,-7.8555,-7.7187,-7.7187,-7.7187,-7.7187,-7.7187,-7.7187,-7.4922,-7.1992,-7.1992,-7.1992,-7.1949,-7.1583,-7.1474,-7.1426,-7.0975,-6.9667,-6.8398,-6.8359,-6.7128,-6.5897,-6.5897,-6.5897,-6.5897,-6.5897,-6.5105,-6.437,-6.437,-6.3505,-6.2805,-6.2805,-6.2805,-6.2805,-6.2805,-6.2805,-6.2768,-6.2805,-6.2805,-6.2166,-6.0544,-6.0361,-5.9669,-5.7959,-5.7848,-5.7543,-5.6799,-5.6491,-5.5913,-5.4932,-5.4015,-5.3539,-5.3469,-5.3486,-5.2714,-5.1072,-5.1111,-4.9774,-4.7315,-4.8148,-4.8536,-5.049,-5.1234,-5.3956,-6.0072,-6.2659,-6.4641,-6.7832,-7.1372,-7.4343,-7.5482,-7.6153,-7.647,-7.6516,-7.6898,-7.7303,-7.7303,-7.7316,-7.8437,-8.1737,-8.3088,-8.2582,-7.9324,-7.7989,-7.7756,-7.8871,-8.4311,-8.8768,-9.1042,-9.1208,-9.1219,-9.1176,-9.1183,-9.121,-9.121,-9.121,-9.1206,-9.1202,-8.894,-8.7248,-8.606,-8.383,-8.2753,-8.2715,-8.1631,-8.1244,-8.1542,-8.2078,-8.2304,-8.2304,-8.2304,-8.2304,-8.2187,-8.1015,-7.9219,-7.7187,-7.7187,-7.7187,-7.7187,-7.7187,-7.4922,-7.1992,-7.1992,-7.2773,-7.3472,-7.205,-7.1959,-7.2157,-7.1168,-7.0129,-6.9129,-6.8552,-6.7552,-6.6551,-6.6013,-6.5897,-6.5897,-6.5897,-6.5105,-6.437,-6.437,-6.3505,-6.2805,-6.2805,-6.2805,-6.2805,-6.2805,-6.2805,-6.2805,-6.2805,-6.2805,-6.2166,-6.058,-6.0397,-5.9704,-5.7993,-5.7881,-5.778,-5.7543,-5.7476,-5.72,-5.6896,-5.663,-5.6427,-5.6427,-5.6445,-5.6139,-5.562,-5.2635,-5.0723,-4.9934,-5.0166,-5.0299,-5.3036,-5.3964,-5.721,-6.6153,-6.8404,-6.8934,-7.0867,-7.4401,-7.7264,-7.7312,-7.7304,-7.6589,-7.428,-7.2893,-7.3281,-7.6722,-7.832,-7.9779,-8.1912,-8.2206,-8.1443,-7.9288,-7.8025,-7.7302,-7.7319,-8.0745,-8.4329,-8.7743,-8.9032,-9.0135,-9.114,-9.122,-9.121,-9.121,-9.121,-9.121,-9.1206,-8.7829,-8.6099,-8.6055,-8.3939,-8.2253,-8.11,-8.1131,-8.1093,-8.1116,-8.1935,-8.2289,-8.2304,-8.2304,-8.2304,-8.2304,-8.2304,-8.0195,-7.7187,-7.7187,-7.7187,-7.7187,-7.7187,-7.5742,-7.3633,-7.2383,-7.2773,-7.355,-7.2947,-7.254,-7.2118,-7.1168,-7.0514,-6.9975,-6.9436,-6.8013,-6.6526,-6.6013,-6.5897,-6.5846,-6.5663,-6.4971,-6.4332,-6.4138,-6.3408,-6.2915,-6.3209,-6.3282,-6.3172,-6.2879,-6.2805,-6.2805,-6.2805,-6.2805,-6.2271,-6.0938,-6.082,-6.0149,-5.8424,-5.8317,-5.8209,-5.7881,-5.7876,-5.791,-5.791,-5.7881,-5.7887,-5.7887,-5.7917,-5.7916,-5.7853,-5.4955,-5.3605,-5.3561,-5.1933,-5.1172,-5.5913,-5.7099,-6.0403,-6.9149,-7.1336,-7.1299,-7.127,-7.4272,-7.7012,-7.7264,-7.7275,-7.5301,-6.8699,-6.4882,-6.5836,-7.5306,-7.9527,-8.171,-8.1708,-8.2139,-8.2397,-8.2186,-7.9434,-7.7632,-7.7786,-7.7781,-7.9082,-8.2167,-8.5228,-8.8188,-9.1024,-9.121,-9.121,-9.121,-9.121,-9.121,-9.1206,-8.7829,-8.6099,-8.6082,-8.5928,-8.4164,-8.1093,-8.1093,-8.1093,-8.1154,-8.1951,-8.2309,-8.2304,-8.2304,-8.2304,-8.2304,-8.2304,-8.0312,-7.7422,-7.7265,-7.7187,-7.7187,-7.7187,-7.7187,-7.664,-7.3125,-7.1991,-7.233,-7.3976,-7.3178,-7.1657,-7.1063,-7.0898,-7.0887,-7.0887,-6.8525,-6.6127,-6.6064,-6.6026,-6.5843,-6.5307,-6.4845,-6.4367,-6.383,-6.3279,-6.3172,-6.3943,-6.409,-6.3796,-6.2952,-6.2805,-6.2805,-6.2805,-6.2805,-6.2515,-6.1715,-6.1604,-6.0902,-5.9245,-5.9111,-5.8737,-5.7954,-5.7938,-5.7891,-5.7924,-5.8025,-5.8025,-5.7924,-5.7924,-5.7968,-5.8108,-5.7978,-5.7953,-5.8073,-5.3746,-5.1603,-5.9152,-6.1716,-6.5612,-7.0153,-7.1274,-7.1333,-7.1325,-7.2126,-7.365,-7.6663,-7.7303,-7.4607,-6.5685,-6.3321,-6.4436,-6.9315,-7.2814,-7.4997,-7.4994,-8.122,-8.4882,-8.2488,-8.1446,-8.1879,-8.4301,-8.4558,-8.4685,-8.507,-8.5842,-8.7731,-9.1008,-9.1181,-9.1175,-9.121,-9.121,-9.121,-9.1206,-8.7791,-8.6099,-8.6088,-8.3593,-8.1946,-8.1068,-8.1131,-8.1093,-8.1154,-8.1951,-8.2309,-8.2304,-8.2304,-8.2304,-8.2304,-8.2304,-8.1758,-8.0703,-7.8125,-7.7187,-7.7187,-7.7187,-7.7187,-7.664,-7.3125,-7.2004,-7.2052,-7.2524,-7.3876,-7.4676,-7.1745,-7.0898,-7.0898,-7.0887,-7.0271,-6.9321,-6.8052,-6.7448,-6.6995,-6.6275,-6.6175,-6.6024,-6.5471,-6.5016,-6.453,-6.4163,-6.409,-6.3796,-6.2952,-6.2805,-6.2805,-6.2805,-6.2805,-6.2515,-6.1715,-6.1604,-6.0902,-5.9245,-5.9111,-5.8737,-5.7938,-5.7857,-5.7883,-5.7943,-6.0088,-6.019,-5.7976,-5.7867,-5.8968,-6.1249,-5.8974,-5.9097,-6.125,-6.0093,-5.6595,-6.3066,-6.5359,-6.8358,-7.0758,-7.1334,-7.1328,-7.133,-7.2647,-7.4189,-7.5004,-7.1745,-6.7122,-6.1708,-6.0699,-6.3185,-7.068,-7.4639,-7.7249,-7.869,-8.3581,-8.6317,-8.4505,-8.4259,-8.5557,-8.8784,-8.9088,-8.8895,-8.839,-8.7201,-8.851,-9.3174,-9.2028,-9.121,-9.121,-9.121,-9.1171,-9.1202,-8.7825,-8.6132,-8.6088,-8.417,-8.2554,-8.11,-8.1093,-8.1093,-8.1154,-8.1951,-8.2309,-8.2304,-8.2304,-8.2304,-8.2304,-8.2304,-8.2304,-8.1875,-7.8476,-7.7187,-7.7187,-7.7187,-7.7187,-7.6875,-7.4922,-7.4288,-7.4235,-7.3867,-7.4973,-7.5562,-7.1937,-7.0871,-7.0898,-7.0925,-7.0925,-7.0656,-6.9706,-6.9283,-6.8789,-6.7865,-6.7311,-6.6657,-6.5858,-6.5778,-6.5558,-6.4751,-6.4934,-6.4861,-6.4016,-6.3613,-6.3392,-6.3392,-6.3062,-6.2618,-6.2182,-6.2129,-6.16,-6.0288,-6.0054,-5.9596,-5.8612,-5.8119,-5.7867,-5.7916,-6.0833,-6.1596,-5.9928,-5.9818,-6.0732,-6.2377,-6.0723,-6.0762,-6.2392,-6.2374,-6.0102,-6.6925,-6.8257,-6.9714,-7.0951,-7.1312,-7.1287,-7.1268,-7.3089,-7.4046,-7.1659,-6.3775,-5.7421,-5.7942,-5.8017,-6.2238,-7.5199,-8.0073,-8.3337,-8.6537,-8.6996,-8.7157,-8.7578,-8.7292,-8.8293,-9.1473,-9.2132,-9.2061,-9.134,-8.9383,-9.0409,-9.5365,-9.2787,-9.121,-9.121,-9.121,-9.0979,-9.0548,-8.7594,-8.6094,-8.6082,-8.5658,-8.3894,-8.1093,-8.1093,-8.1093,-8.1154,-8.1951,-8.2309,-8.2304,-8.2304,-8.2304,-8.2304,-8.2304,-8.2304,-8.1953,-7.8984,-7.7578,-7.7187,-7.7187,-7.7187,-7.7187,-7.7187,-7.7206,-7.7023,-7.6244,-7.5649,-7.4686,-7.1717,-7.0909,-7.0898,-7.0898,-7.0898,-7.0898,-7.0925,-7.0887,-7.0651,-6.9649,-6.8223,-6.6866,-6.5851,-6.6182,-6.6402,-6.5595,-6.6035,-6.6219,-6.5411,-6.4604,-6.409,-6.409,-6.3356,-6.2805,-6.2805,-6.2805,-6.2457,-6.1583,-6.1344,-6.0683,-5.9254,-5.8547,-5.826,-5.8474,-6.1052,-6.2411,-6.2411,-6.2411,-6.2387,-6.237,-6.2402,-6.2391,-6.2368,-6.2421,-6.2381,-6.858,-6.9815,-7.0951,-7.1278,-7.1312,-7.126,-7.133,-6.6115,-6.1849,-6.4037,-5.9036,-5.5044,-5.7514,-5.8031,-6.2235,-7.5199,-8.0045,-8.3324,-8.6524,-8.7016,-8.7978,-9.0619,-8.8649,-8.8272,-9.1471,-9.4036,-9.4495,-9.1881,-9.3541,-9.3912,-9.216,-9.1529,-9.1175,-9.121,-9.121,-8.9863,-8.7022,-8.6411,-8.6099,-8.6055,-8.3292,-8.1644,-8.1106,-8.11,-8.1093,-8.1154,-8.1951,-8.2309,-8.2304,-8.2304,-8.2304,-8.2304,-8.2304,-8.2304,-8.2226,-8.164,-7.9648,-7.7187,-7.7187,-7.7187,-7.7187,-7.7187,-7.722,-7.7059,-7.6234,-7.4053,-7.1678,-7.1074,-7.0909,-7.0898,-7.0898,-7.0898,-7.0898,-7.0909,-7.0898,-7.0853,-7.0653,-6.9011,-6.7523,-6.7332,-6.7393,-6.7247,-6.6439,-6.6402,-6.6219,-6.5411,-6.4604,-6.409,-6.409,-6.3356,-6.2805,-6.2805,-6.2805,-6.2457,-6.1583,-6.1494,-6.0555,-5.8294,-5.9108,-6.028,-6.1548,-6.2144,-6.2425,-6.2425,-6.2425,-6.2391,-6.2358,-6.2425,-6.237,-6.2425,-6.2401,-6.2382,-7.0123,-7.0731,-7.13,-7.1318,-7.1314,-7.1268,-7.1321,-6.317,-5.6507,-5.9663,-5.7891,-5.6273,-5.7758,-5.9372,-6.2515,-6.875,-7.6733,-8.2732,-8.4276,-8.5979,-8.8157,-9.1462,-9.0443,-9.0094,-9.1665,-9.4547,-9.5045,-9.2007,-9.4567,-9.4796,-9.141,-9.1183,-9.1175,-9.1171,-9.1206,-9.0398,-8.8782,-8.7017,-8.6094,-8.6088,-8.4472,-8.2785,-8.11,-8.1093,-8.1093,-8.1154,-8.1951,-8.2309,-8.2304,-8.2304,-8.2304,-8.2304,-8.2304,-8.2304,-8.2304,-8.2304,-8.0156,-7.7187,-7.7187,-7.7187,-7.7187,-7.7187,-7.7211,-7.7151,-7.6749,-7.5194,-7.3178,-7.1391,-7.092,-7.0882,-7.0882,-7.0882,-7.0882,-7.092,-7.0882,-7.0891,-7.0912,-6.9649,-6.8352,-6.7826,-6.7687,-6.7577,-6.7173,-6.71,-6.699,-6.6623,-6.5852,-6.5338,-6.5338,-6.464,-6.3796,-6.2915,-6.3576,-6.3746,-6.2809,-6.2856,-6.2188,-6.0353,-6.087,-6.162,-6.2347,-6.2381,-6.2381,-6.2381,-6.2381,-6.2381,-6.2381,-6.2403,-6.2425,-6.2401,-6.3971,-6.4705,-7.1422,-7.1302,-7.128,-7.1297,-7.1966,-7.216,-7.0628,-6.2112,-5.515,-5.7504,-5.8006,-5.8019,-5.7992,-6.004,-6.1739,-6.1777,-7.0919,-7.8248,-7.9019,-8.3696,-8.7925,-9.0475,-9.136,-9.2023,-9.2712,-9.4917,-9.5291,-9.2945,-9.496,-9.5113,-9.2446,-9.1598,-9.1175,-9.1206,-9.0475,-9.009,-9.0086,-8.7473,-8.6094,-8.6082,-8.5389,-8.3664,-8.1131,-8.1093,-8.1093,-8.1124,-8.194,-8.2284,-8.2304,-8.2304,-8.2304,-8.2304,-8.2304,-8.2304,-8.2304,-8.2304,-8.0156,-7.7187,-7.7187,-7.7187,-7.7187,-7.7187,-7.7215,-7.7153,-7.6998,-7.6498,-7.5428,-7.2755,-7.1996,-7.1996,-7.1996,-7.1996,-7.1986,-7.1986,-7.1996,-7.1981,-7.1976,-7.0369,-6.8703,-6.7841,-6.7687,-6.7687,-6.7687,-6.7687,-6.7687,-6.7687,-6.7026,-6.6512,-6.6512,-6.5962,-6.5007,-6.3503,-6.453,-6.4984,-6.4202,-6.4238,-6.3912,-6.2989,-6.2643,-6.238,-6.2425,-6.2381,-6.2381,-6.2381,-6.2448,-6.237,-6.237,-6.2413,-6.2704,-6.3404,-6.5671,-6.6777,-7.1592,-7.1336,-7.1311,-7.1325,-7.4071,-7.5075,-6.8635,-6.2202,-5.7647,-5.7944,-5.8008,-5.8024,-5.7993,-5.8249,-5.8434,-5.8425,-6.1877,-6.5621,-6.8631,-7.9416,-8.7144,-8.7402,-9.0039,-9.2899,-9.5649,-9.6103,-9.6191,-9.5875,-9.6158,-9.615,-9.5861,-9.2864,-9.1175,-9.121,-8.8179,-8.6569,-8.6565,-8.6252,-8.6099,-8.6055,-8.3022,-8.1414,-8.1106,-8.11,-8.1093,-8.1131,-8.1955,-8.23,-8.2304,-8.2304,-8.2304,-8.2304,-8.2304,-8.2304,-8.2304,-8.2304,-8.0156,-7.7187,-7.7187,-7.7187,-7.7187,-7.7187,-7.7209,-7.7081,-7.6321,-7.6062,-7.5957,-7.562,-7.5533,-7.5523,-7.5533,-7.5523,-7.5512,-7.5551,-7.5533,-7.5518,-7.555,-7.1471,-6.7835,-6.7731,-6.7687,-6.7687,-6.7687,-6.7687,-6.7687,-6.7687,-6.7026,-6.6512,-6.6512,-6.6439,-6.6035,-6.5154,-6.5228,-6.5204,-6.5019,-6.4577,-6.4448,-6.4737,-6.33,-6.237,-6.2425,-6.2381,-6.2381,-6.2381,-6.2425,-6.2413,-6.2413,-6.2374,-6.3795,-6.6418,-6.6622,-6.6792,-7.2432,-7.221,-7.1902,-7.4307,-7.3202,-7.0508,-6.6762,-6.1794,-5.7968,-5.8019,-5.8004,-5.7997,-5.7987,-5.8024,-5.7993,-5.7983,-6.0697,-6.3941,-6.7201,-7.7179,-8.4842,-8.6789,-8.9841,-9.2282,-9.3464,-9.5216,-9.5582,-9.3743,-9.5287,-9.629,-9.6284,-9.3056,-9.1213,-9.1171,-8.9863,-8.8209,-8.6103,-8.6099,-8.6094,-8.6049,-8.4741,-8.3054,-8.11,-8.1093,-8.1358,-8.1846,-8.2179,-8.2301,-8.2304,-8.2304,-8.2304,-8.2304,-8.2304,-8.2304,-8.2304,-8.2304,-8.1445,-8.0273,-8.0273,-7.8906,-7.7183,-7.7209,-7.7215,-7.7074,-7.6233,-7.5976,-7.6005,-7.6005,-7.6005,-7.5543,-7.3457,-7.2919,-7.3447,-7.5505,-7.6005,-7.601,-7.6004,-7.1592,-6.7723,-6.7691,-6.7715,-6.7707,-6.7687,-6.7687,-6.7687,-6.7687,-6.743,-6.721,-6.721,-6.721,-6.71,-6.6769,-6.6733,-6.6553,-6.597,-6.6189,-6.6427,-6.6599,-6.6004,-6.4662,-6.2514,-6.2401,-6.2401,-6.2401,-6.2421,-6.3256,-6.5094,-6.5101,-6.5677,-6.6758,-6.681,-6.6761,-7.2264,-7.2686,-7.2602,-7.5649,-7.2749,-6.8293,-6.5234,-6.1172,-5.7999,-5.7993,-5.7997,-5.7997,-5.7997,-5.7997,-5.7987,-5.7982,-6.0664,-6.3626,-6.5934,-7.2981,-7.9135,-8.2316,-8.7247,-9.0749,-9.1696,-9.4517,-9.5414,-9.3294,-9.5099,-9.5867,-9.4862,-9.2482,-9.1213,-9.1206,-9.1202,-8.9552,-8.6137,-8.6132,-8.6126,-8.6082,-8.5087,-8.3394,-8.1093,-8.1093,-8.1543,-8.2314,-8.2319,-8.2298,-8.2304,-8.2304,-8.2304,-8.2304,-8.2304,-8.2304,-8.2304,-8.2304,-8.2304,-8.2304,-8.2304,-8.0078,-7.7211,-7.7179,-7.7021,-7.6728,-7.6184,-7.6015,-7.6015,-7.6015,-7.6015,-7.5476,-7.3005,-7.24,-7.3005,-7.5438,-7.5976,-7.6002,-7.5991,-7.2926,-6.9923,-6.9239,-6.8365,-6.7799,-6.8128,-6.7907,-6.7871,-6.8348,-6.7981,-6.7797,-6.8017,-6.7834,-6.7797,-6.8017,-6.8054,-6.7834,-6.7247,-6.7486,-6.7716,-6.7725,-6.7522,-6.6286,-6.377,-6.369,-6.3746,-6.3694,-6.3728,-6.4701,-6.6834,-6.6758,-6.6777,-6.6777,-6.6829,-6.6812,-7.0786,-7.23,-7.3411,-7.4128,-7.338,-7.0762,-6.4294,-6.0316,-5.8006,-5.8014,-5.7997,-5.7997,-5.7997,-5.7997,-5.7987,-5.8004,-6.0676,-6.2842,-6.2838,-6.5733,-6.907,-7.2267,-8.1155,-8.8295,-9.15,-9.45,-9.6261,-9.6251,-9.6274,-9.4811,-9.1408,-9.1213,-9.121,-9.1206,-9.1202,-8.9552,-8.6137,-8.6132,-8.6094,-8.6049,-8.2753,-8.1106,-8.11,-8.1093,-8.154,-8.23,-8.2293,-8.2304,-8.2304,-8.2304,-8.2304,-8.2304,-8.2304,-8.2304,-8.2304,-8.2304,-8.2304,-8.2304,-8.2304,-8.0078,-7.7211,-7.7179,-7.6669,-7.5994,-7.6015,-7.6015,-7.6015,-7.6015,-7.6015,-7.5976,-7.5957,-7.5928,-7.5938,-7.6005,-7.6005,-7.6002,-7.5987,-7.597,-7.5258,-7.2904,-6.985,-6.8055,-6.9082,-6.8403,-6.8239,-6.9853,-6.8715,-6.7981,-6.8788,-6.8201,-6.7981,-6.8788,-6.8898,-6.8898,-6.8898,-6.8147,-6.7716,-6.7714,-6.7132,-6.6815,-6.6791,-6.6751,-6.6789,-6.6779,-6.6704,-6.6724,-6.6758,-6.6795,-6.6812,-6.6812,-6.6812,-6.6812,-6.2618,-6.4721,-6.5929,-6.6426,-6.5663,-6.4445,-6.3126,-6.1615,-5.9969,-5.8317,-5.7997,-5.7997,-5.7997,-5.7997,-5.9448,-6.3933,-6.3567,-6.2805,-6.2798,-6.5661,-6.8065,-6.914,-7.9755,-8.8259,-9.1507,-9.454,-9.6312,-9.6316,-9.4136,-9.2334,-9.1252,-9.1175,-9.121,-9.121,-8.894,-8.7175,-8.6103,-8.6099,-8.6094,-8.6049,-8.2682,-8.1074,-8.11,-8.1093,-8.1543,-8.2276,-8.1718,-8.1805,-8.2304,-8.2304,-8.2304,-8.2304,-8.2304,-8.2304,-8.2304,-8.2304,-8.2304,-8.2304,-8.2304,-8.0051,-7.7217,-7.7209,-7.6645,-7.6438,-7.8797,-7.7852,-7.6024,-7.5985,-7.6015,-7.6015,-7.6005,-7.5976,-7.6015,-7.5976,-7.5976,-7.5985,-7.601,-7.4167,-7.1864,-6.9662,-6.8398,-6.849,-7.1056,-7.0565,-6.9926,-7.0073,-6.9669,-6.9412,-6.9706,-6.9486,-6.9449,-6.9706,-7.022,-7.033,-6.9779,-6.9467,-6.9347,-6.9327,-7.0148,-7.0728,-7.0699,-6.8194,-6.6816,-6.678,-6.6787,-6.6795,-6.6795,-6.6779,-6.6812,-6.6812,-6.6812,-6.6812,-5.7003,-5.9692,-6.1544,-6.2962,-6.2596,-6.2036,-6.2313,-6.1536,-6.0199,-5.839,-5.7997,-5.7997,-5.7997,-5.7997,-5.9338,-6.3379,-6.2977,-6.2781,-6.4412,-6.5879,-6.882,-7.4324,-8.2075,-8.8708,-9.3087,-9.3059,-9.3239,-9.4283,-9.2373,-9.1213,-9.1175,-9.121,-9.121,-9.121,-8.9133,-8.7406,-8.6137,-8.6099,-8.6094,-8.6088,-8.3984,-8.2984,-8.2932,-8.167,-8.1358,-8.1829,-8.164,-8.1842,0.0,-8.2301,-8.2304,-8.2304,-8.2304,-8.2304,-8.2304,-8.2304,-8.2304,-8.2304,-8.2304,-8.0918,-7.8915,-7.7601,-7.6673,-7.6399,-7.8545,-7.8584,-7.763,-7.6361,-7.6015,-7.6015,-7.6015,-7.6015,-7.6015,-7.6015,-7.6015,-7.6015,-7.5976,-7.4331,-7.2427,-7.1058,-7.0842,-7.1181,-7.2335,-7.196,-7.1377,-7.1064,-7.0477,-7.022,-7.0513,-7.0293,-7.022,-7.0513,-7.1027,-7.1248,-7.1027,-7.0991,-7.104,-7.0981,-7.1976,-7.2527,-7.2534,-7.0199,-6.8252,-6.6807,-6.6787,-6.6812,-6.6812,-6.6812,-6.6812,-6.6812,-6.6812,-6.6812,0.0,-5.6667,-5.9556,-6.2437,-6.2842,-6.2317,-6.1548,-6.0305,0.0,-5.8197,-5.7997,-5.7997,-5.7997,-5.7997,-5.8033,-5.818,-5.9916,-6.2733,-6.7031,-6.6956,-7.1505,-8.5028,-8.6841,-8.9299,-9.5224,-9.0637,-8.8398,-9.1028,-9.1177,-9.1175,-9.121,-9.121,-9.1171,-9.1206,-9.0971,-8.9282,-8.6132,-8.6094,-8.6094,-8.6088,-8.612,-8.5998,-8.5652,-8.2509,-8.1093,-8.1146,-8.1889,-8.2248,-8.2298,-8.2285,-8.2304,-8.2304,-8.2304,-8.2304,-8.2304,-8.2304,-8.2304,-8.2304,-8.2304,-8.2304,-8.1784,-7.8585,-7.7035,-7.634,-7.6356,-7.8438,-8.0058,-7.689,-7.6015,-7.6015,-7.6015,-7.6015,-7.6015,-7.6015,-7.6015,-7.5976,-7.6005,-7.6031,-7.5994,-7.5991,-7.5986,-7.5245,-7.2907,-7.2532,-7.252,-7.2496,-7.1211,-7.055,-7.1321,-7.0734,-7.055,-7.1321,-7.1394,-7.1688,-7.2459,-7.2496,-7.2496,-7.2496,-7.2496,-7.2496,-7.25,-7.2498,-7.0733,-6.685,-6.6753,-6.6846,-6.6846,-6.6812,-6.6812,-6.6846,-6.6812,-6.6812,-5.0118,0.0,-5.4093,-5.5559,-5.7193,-5.8281,0.0,-5.866,-5.8981,-5.8134,-5.7997,-5.7997,-5.7997,-5.7997,-5.851,-6.0173,-6.1055,-6.2671,-6.5992,-7.3258,-7.9496,-8.2892,-8.5483,-8.7998,-9.0531,-9.0418,-9.049,-9.1135,-9.1183,-9.121,-9.1206,-9.1206,-9.1206,-9.1202,-8.8666,-8.694,-8.6099,-8.6094,-8.6094,-8.6088,-8.6088,-8.478,-8.2247,-8.1446,-8.11,-8.1124,-8.1311,-8.1742,-8.2289,-8.2303,-8.2304,-8.2304,-8.2304,-8.2304,-8.2304,-8.2304,-8.2304,-8.2304,-8.2304,-8.2304,-8.2187,-8.1368,-8.0586,-7.9922,-7.99,-7.8631,-7.7024,-7.6225,-7.6024,-7.5985,-7.6015,-7.6015,-7.6015,-7.6015,-7.6015,-7.6015,-7.5976,-7.5994,-7.601,-7.5972,-7.5997,-7.5238,-7.2912,-7.2496,-7.2479,-7.248,-7.2165,-7.2018,-7.2202,-7.2055,-7.2018,-7.2202,-7.2239,-7.2312,-7.2496,-7.2496,-7.2496,-7.2496,-7.2496,-7.2511,-7.2482,-7.2463,-7.069,-6.6834,-6.6814,-6.6761,-6.6761,-6.6796,-6.6796,-6.6846,-6.6796,-6.6812,-4.9018,-5.0304,-5.1931,-5.3186,-5.4383,-5.5379,-5.5722,-5.6747,-5.7546,-5.7474,-5.774,-5.7997,-5.7997,-5.829,-5.8914,-6.01,-6.163,-6.3709,-6.6445,-7.397,-8.0221,-8.2816,-8.4666,-8.6567,-8.872,-8.9615,-9.0033,-9.0033,-8.9338,-8.9556,-9.1091,-9.1202,-9.0475,-8.8897,-8.7094,-8.6099,-8.6099,-8.6094,-8.6126,-8.6088,-8.4516,-8.2862,-8.11,-8.11,-8.1093,-8.1093,-8.1093,-8.1349,-8.1792,-8.2168,-8.2304,-8.2304,-8.2304,-8.2304,-8.2304,-8.2304,-8.2304,-8.2304,-8.2304,-8.2304,-8.2304,-8.2304,-8.2026,-8.1668,-8.1644,-8.0106,-7.8331,-7.8361,-7.7216,-7.5994,-7.5985,-7.5985,-7.5985,-7.5985,-7.5985,-7.5985,-7.5985,-7.5985,-7.5985,-7.6015,-7.5978,-7.5589,-7.433,-7.3221,-7.2481,-7.2482,-7.2539,-7.2496,-7.2496,-7.2496,-7.2496,-7.2496,-7.2496,-7.2496,-7.2496,-7.2496,-7.2496,-7.2496,-7.2496,-7.2496,-7.2496,-7.2496,-7.1359,-6.8863,-6.7516,-6.6791,-6.6791,-6.8166,-6.8132,-6.6791,-6.6761,-6.6812,-4.9548,-5.054,-5.1749,-5.2955,-5.3349,-5.3602,-5.4323,-5.5111,-5.5837,-5.6511,-5.7262,-5.7813,-5.7813,-5.8694,-5.9391,-5.9391,-6.2365,-6.5563,-6.8231,-7.293,-7.7931,-8.2893,-8.3994,-8.5357,-8.7938,-8.8256,-8.8383,-8.8521,-8.7022,-8.7368,-9.0278,-9.0432,-8.909,-8.6176,-8.6099,-8.6099,-8.6094,-8.6126,-8.5857,-8.5318,-8.2446,-8.11,-8.11,-8.1093,-8.1093,-8.1093,-8.1093,-8.1093,-8.1176,-8.196,-8.2295,-8.2304,-8.2304,-8.2304,-8.2304,-8.2304,-8.2304,-8.2304,-8.2304,-8.2304,-8.2304,-8.2304,-8.2296,-8.2302,-8.2294,-8.1749,-8.1093,-8.1116,-7.9015,-7.6763,-7.6754,-7.637,-7.6024,-7.6024,-7.6408,-7.6754,-7.6754,-7.637,-7.6148,-7.6669,-7.6388,-7.6002,-7.6004,-7.4325,-7.292,-7.2559,-7.2539,-7.2532,-7.2532,-7.2496,-7.2496,-7.2496,-7.2532,-7.2532,-7.2532,-7.2475,-7.2475,-7.2475,-7.2532,-7.2496,-7.2532,-7.2471,-7.2147,-7.1329,-6.8774,-6.7468,-6.7468,-7.0018,-6.9964,-6.7497,-6.7468,-6.7214,-5.19,-5.2709,-5.279,-5.2242,-5.2785,-5.358,-5.4353,-5.5087,-5.5668,-5.5757,-5.6418,-5.6969,-5.6969,-5.8767,-6.0236,-6.0236,-6.4127,-6.8495,-7.2255,-7.5754,-7.8515,-8.004,-8.2896,-8.4986,-8.5655,-8.6202,-8.688,-8.7863,-8.6791,-8.6334,-8.6829,-8.6868,-8.6637,-8.6137,-8.6099,-8.6094,-8.6088,-8.6088,-8.467,-8.1869,-8.133,-8.11,-8.1093,-8.1093,-8.1093,-8.1093,-8.1093,-8.1093,-8.1162,-8.1975,-8.2287,-8.2304,-8.2304,-8.2304,-8.2304,-8.2304,-8.2304,-8.2304,-8.2304,-8.2304,-8.2304,-8.2304,-8.23,-8.2287,-8.2314,-8.1749,-8.1093,-8.1093,-8.0739,-8.0315,-8.0337,-7.8199,-7.5994,-7.6024,-7.8237,-8.0307,-8.0307,-7.8054,-7.687,-7.9768,-7.7954,-7.5999,-7.6002,-7.5683,-7.4789,-7.2806,-7.2503,-7.249,-7.249,-7.2475,-7.2496,-7.2496,-7.2511,-7.249,-7.249,-7.2541,-7.2519,-7.2519,-7.249,-7.2475,-7.249,-7.2509,-7.2103,-7.1326,-7.0818,-7.0588,-7.0588,-7.108,-7.111,-7.0643,-7.0614,-6.9267,-5.2844,-5.4484,-5.568,-5.5305,-5.4688,-5.4295,-5.4647,-5.552,-5.6235,-5.6235,-5.6895,-5.7703,-5.8584,-6.075,-6.3392,-6.6439,-6.872,-7.1272,-7.4404,-7.6005,-7.7608,-7.963,-8.2124,-8.402,-8.4937,-8.6111,-8.6791,-8.6863,-8.6368,-8.6099,-8.6099,-8.6099,-8.6099,-8.6099,-8.6094,-8.6126,-8.612,-8.4286,-8.2599,-8.11,-8.11,-8.1093,-8.1093,-8.1093,-8.1093,-8.1124,-8.1581,-8.1762,-8.1778,-8.2163,-8.2281,-8.2304,-8.2304,-8.2304,-8.2304,-8.2304,-8.2304,-8.2304,-8.2304,-8.2304,-8.2304,-8.2304,-8.2304,-8.2303,-8.2312,-8.1875,-8.1383,-8.1176,-8.1093,-8.1124,-8.1116,-7.9208,-7.757,-7.8554,-7.9969,-8.1116,-8.1116,-7.9862,-7.9246,-8.0769,-7.9815,-7.8762,-7.8755,-7.7226,-7.5792,-7.5164,-7.509,-7.4459,-7.2746,-7.2504,-7.2504,-7.2504,-7.2541,-7.3223,-7.4941,-7.5125,-7.5065,-7.5065,-7.3443,-7.3318,-7.5014,-7.5087,-7.4952,-7.4555,-7.4582,-7.3461,-7.127,-7.125,-7.1287,-7.1266,-7.1328,-7.0575,-5.2019,-5.4415,-5.6879,-5.6866,-5.6227,-5.5535,-5.5135,-5.5822,-5.652,-5.6511,-5.7015,-5.7821,-5.9066,-6.2388,-6.6728,-7.2282,-7.306,-7.3827,-7.6331,-7.6844,-7.7821,-8.0201,-8.192,-8.3367,-8.4484,-8.5747,-8.6209,-8.5555,-8.5709,-8.5901,-8.6094,-8.6094,-8.6094,-8.6094,-8.6094,-8.6088,-8.6082,-8.2785,-8.1068,-8.11,-8.1093,-8.1093,-8.1093,-8.1093,-8.1208,-8.1393,-8.2034,-8.2298,-8.2274,-8.2274,-8.2309,-8.2304,-8.2304,-8.2304,-8.2304,-8.2304,-8.2304,-8.2304,-8.2304,-8.2304,-8.2304,-8.2304,-8.2304,-8.2304,-8.2304,-8.2078,-8.1753,-8.1368,-8.1208,-8.117,-8.1124,-8.0092,-7.9446,-8.0777,-8.1085,-8.1124,-8.1124,-8.1093,-8.1093,-8.1116,-8.1085,-8.1085,-8.1077,-7.8922,-7.7415,-7.8088,-7.7678,-7.6382,-7.3942,-7.3603,-7.3603,-7.3603,-7.364,-7.4639,-7.7082,-7.7266,-7.7266,-7.7266,-7.5005,-7.4689,-7.7215,-7.7295,-7.7334,-7.7334,-7.7286,-7.5323,-7.1307,-7.1265,-7.1312,-7.1312,-7.1321,-7.1266,-4.867,-5.1042,-5.3536,-5.3522,-5.5655,-5.7376,-5.588,-5.5615,-5.5688,-5.5686,-5.5716,-5.5801,-5.5934,-6.2251,-6.9141,-7.4362,-7.517,-7.6069,-7.8606,-8.014,-8.1039,-8.1269,-8.2598,-8.3561,-8.367,-8.3785,-8.3862,-8.3785,-8.4516,-8.5286,-8.6049,-8.6094,-8.6094,-8.6094,-8.6126,-8.6088,-8.6082,-8.2785,-8.11,-8.1093,-8.1093,-8.1093,-8.1093,-8.1093,-8.1516,-8.2201,-8.2263,-8.2281,-8.2297,-8.2297,-8.2303,-8.2304,-8.2304,-8.2304,-8.2304,-8.2304,-8.2304,-8.2304,-8.2304,-8.2304,-8.2304,-8.2304,-8.2304,-8.2304,-8.2304,-8.2273,-8.218,-8.1754,-8.1554,-8.14,-8.1162,-8.1008,-8.0939,-8.1085,-8.1124,-8.1093,-8.1093,-8.1093,-8.1093,-8.1093,-8.1093,-8.1093,-8.1085,-8.0915,-8.0768,-8.0787,-7.8804,-7.7199,-7.6972,-7.6972,-7.6958,-7.6958,-7.6972,-7.7035,-7.7268,-7.7304,-7.7304,-7.7304,-7.7121,-7.7047,-7.7279,-7.7304,-7.7316,-7.7316,-7.7343,-7.5307,-7.1301,-7.1302,-7.1312,-7.1312,-7.1312,-7.1312,-5.137,-5.2254,-5.3213,-5.32,-5.4129,-5.4862,-5.4246,-5.6426,-5.8882,-5.9859,-6.0076,-5.9765,-5.8761,-6.2767,-6.844,-7.5482,-7.7441,-7.8502,-7.9415,-8.0506,-8.1176,-8.1176,-8.215,-8.2785,-8.2785,-8.3285,-8.3593,-8.3593,-8.3901,-8.4703,-8.6043,-8.612,-8.612,-8.612,-8.612,-8.5087,-8.3016,-8.1715,-8.11,-8.1093,-8.1093,-8.1093,-8.1124,-8.163,-8.2006,-8.2301,-8.2314,-8.2312,-8.2304,-8.2304,-8.2304,-8.2304,-8.2304,-8.2304,-8.2304,-8.2304,-8.2304,-8.2304,-8.2304,-8.2304,-8.2304,-8.2304,-8.2304,-8.2304,-8.2304,-8.2217,-8.2062,-8.1794,-8.1581,-8.1362,-8.1131,-8.1093,-8.1093,-8.1093,-8.1093,-8.1093,-8.1093,-8.1093,-8.1093,-8.1093,-8.1093,-8.1093,-8.1093,-8.108,-8.0848,-8.0068,-7.8445,-7.7326,-7.7303,-7.7292,-7.7255,-7.7255,-7.7292,-7.7268,-7.7304,-7.7304,-7.7304,-7.7304,-7.7304,-7.7304,-7.7329,-7.7304,-7.7304,-7.7304,-7.7306,-7.5312,-7.1271,-7.1268,-7.1312,-7.1312,-7.1312,-7.1312,-5.3203,-5.3198,-5.3445,-5.4442,-5.3946,-5.3462,-5.448,-5.886,-6.3309,-6.5419,-6.5867,-6.5201,-6.3094,-6.3727,-6.7341,-7.5907,-7.8907,-8.0195,-8.0238,-8.0707,-8.1093,-8.1093,-8.1593,-8.19,-8.19,-8.2439,-8.2785,-8.2785,-8.3093,-8.3664,-8.4472,-8.5504,-8.562,-8.4549,-8.451,-8.3433,-8.1138,-8.11,-8.1131,-8.1093,-8.1093,-8.1093,-8.1124,-8.1931,-8.2297,-8.2319,-8.2293,-8.2304,-8.2304,-8.2304,-8.2304,-8.2304,-8.2304,-8.2304,-8.2304,-8.2304,-8.2304,-8.2304,-8.2304,-8.2304,-8.2304,-8.2304,-8.2304,-8.2304,-8.2304,-8.2187,-8.2063,-8.187,-8.1662,-8.1439,-8.1246,-8.1131,-8.1093,-8.1093,-8.1093,-8.1093,-8.1093,-8.1093,-8.1093,-8.1093,-8.1093,-8.1093,-8.1093,-8.1093,-8.072,-7.9532,-7.8435,-7.7604,-7.734,-7.7304,-7.7304,-7.7304,-7.7304,-7.7304,-7.7304,-7.7304,-7.7304,-7.7304,-7.7304,-7.7304,-7.7304,-7.7304,-7.7304,-7.7304,-7.73,-7.5363,-7.1271,-7.1331,-7.1274,-7.1312,-7.1312,-7.1312,-5.3203,-5.3198,-5.397,-5.7149,-5.5558,-5.4062,-5.7277,-6.3027,-6.8578,-7.187,-7.2556,-7.1563,-6.8274,-6.5073,-6.606,-7.5727,-7.9463,-8.1132,-8.108,-8.1093,-8.1093,-8.1093,-8.1093,-8.1093,-8.1093,-8.1093,-8.1093,-8.1093,-8.2054,-8.2208,-8.1177,-8.4241,-8.451,-8.1222,-8.11,-8.11,-8.11,-8.1093,-8.1093,-8.1093,-8.1093,-8.1093,-8.1124,-8.1931,-8.2299,-8.2304,-8.2304,-8.2304,-8.2304,-8.2304,-8.2304,-8.2304,-8.2304,-8.2304,-8.2304,-8.2304,-8.2304,-8.2304,-8.2304,-8.2304,-8.2304,-8.2304,-8.2304,-8.2304,-8.2304,-8.2304,-8.2261,-8.2065,-8.1856,-8.1662,-8.1439,-8.1246,-8.1093,-8.1093,-8.1093,-8.1093,-8.1093,-8.1093,-8.1093,-8.1093,-8.1093,-8.1093,-8.1093,-8.1093,-8.0796,-7.9917,-7.9123,-7.8304,-7.7413,-7.7304,-7.7304,-7.7304,-7.7304,-7.7304,-7.7304,-7.7304,-7.7304,-7.7304,-7.7304,-7.7304,-7.7304,-7.7304,-7.7304,-7.7304,-7.7334,-7.5299,-7.1382,-7.1284,-7.1268,-7.1312,-7.1312,-7.1312,-5.2578,-5.3208,-5.3461,-5.4381,-5.3902,-5.4045,-5.7266,-6.1251,-6.6478,-7.4275,-7.5921,-7.4219,-6.871,-6.877,-7.1301,-7.6451,-7.9419,-8.1079,-8.1106,-8.1093,-8.1093,-8.1093,-8.1093,-8.1093,-8.1093,-8.1093,-8.1093,-8.1093,-8.14,-8.1439,-8.1131,-8.2016,-8.2131,-8.11,-8.1131,-8.1093,-8.1093,-8.1093,-8.1093,-8.1093,-8.1093,-8.1093,-8.1124,-8.1931,-8.2299,-8.2304,-8.2304,-8.2304,-8.2304,-8.2304,-8.2304,-8.2304,-8.2304,-8.2304,-8.2304,-8.2304,-8.2304,-8.2304,-8.2304,-8.2304,-8.2304,-8.2304,-8.2304,-8.2304,-8.2304,-8.2304,-8.2265,-8.2051,-8.1844,-8.1652,-8.1436,-8.1246,-8.1093,-8.1093,-8.1093,-8.1093,-8.1093,-8.1093,-8.1093,-8.1093,-8.1093,-8.1093,-8.1093,-8.1093,-8.072,-7.9532,-7.916,-7.8604,-7.745,-7.7304,-7.7304,-7.7304,-7.7304,-7.7304,-7.7304,-7.7304,-7.7304,-7.7304,-7.7304,-7.7304,-7.7304,-7.7304,-7.7304,-7.7304,-7.7334,-7.6689,-7.5477,-7.2687,-7.1263,-7.1319,-7.1274,-7.1312,-5.0721,-5.1234,-5.1261,-5.1237,-5.3207,-5.6291,-6.0836,-6.2347,-6.5201,-7.3664,-7.6417,-7.6101,-7.2233,-7.3093,-7.5346,-7.8346,-8.0113,-8.1078,-8.1106,-8.1093,-8.1093,-8.1093,-8.1093,-8.1093,-8.1093,-8.1093,-8.1093,-8.1093,-8.1093,-8.1093,-8.1093,-8.1093,-8.1093,-8.1093,-8.1093,-8.1093,-8.1093,-8.1093,-8.1093,-8.1093,-8.1093,-8.1093,-8.1124,-8.1931,-8.2299,-8.2304,-8.2304,-8.2304,-8.2304,-8.2304,-8.2304,-8.2304,-8.2304,-8.2304,-8.2304,-8.2304,-8.2304,-8.2304,-8.2304,-8.2304,-8.2304,-8.2304,-8.2304,-8.2304,-8.2304,-8.2304,-8.2262,-8.2055,-8.1856,-8.1657,-8.1456,-8.1246,-8.1093,-8.1093,-8.1093,-8.1093,-8.1093,-8.1093,-8.1093,-8.1093,-8.1093,-8.1093,-8.1093,-8.0888,-8.0352,-7.9335,-7.8766,-7.8163,-7.7426,-7.7304,-7.7304,-7.7304,-7.7304,-7.7304,-7.7304,-7.7304,-7.7304,-7.7304,-7.7304,-7.7304,-7.7304,-7.7304,-7.7304,-7.7304,-7.7304,-7.7093,-7.6718,-7.4251,-7.2503,-7.1325,-7.1679,-7.1688,-4.8384,-4.852,-4.8792,-4.9097,-5.4064,-6.0408,-6.6353,-6.5623,-6.5347,-7.1296,-7.4801,-7.6913,-7.7223,-7.7291,-7.8128,-8.0666,-8.1109,-8.1114,-8.1106,-8.1093,-8.1093,-8.1093,-8.1093,-8.1093,-8.1093,-8.1093,-8.1093,-8.1093,-8.1093,-8.1093,-8.1093,-8.1093,-8.1093,-8.1093,-8.1093,-8.1093,-8.1093,-8.1093,-8.1093,-8.1093,-8.1093,-8.1093,-8.1124,-8.185,-8.224,-8.2304,-8.2304,-8.2304,-8.2304,-8.2304,-8.2304,-8.2304,-8.2304,-8.2304,-8.2304,-8.2304,-8.2304,-8.2304,-8.2304,-8.2304,-8.2304,-8.2304,-8.2304,-8.2304,-8.2304,-8.2304,-8.2242,-8.2084,-8.1862,-8.164,-8.1456,-8.1246,-8.1093,-8.1093,-8.1093,-8.1093,-8.1093,-8.1093,-8.1093,-8.1093,-8.1093,-8.1093,-8.1093,-8.0535,-7.9888,-7.9198,-7.8053,-7.7304,-7.7304,-7.7304,-7.7304,-7.7304,-7.7304,-7.7304,-7.7304,-7.7304,-7.7304,-7.7304,-7.7304,-7.7304,-7.7304,-7.7304,-7.7304,-7.7304,-7.7304,-7.6856,-7.5959,-7.5855,-7.4365,-7.1559,-7.2368,-7.2279,-4.8972,-5.0185,-5.2767,-5.5265,-6.0772,-6.5962,-6.739,-6.91,-7.0826,-7.2186,-7.3056,-7.4323,-7.6844,-7.7269,-7.8131,-8.0692,-8.1112,-8.1113,-8.1093,-8.1093,-8.1093,-8.1093,-8.1093,-8.1093,-8.1093,-8.1093,-8.1093,-8.1093,-8.1093,-8.1093,-8.1093,-8.1093,-8.1093,-8.1093,-8.1093,-8.1093,-8.1093,-8.1093,-8.1093,-8.1093,-8.1093,-8.1093,-8.1093,-8.1273,-8.1714,-8.2304,-8.2304,-8.2304,-8.2304,-8.2304,-8.2304,-8.2304,-8.2304,-8.2304,-8.2304,-8.2304,-8.2304,-8.2304,-8.2304,-8.2304,-8.2304,-8.2304,-8.2304,-8.2304,-8.2304,-8.2304,-8.2242,-8.2084,-8.186,-8.1677,-8.1462,-8.1246,-8.1093,-8.1093,-8.1093,-8.1093,-8.1093,-8.1093,-8.1093,-8.1093,-8.1093,-8.1093,-8.1093,-8.0535,-7.9727,-7.8653,-7.7789,-7.7304,-7.7304,-7.7304,-7.7304,-7.7304,-7.7304,-7.7304,-7.7304,-7.7304,-7.7304,-7.7304,-7.7304,-7.7304,-7.7304,-7.7304,-7.7304,-7.7304,-7.7304,-7.7181,-7.6956,-7.6161,-7.5049,-7.3604,-7.3102,-7.2279,-5.1119,-5.3036,-5.6294,-5.9465,-6.407,-6.7694,-6.7687,-6.902,-7.0613,-7.2146,-7.2526,-7.3378,-7.6155,-7.8036,-7.9553,-8.0889,-8.1099,-8.0823,-7.9946,-8.0592,-8.1093,-8.1093,-8.1093,-8.1093,-8.1093,-8.1093,-8.1093,-8.1093,-8.1093,-8.1093,-8.1093,-8.1093,-8.1093,-8.1093,-8.1093,-8.1093,-8.1093,-8.1093,-8.1093,-8.1093,-8.1093,-8.1093,-8.1093,-8.1504,-8.1905,-8.2304,-8.2304,-8.2304,-8.2304,-8.2304,-8.2304,-8.2304,-8.2304,-8.2304,-8.2304,-8.2304,-8.2304,-8.2304,-8.2304,-8.2304,-8.2304,-8.2304,-8.2304,-8.2304,-8.2304,-8.2304,-8.2253,-8.1951,-8.1771,-8.1662,-8.1323,-8.117,-8.1093,-8.1093,-8.1093,-8.1093,-8.1093,-8.1093,-8.1093,-8.1093,-8.1093,-8.1093,-8.1093,-8.0315,-7.9244,-7.7979,-7.751,-7.7304,-7.7304,-7.7304,-7.7304,-7.7304,-7.7304,-7.7304,-7.7304,-7.7304,-7.7304,-7.7304,-7.7304,-7.7304,-7.7304,-7.7304,-7.7304,-7.7304,-7.7304,-7.7304,-7.7304,-7.6793,-7.6027,-7.4976,-7.4005,-7.2962,-5.3046,-5.5926,-5.9476,-6.2132,-6.5243,-6.7715,-6.767,-6.7686,-6.8565,-7.1573,-7.2246,-7.2988,-7.5513,-7.8292,-8.0199,-8.0199,-8.0366,-8.0015,-7.8562,-7.9677,-8.0746,-8.1047,-8.0939,-8.0862,-8.0823,-8.0977,-8.1054,-8.09,-8.09,-8.0939,-8.1093,-8.1093,-8.1093,-8.1093,-8.1093,-8.1093,-8.1093,-8.1093,-8.1093,-8.1093,-8.1093,-8.1154,-8.133,-8.2006,-8.2296,-8.2304,-8.2304,-8.2304,-8.2304,-8.2304,-8.2304,-8.2304,-8.2304,-8.2304,-8.2304,-8.2304,-8.2304,-8.2304,-8.2304,-8.2304,-8.2304,-8.2304,-8.2304,-8.2304,-8.2304,-8.2297,-8.217,-8.1792,-8.1662,-8.1554,-8.1208,-8.1093,-8.1093,-8.1093,-8.1093,-8.1093,-8.1093,-8.1093,-8.1093,-8.1093,-8.1093,-8.1061,-8.0959,-7.9967,-7.8816,-7.7651,-7.7365,-7.7304,-7.7304,-7.7304,-7.7304,-7.7304,-7.7304,-7.7304,-7.7304,-7.7304,-7.7304,-7.7304,-7.7304,-7.7304,-7.7304,-7.7304,-7.7304,-7.7304,-7.7304,-7.7304,-7.7304,-7.7304,-7.6793,-7.5787,-7.4757,-7.3772,-5.2449,-5.7589,-6.2298,-6.2708,-6.5257,-6.7731,-6.7684,-6.7677,-6.8372,-7.0616,-7.11,-7.2092,-7.5398,-7.6399,-7.6663,-7.6701,-7.7531,-7.8062,-7.7831,-7.84,-7.94,-8.0931,-8.04,-7.99,-7.9669,-8.0516,-8.0785,-8.0054,-7.9977,-8.0285,-8.1054,-8.1124,-8.1124,-8.1093,-8.1093,-8.1093,-8.1093,-8.1093,-8.1093,-8.1093,-8.1093,-8.1478,-8.2124,-8.2252,-8.23,-8.2304,-8.2304,-8.2304,-8.2304,-8.2304,-8.2304,-8.2304,-8.2304,-8.2304,-8.2304,-8.2304,-8.2304,-8.2304,-8.2304,-8.2304,-8.2304,-8.2304,-8.2304,-8.2304,-8.2304,-8.2182,-8.1981,-8.1753,-8.1585,-8.1362,-8.117,-8.1093,-8.1093,-8.1093,-8.1093,-8.1093,-8.1093,-8.1093,-8.1093,-8.1093,-8.1093,-8.0926,-8.0352,-7.9642,-7.8962,-7.8309,-7.7651,-7.7304,-7.7304,-7.7304,-7.7304,-7.7304,-7.7304,-7.7304,-7.7304,-7.7304,-7.7304,-7.7304,-7.7304,-7.7304,-7.7304,-7.7304,-7.7304,-7.7304,-7.7304,-7.7304,-7.7304,-7.7304,-7.6793,-7.5787,-7.4757,-7.3772,-5.4485,-5.7958,-6.0746,-6.3529,-6.5308,-6.6478,-6.7062,-6.7468,-6.8307,-7.046,-7.0925,-7.195,-7.5379,-7.6002,-7.5985,-7.5994,-7.6417,-7.6754,-7.6754,-7.7784,-7.8438,-7.8246,-7.9015,-7.9285,-7.8515,-7.89,-7.9169,-7.9092,-7.9054,-7.94,-8.0131,-8.0777,-8.1124,-8.1093,-8.1093,-8.1093,-8.1093,-8.1093,-8.1093,-8.1093,-8.1093,-8.153,-8.2303,-8.2316,-8.232,-8.2304,-8.2304,-8.2304,-8.2304,-8.2304,-8.2304,-8.2304,-8.2304,-8.2304,-8.2304,-8.2304,-8.2304,-8.2304,-8.2304,-8.2304,-8.2304,-8.2304,-8.2304,-8.2304,-8.2304,-8.2153,-8.1955,-8.1749,-8.1551,-8.1323,-8.1131,-8.1093,-8.1093,-8.1093,-8.1093,-8.1093,-8.1093,-8.1093,-8.1093,-8.1093,-8.1093,-8.0888,-8.0201,-7.96,-7.901,-7.8379,-7.771,-7.7304,-7.7304,-7.7304,-7.7304,-7.7304,-7.7304,-7.7304,-7.7304,-7.7304,-7.7304,-7.7304,-7.7304,-7.7304,-7.7304,-7.7304,-7.7561,-7.8038,-7.7561,-7.7304,-7.7304,-7.7304,-7.7082,-7.6628,-7.544,-7.4639,-5.5227,-5.7361,-5.8934,-6.2867,-6.4265,-6.4967,-6.6165,-6.6967,-6.8109,-7.0438,-7.0899,-7.1706,-7.4235,-7.539,-7.5976,-7.6015,-7.5985,-7.5908,-7.5601,-7.6899,-7.74,-7.6139,-7.7707,-7.8545,-7.7707,-7.7784,-7.7977,-7.8169,-7.8207,-7.8477,-7.9131,-7.9785,-8.0315,-8.0669,-8.0516,-8.0516,-8.0669,-8.0977,-8.1131,-8.1201,-8.1246,-8.1412,-8.166,-8.2117,-8.2139,-8.1875,-8.2187,-8.2304,-8.2304,-8.2304,-8.2304,-8.2304,-8.2304,-8.2304,-8.2304,-8.2304,-8.2304,-8.2304,-8.2304,-8.2304,-8.2304,-8.2304,-8.2304,-8.2304,-8.2304,-8.213,-8.1898,-8.1762,-8.1516,-8.1285,-8.1131,-8.1093,-8.1093,-8.1093,-8.1093,-8.1093,-8.1093,-8.1093,-8.1093,-8.1093,-8.1093,-8.0959,-8.0463,-7.9847,-7.9244,-7.8602,-7.796,-7.751,-7.7304,-7.7304,-7.7304,-7.7304,-7.7304,-7.7304,-7.7304,-7.7304,-7.7304,-7.7304,-7.7304,-7.7304,-7.7304,-7.7524,-7.7965,-7.8589,-7.8185,-7.7965,-7.7928,-7.7745,-7.7745,-7.7866,-7.6195,-7.5472,-5.2485,-5.5668,-5.8297,-5.9595,-6.141,-6.3407,-6.5179,-6.6228,-6.7619,-7.0324,-7.0899,-7.0937,-7.1129,-7.3812,-7.5995,-7.5995,-7.5995,-7.561,-7.4543,-7.539,-7.6121,-7.6015,-7.6823,-7.74,-7.7323,-7.8015,-7.813,-7.74,-7.7361,-7.7707,-7.8477,-7.7861,-7.8092,-7.943,-7.89,-7.89,-7.9485,-8.0554,-8.1239,-8.1501,-8.1624,-8.1047,-7.9914,-8.1538,-8.1717,-8.0742,-8.1836,-8.2304,-8.2304,-8.2304,-8.2304,-8.2304,-8.2304,-8.2304,-8.2304,-8.2304,-8.2304,-8.2304,-8.2304,-8.2304,-8.2304,-8.2304,-8.2304,-8.2304,-8.2304,-8.2031,-8.1717,-8.1716,-8.14,-8.1093,-8.1093,-8.1093,-8.1093,-8.1093,-8.1093,-8.1093,-8.1093,-8.1093,-8.1093,-8.1093,-8.1093,-8.1093,-8.1061,-8.0499,-7.9847,-7.9244,-7.8653,-7.8016,-7.7365,-7.7304,-7.7304,-7.7304,-7.7304,-7.7304,-7.7304,-7.7304,-7.7304,-7.7304,-7.7304,-7.7304,-7.7304,-7.8112,-7.8552,-7.8589,-7.9286,-7.9653,-7.9653,-7.8883,-7.8919,-7.9617,-7.6732,-7.5832,-5.165,-5.3529,-5.5515,-5.7969,-5.9538,-6.1107,-6.3447,-6.5348,-6.7012,-6.8493,-6.8202,-6.8371,-7.0502,-7.1887,-7.2745,-7.2717,-7.2717,-7.2947,-7.3707,-7.3822,-7.4361,-7.5851,-7.5322,-7.5284,-7.6361,-7.6207,-7.6169,-7.6438,-7.6476,-7.6823,-7.7669,-7.7438,-7.7746,-7.8815,-7.8592,-7.8592,-7.8823,-7.9361,-7.9939,-8.0585,-8.0669,-8.0631,-8.0354,-8.0934,-8.1094,-8.0898,-8.1875,-8.2304,-8.2304,-8.2304,-8.2304,-8.2304,-8.2304,-8.2304,-8.2304,-8.2304,-8.2304,-8.2304,-8.2304,-8.2304,-8.2304,-8.2304,-8.2304,-8.2304,-8.2304,-8.21,-8.1889,-8.1736,-8.1477,-8.1246,-8.1131,-8.1093,-8.1093,-8.1093,-8.1093,-8.1093,-8.1093,-8.1093,-8.1093,-8.1093,-8.1093,-8.1093,-8.1093,-8.0535,-7.9888,-7.929,-7.8704,-7.8072,-7.7365,-7.7304,-7.7304,-7.7304,-7.7304,-7.7304,-7.7304,-7.7304,-7.7561,-7.8112,-7.7635,-7.7561,-7.8112,-7.7892,-7.8259,-7.9323,-7.9653,-7.98,-7.98,-7.9507,-7.9507,-7.9764,-7.7807,-7.7064,-5.0662,-5.165,-5.3188,-5.6381,-5.7593,-5.8829,-6.1996,-6.3803,-6.5227,-6.6715,-6.6436,-6.6576,-6.8809,-6.9244,-6.9575,-7.0717,-7.0909,-7.1294,-7.2476,-7.2255,-7.2601,-7.4091,-7.435,-7.4476,-7.4822,-7.5014,-7.5245,-7.5553,-7.5822,-7.6245,-7.6823,-7.6861,-7.7092,-7.763,-7.7938,-7.7938,-7.7669,-7.8438,-7.898,-7.9365,-7.975,-7.9941,-7.997,-8.0179,-8.039,-8.0625,-8.1484,-8.2031,-8.2304,-8.2304,-8.2304,-8.2304,-8.2304,-8.2304,-8.2304,-8.2304,-8.2304,-8.2304,-8.2304,-8.2304,-8.2304,-8.2304,-8.2304,-8.2304,-8.2304,-8.2148,-8.1976,-8.1773,-8.1533,-8.1323,-8.1131,-8.1093,-8.1093,-8.1093,-8.1093,-8.1093,-8.1093,-8.1093,-8.1093,-8.1093,-8.1093,-8.1093,-8.1093,-8.075,-8.0163,-7.9335,-7.8853,-7.8272,-7.7426,-7.7304,-7.7304,-7.7304,-7.7304,-7.7304,-7.7304,-7.7304,-7.7561,-7.8148,-7.7892,-7.8002,-7.8589,-7.8552,-7.9066,-8.0167,-8.0461,-8.0608,-8.0571,-8.0314,-8.0314,-8.0608,-7.8666,-7.7731,0.0,0.0,0.0,-5.4699,-5.5508,-5.6583,-6.0792,-6.1576,-6.2231,-6.5179,-6.5859,-6.591,-6.591,-6.5923,-6.6961,-7.0221,-7.076,-7.0771,-7.0887,-7.0898,-7.0909,-7.0909,-7.385,-7.5005,-7.2832,-7.4591,-7.5543,-7.4745,-7.5476,-7.5938,-7.5976,-7.5976,-7.5938,-7.5938,-7.6746,-7.6784,-7.5976,-7.7784,-7.8412,-7.7905,-7.8876,-7.9059,-7.8515,-7.9297,-7.9648,-7.9726,-8.0586,-8.1445,-8.2265,-8.2304,-8.2304,-8.2304,-8.2304,-8.2304,-8.2304,-8.2304,-8.2304,-8.2304,-8.2304,-8.2304,-8.2304,-8.2304,-8.2304,-8.2304,-8.2304,-8.2148,-8.1982,-8.1753,-8.1546,-8.1362,-8.1131,-8.1093,-8.1093,-8.1093,-8.1093,-8.1093,-8.1093,-8.1093,-8.1093,-8.1093,-8.1093,-8.1093,-8.1093,-8.1093,-8.0681,-7.938,-7.9198,-7.8716,-7.745,-7.7304,-7.7304,-7.7304,-7.7304,-7.7304,-7.7304,-7.7304,-7.7341,-7.7378,-7.8148,-7.8589,-7.8626,-8.0131,-8.0975,-8.1012,-8.1782,-8.2186,-8.2186,-8.1415,-8.1452,-8.2084,-7.9168,-7.7492,-4.86,0.0,0.0,0.0,0.0,0.0,-5.7156,-5.8289,-5.954,-6.2515,-6.4614,-6.5884,-6.5897,-6.5872,-6.6205,-6.7154,-6.7256,-6.8141,-7.0579,-7.0887,-7.0898,-7.0909,-7.1745,-7.2552,-7.3206,-7.2678,-7.2899,-7.4284,-7.463,-7.4861,-7.5053,-7.5053,-7.4784,-7.4207,-7.4437,-7.4707,-7.5053,-7.5861,-7.6828,-7.792,-7.7862,-7.8044,-7.8515,-7.8711,-7.8828,-7.8867,-7.9687,-8.0547,-8.1406,-8.2031,-8.2304,-8.2304,-8.2304,-8.2304,-8.2304,-8.2304,-8.2304,-8.2304,-8.2304,-8.2304,-8.2304,-8.2304,-8.2304,-8.2304,-8.2304,-8.2271,-8.2128,-8.1788,-8.1662,-8.1516,-8.117,-8.1093,-8.1093,-8.1093,-8.1093,-8.1093,-8.1093,-8.1093,-8.1093,-8.1093,-8.1093,-8.1093,-8.1093,-8.1093,-8.0681,-7.938,-7.9198,-7.8716,-7.745,-7.7304,-7.7304,-7.7304,-7.7304,-7.7304,-7.7304,-7.7304,-7.7598,-7.8222,-7.8479,-7.8846,-7.9433,-7.9874,-8.0388,-8.1012,-8.1232,-8.1636,-8.2186,-8.1966,-8.1966,-8.2121,-7.9817,-7.849,0.0,0.0,0.0,-5.17,0.0,0.0,-5.615,-5.6681,-5.7504,-6.0887,-6.3137,-6.4638,-6.5114,-6.5576,-6.5923,-6.5923,-6.591,-6.6576,-6.8525,-7.004,-7.0925,-7.0871,-7.0898,-7.1283,-7.2322,-7.1486,-7.1448,-7.2783,-7.3322,-7.3783,-7.4168,-7.4207,-7.3976,-7.3514,-7.3514,-7.3899,-7.4707,-7.5024,-7.59,-7.7336,-7.6805,-7.7031,-7.7969,-7.7578,-7.7812,-7.8515,-7.8984,-7.9687,-8.0508,-8.1015,-8.164,-8.2304,-8.2304,-8.2304,-8.2304,-8.2304,-8.2304,-8.2304,-8.2304,-8.2304,-8.2304,-8.2304,-8.2304,-8.2304,-8.2304,-8.2312,-8.224,-8.1797,-8.1585,-8.14,-8.117,-8.1093,-8.1093,-8.1093,-8.1093,-8.1093,-8.1093,-8.1093,-8.1093,-8.1093,-8.1093,-8.1093,-8.1093,-8.1093,-8.0681,-7.938,-7.9198,-7.8716,-7.745,-7.7304,-7.7304,-7.7304,-7.7304,-7.7304,-7.7304,-7.7304,-7.7671,-7.8552,-7.8919,-7.947,-8.0277,-8.0608,-8.1012,-8.1489,-8.1489,-8.1746,-8.2186,-8.2186,-8.1952,-8.1474,-7.9804,-7.9009,0.0,0.0,0.0,0.0,-5.2734,0.0,-5.6376,-5.6114,-5.6142,-5.9657,-6.1266,-6.2406,-6.3614,-6.473,-6.5538,-6.5716,-6.582,-6.5884,-6.5897,-6.8794,-7.0887,-7.0898,-7.0898,-7.0898,-7.0898,-7.0909,-7.0909,-7.0909,-7.1832,-7.264,-7.3206,-7.3322,-7.3322,-7.3206,-7.3206,-7.3591,-7.4399,-7.4601,-7.5233,-7.6288,-7.5746,-7.5976,-7.6875,-7.6094,-7.664,-7.8203,-7.8203,-7.8711,-7.957,-7.957,-8.0586,-8.2148,-8.2148,-8.2226,-8.2304,-8.2304,-8.2304,-8.2304,-8.2304,-8.2304,-8.2304,-8.2304,-8.2304,-8.2304,-8.2295,-8.2299,-8.2198,-8.177,-8.1359,-8.1093,-8.1093,-8.1093,-8.1093,-8.1093,-8.1093,-8.1093,-8.1093,-8.1093,-8.1093,-8.1093,-8.1093,-8.1093,-8.1093,-8.1093,-8.0681,-7.938,-7.9198,-7.8716,-7.745,-7.7304,-7.7304,-7.7304,-7.7304,-7.7304,-7.7304,-7.7414,-7.7781,-7.8552,-7.9433,-8.0241,-8.0975,-8.1782,-8.2186,-8.2186,-8.2186,-8.2186,-8.2186,-8.2296,-8.1861,-8.0912,-7.9786,-7.9466,0.0,0.0,0.0,-5.2617,-5.3617,0.0,-5.4127,-5.4847,-5.5983,-5.7434,-5.8473,-5.9588,-6.1166,-6.2204,-6.319,-6.433,-6.5307,-6.591,-6.5897,-6.8794,-7.0887,-7.0898,-7.0898,-7.0898,-7.0898,-7.0898,-7.0898,-7.0898,-7.1102,-7.1294,-7.1398,-7.2052,-7.2129,-7.1437,-7.1398,-7.1822,-7.2668,-7.2899,-7.3493,-7.4513,-7.4546,-7.4765,-7.5117,-7.4922,-7.543,-7.6406,-7.6406,-7.7305,-7.8711,-7.8711,-7.9726,-8.125,-8.125,-8.1679,-8.2304,-8.2304,-8.2304,-8.2304,-8.2304,-8.2304,-8.2304,-8.2304,-8.2304,-8.2292,-8.23,-8.22,-8.1947,-8.1561,-8.1291,-8.1093,-8.1093,-8.1093,-8.1093,-8.1093,-8.1093,-8.1093,-8.1093,-8.1093,-8.1093,-8.1093,-8.1093,-8.1093,-8.1093,-8.1093,-8.0681,-7.938,-7.9198,-7.8716,-7.745,-7.7304,-7.7304,-7.7304,-7.7304,-7.7304,-7.7304,-7.7965,-7.8405,-7.8589,-7.9947,-8.0828,-8.1012,-8.1782,-8.2186,-8.2186,-8.2186,-8.2186,-8.2186,-8.2847,-8.3044,-8.2806,-8.1455,-8.1153,0.0,-5.2473,-5.3421,-5.4,-5.4465,0.0,0.0,-5.4741,-5.4934,-5.6626,-5.6665,-5.7049,-5.9165,-5.9896,-6.0858,-6.2805,-6.4229,-6.5551,-6.6936,-6.9309,-7.0887,-7.0898,-7.0898,-7.0217,-6.8575,-6.9937,-7.0925,-7.0925,-7.0898,-7.0898,-7.0898,-7.1321,-7.136,-7.0898,-7.0898,-7.1321,-7.2168,-7.2283,-7.2899,-7.4014,-7.3664,-7.3876,-7.4609,-7.414,-7.4648,-7.5898,-7.543,-7.625,-7.7812,-7.7383,-7.8203,-7.9844,-8.0664,-8.1523,-8.2304,-8.2304,-8.2304,-8.2304,-8.2304,-8.2304,-8.2304,-8.2304,-8.2304,-8.2285,-8.2302,-8.2086,-8.1816,-8.1477,-8.1246,-8.1093,-8.1093,-8.1093,-8.1093,-8.1093,-8.1093,-8.1093,-8.1093,-8.1093,-8.1093,-8.1093,-8.1093,-8.1093,-8.1093,-8.1093,-8.075,-7.9806,-7.938,-7.8865,-7.7903,-7.751,-7.7304,-7.7304,-7.7304,-7.7304,-7.7304,-7.8112,-7.8772,-7.9176,-8.0314,-8.1195,-8.1562,-8.2003,-8.2186,-8.2186,-8.2994,-8.3214,-8.281,-8.4022,-8.4168,-8.3368,-8.2572,-8.2281,-5.2768,-5.3908,-5.5021,-5.5753,-5.5703,-5.5665,0.0,0.0,0.0,-5.6165,-5.5549,-5.5357,-5.7434,-5.7934,-5.8781,-6.1012,-6.2781,-6.4705,-6.7064,-6.8309,-6.9436,-7.0733,-7.0321,-6.8844,-6.6178,-6.8037,-6.9848,-7.081,-7.0514,-7.036,-7.0552,-7.0629,-7.0667,-7.0667,-7.0514,-7.0898,-7.1937,-7.1783,-7.2283,-7.3465,-7.2773,-7.3037,-7.4023,-7.3359,-7.3984,-7.5625,-7.4922,-7.5586,-7.7148,-7.6445,-7.707,-7.8633,-8.0156,-8.1289,-8.207,-8.2226,-8.2304,-8.2304,-8.2304,-8.2304,-8.2304,-8.2304,-8.2304,-8.2289,-8.2212,-8.1976,-8.1662,-8.14,-8.1208,-8.1093,-8.1093,-8.1093,-8.1093,-8.1093,-8.1093,-8.1093,-8.1093,-8.1093,-8.1093,-8.1093,-8.1093,-8.1093,-8.1093,-8.1093,-8.0855,-8.0201,-7.9685,-7.9152,-7.8588,-7.7903,-7.751,-7.751,-7.7512,-7.7488,-7.7341,-7.8369,-7.925,-7.9764,-8.0865,-8.1746,-8.2406,-8.259,-8.2663,-8.2663,-8.3948,-8.4278,-8.3654,-8.5086,-8.5123,-8.3875,-8.3593,-8.3151,-5.5823,-5.7294,-5.8077,-5.7098,-5.7896,-5.8204,-5.5434,0.0,-5.6242,-5.5011,0.0,-5.5665,-5.5934,0.0,0.0,-5.855,-6.0935,-6.2998,-6.3782,-6.2746,-6.4168,-7.017,-6.8282,-6.6319,-6.5935,-6.4833,-6.6038,-7.0541,-6.909,-6.8371,-6.9333,-6.9667,-6.986,-6.986,-6.909,-6.9436,-7.1014,-7.0321,-7.0514,-7.1541,-7.1589,-7.1759,-7.2031,-7.2109,-7.3086,-7.4726,-7.4648,-7.5586,-7.7187,-7.7109,-7.7617,-7.8594,-7.9492,-8.039,-8.125,-8.2031,-8.2304,-8.2304,-8.2304,-8.2304,-8.2304,-8.2304,-8.2304,-8.2219,-8.187,-8.1732,-8.1624,-8.1246,-8.1131,-8.1093,-8.1093,-8.1093,-8.1093,-8.1093,-8.1093,-8.1093,-8.1093,-8.1093,-8.1093,-8.1093,-8.1093,-8.1093,-8.1093,-8.1093,-8.0855,-8.0201,-8.0008,-7.9806,-7.9198,-7.8551,-7.82,-7.82,-7.8352,-7.8148,-7.7378,-7.9433,-8.0461,-7.9837,-8.1893,-8.3177,-8.3287,-8.3948,-8.4315,-8.4315,-8.4499,-8.4572,-8.4462,-8.5343,-8.571,-8.5527,-8.5153,-8.4478,-5.6613,-5.7522,-5.8088,-5.7828,-5.7896,-5.7665,-5.628,-5.5742,-5.5472,-5.5241,0.0,0.0,0.0,0.0,0.0,0.0,-5.9281,-6.0843,-6.2983,-6.269,-6.3666,-6.7526,-6.5026,-6.3937,-6.659,-6.5,-6.4168,-6.4975,-6.6,-6.6795,-6.7256,-6.8359,-6.8936,-6.8936,-6.909,-6.9475,-7.0206,-7.0321,-7.0667,-7.1206,-7.1394,-7.1587,-7.1719,-7.1914,-7.2969,-7.4531,-7.3515,-7.4648,-7.7109,-7.6094,-7.6484,-7.789,-7.918,-8.0234,-8.1054,-8.1406,-8.1875,-8.2304,-8.2304,-8.2304,-8.2304,-8.2304,-8.2304,-8.2265,-8.1959,-8.1813,-8.1662,-8.1323,-8.117,-8.1093,-8.1093,-8.1093,-8.1093,-8.1093,-8.1093,-8.1093,-8.1093,-8.1093,-8.1093,-8.1093,-8.1093,-8.1093,-8.1093,-8.1093,-8.0991,-8.0716,-8.0352,-8.0008,-7.9727,-7.9198,-7.9041,-7.9529,-7.9315,-7.92,-7.9311,-8.0345,-8.1048,-8.1158,-8.303,-8.4095,-8.4095,-8.4866,-8.5086,-8.4609,-8.5527,-8.5747,-8.5306,-8.6114,-8.6518,-8.6518,-8.6317,-8.5314,-5.699,-5.7597,-5.8012,-5.8227,-5.7819,-5.7242,-5.6742,-5.5895,-5.5357,-5.5934,-5.528,0.0,0.0,0.0,0.0,0.0,0.0,-5.9111,-6.135,-6.1851,-6.256,-6.4292,-6.1925,-6.1824,-6.6178,-6.4782,-6.3117,-6.1953,-6.3924,-6.541,-6.5872,-6.7051,-6.7821,-6.8052,-6.8436,-6.8898,-6.936,-6.9937,-7.0437,-7.0821,-7.131,-7.159,-7.1721,-7.1906,-7.2812,-7.418,-7.3164,-7.4297,-7.6758,-7.5742,-7.6055,-7.7305,-7.8555,-7.9687,-8.0703,-8.1172,-8.1758,-8.2304,-8.2304,-8.2304,-8.2304,-8.2304,-8.2304,-8.2265,-8.207,-8.1889,-8.1732,-8.1522,-8.1323,-8.117,-8.117,-8.1131,-8.1093,-8.1093,-8.1093,-8.1093,-8.1093,-8.1093,-8.1093,-8.1093,-8.1093,-8.1093,-8.1093,-8.1093,-8.1093,-8.1093,-8.0716,-8.0352,-8.0352,-7.9847,-7.9696,-8.0302,-8.0029,-8.0023,-8.0395,-8.1218,-8.2113,-8.3104,-8.4278,-8.5013,-8.527,-8.582,-8.5857,-8.527,-8.6407,-8.6701,-8.6114,-8.6738,-8.6995,-8.6995,-8.6995,-8.5991,-5.7589,-5.8501,-5.8765,-5.8404,-5.828,-5.7819,-5.6126,-5.6357,-5.6934,-5.6934,-5.7588,-5.8165,-5.8204,0.0,0.0,0.0,0.0,0.0,0.0,-5.8066,-5.9088,-6.0766,-5.9427,-5.9941,-6.3921,-6.3036,-6.282,-6.4359,-6.382,-6.4128,-6.582,-6.5936,-6.632,-6.7128,-6.6397,-6.6782,-6.8436,-6.8475,-6.8975,-6.9963,-7.1002,-7.1568,-7.1724,-7.1893,-7.25,-7.3398,-7.418,-7.5078,-7.6015,-7.6797,-7.7148,-7.7226,-7.7265,-7.8281,-7.9961,-8.164,-8.2265,-8.2304,-8.2304,-8.2304,-8.2304,-8.2304,-8.2304,-8.2265,-8.207,-8.1992,-8.1959,-8.1749,-8.1554,-8.1362,-8.1362,-8.1246,-8.1093,-8.1093,-8.1093,-8.1093,-8.1093,-8.1093,-8.1093,-8.1093,-8.1093,-8.1093,-8.1093,-8.1093,-8.1093,-8.1093,-8.1093,-8.1061,-8.1061,-8.0499,-8.0086,-8.0086,-8.0429,-8.034,-7.9613,-8.1858,-8.4022,-8.5563,-8.571,-8.6114,-8.6885,-8.6958,-8.6958,-8.6921,-8.6995,-8.6995,-8.6958,-8.6995,-8.6995,-8.6995,-8.6995,-8.6392,-5.7452,-5.8455,-5.9115,-5.8738,-5.8462,-5.8011,-5.6819,-5.678,-5.6973,-5.6973,-5.7703,-5.8319,-5.8319,0.0,0.0,0.0,0.0,0.0,0.0,-5.6451,-5.678,-5.7357,-5.8934,-5.9873,-5.9719,-6.0604,-6.1473,-6.205,-6.182,-6.2166,-6.332,-6.4436,-6.5166,-6.5436,-6.6244,-6.6974,-6.7513,-6.8667,-6.9475,-6.9925,-7.0986,-7.1545,-7.1749,-7.2517,-7.3359,-7.418,-7.4453,-7.543,-7.6758,-7.6445,-7.668,-7.7265,-7.7851,-7.8711,-7.9765,-8.0351,-8.1328,-8.2304,-8.2304,-8.2304,-8.2304,-8.2304,-8.2304,-8.2304,-8.2226,-8.2109,-8.1989,-8.1937,-8.1758,-8.1591,-8.1436,-8.1323,-8.1246,-8.1131,-8.1093,-8.1093,-8.1093,-8.1093,-8.1093,-8.1093,-8.1093,-8.1093,-8.1093,-8.1093,-8.1093,-8.1093,-8.1093,-8.1093,-8.1093,-8.1349,-8.1785,-8.2322,-8.2254,-8.2284,-8.2598,-8.3595,-8.4646,-8.571,-8.6297,-8.6738,-8.6995,-8.6995,-8.6995,-8.6995,-8.6995,-8.6995,-8.6995,-8.6995,-8.6995,-8.6995,-8.6995,-8.6392,-5.7327,-5.8128,-5.8719,-5.8775,-5.8628,-5.8294,-5.7604,-5.7665,-5.7896,-5.7896,-5.8588,-5.9204,-5.9204,-5.8934,0.0,0.0,0.0,0.0,0.0,-5.5703,-5.5703,-5.572,-5.8726,-5.9919,-5.762,-5.9181,-6.0204,-5.9935,-6.0165,-6.0704,-6.1589,-6.2974,-6.382,-6.4128,-6.5474,-6.6205,-6.6205,-6.7936,-6.9013,-6.9502,-7.0541,-7.1272,-7.1719,-7.2495,-7.3125,-7.3672,-7.3984,-7.4961,-7.625,-7.6015,-7.6406,-7.7265,-7.7812,-7.8555,-7.9336,-7.9922,-8.1054,-8.2304,-8.2304,-8.2304,-8.2304,-8.2304,-8.2304,-8.2304,-8.2304,-8.2226,-8.2226,-8.2851,-8.2432,-8.1933,-8.2416,-8.1981,-8.1362,-8.1246,-8.1131,-8.1093,-8.1093,-8.1093,-8.1093,-8.1093,-8.1093,-8.1093,-8.1093,-8.1093,-8.1093,-8.1093,-8.1093,-8.1208,-8.1477,-8.1977,-8.2631,-8.3516,-8.3202,-8.3301,-8.4236,-8.4521,-8.5086,-8.6151,-8.6701,-8.6995,-8.6995,-8.6995,-8.7399,-8.828,-8.7435,-8.7435,-8.828,-8.7435,-8.6995,-8.6995,-8.6995,-8.6571]}]]